[[{"header":{"parameterUnit":"m.s-1","parameterCategory":1,"la1":31.0,"la2":29.5877,"lo1":-88.7671,"lo2":-86.6584,"dy":0.0162,"dx":0.0185,"nx":115,"ny":88,"refTime":"2023-10-05T06:00:00:Z","depth":0,"parameterNumber":2,"parameterNumberName":"U-component_of_WINDS"},"data":[0.0,0.0,0.0,0.0,0.0,0.0,0.0,0.0,0.0,0.0,0.0,0.0,0.0,0.0,0.0,0.0,0.0,0.0,0.0,0.0,0.0,0.0,0.0,0.0,0.0,0.0,0.0,0.0,0.0,0.0,0.0,0.0,0.0,0.0,0.0,0.0,0.0,0.0,0.0,0.0,0.0,0.0,0.0,0.0,0.0,0.0,0.0,0.0,0.0,0.0,0.0,0.0,0.0,0.0,0.0,0.0,0.0,0.0,0.0,0.0,0.0,0.0,0.0,0.0,0.0,0.0,0.0,0.0,0.0,0.0,0.0,0.0,0.0,0.0,0.0,0.0,0.0,0.0,0.0,0.0,0.0,0.0,0.0,0.0,0.0,0.0,0.0,0.0,0.0,0.0,0.0,0.0,0.0,0.0,0.0,0.0,0.0,0.0,0.0,0.0,0.0,0.0,0.0,0.0,0.0,0.0,0.0,0.0,0.0,0.0,0.0,0.0,0.0,0.0,0.0,0.0,0.0,0.0,0.0,0.0,0.0,0.0,0.0,0.0,0.0,0.0,0.0,0.0,0.0,0.0,0.0,0.0,0.0,0.0,0.0,0.0,0.0,0.0,0.0,0.0,0.0,0.0,0.0,0.0,0.0,0.0,0.0,0.0,0.0,0.0,0.0,0.0,0.0,0.0,0.0,0.0,0.0,0.0,0.0,0.0,0.0,0.0,0.0,0.0,0.0,0.0,0.0,0.0,0.0,0.0,0.0,0.0,0.0,0.0,0.0,0.0,0.0,0.0,0.0,0.0,0.0,0.0,0.0,0.0,0.0,0.0,0.0,0.0,0.0,0.0,0.0,0.0,0.0,0.0,0.0,0.0,0.0,0.0,0.0,0.0,0.0,0.0,0.0,0.0,0.0,0.0,0.0,0.0,0.0,0.0,0.0,0.0,0.0,0.0,0.0,0.0,0.0,0.0,0.0,0.0,0.0,0.0,0.0,0.0,0.0,0.0,0.0,0.0,0.0,0.0,0.0,0.0,0.0,0.0,0.0,0.0,0.0,0.0,0.0,0.0,0.0,0.0,0.0,0.0,0.0,0.0,0.0,0.0,0.0,0.0,0.0,0.0,0.0,0.0,0.0,0.0,0.0,0.0,0.0,0.0,0.0,0.0,0.0,0.0,0.0,0.0,0.0,0.0,0.0,0.0,0.0,0.0,0.0,0.0,0.0,0.0,0.0,0.0,0.0,0.0,0.0,0.0,0.0,0.0,0.0,0.0,0.0,0.0,0.0,0.0,0.0,0.0,0.0,0.0,0.0,0.0,0.0,0.0,0.0,0.0,0.0,0.0,0.0,0.0,0.0,0.0,0.0,0.0,0.0,0.0,0.0,0.0,0.0,0.0,0.0,0.0,0.0,0.0,0.0,0.0,0.0,0.0,0.0,0.0,0.0,0.0,0.0,0.0,0.0,0.0,0.0,0.0,0.0,0.0,0.0,0.0,0.0,0.0,0.0,0.0,0.0,0.0,0.0,0.0,0.0,0.0,0.0,0.0,0.0,0.0,0.0,0.0,0.0,0.0,0.0,0.0,0.0,0.0,0.0,0.0,0.0,0.0,0.0,0.0,0.0,0.0,0.0,0.0,0.0,0.0,0.0,0.0,0.0,0.0,0.0,0.0,0.0,0.0,0.0,0.0,0.0,0.0,0.0,0.0,0.0,0.0,0.0,0.0,0.0,0.0,0.0,0.0,0.0,0.0,0.0,0.0,0.0,0.0,0.0,0.0,0.0,0.0,0.0,0.0,0.0,0.0,0.0,0.0,0.0,0.0,0.0,0.0,0.0,0.0,0.0,0.0,0.0,0.0,0.0,0.0,0.0,0.0,0.0,0.0,0.0,0.0,0.0,0.0,0.0,0.0,0.0,0.0,0.0,0.0,0.0,0.0,0.0,0.0,0.0,0.0,0.0,0.0,0.0,0.0,0.0,0.0,0.0,0.0,0.0,0.0,0.0,0.0,0.0,0.0,0.0,0.0,0.0,0.0,0.0,0.0,0.0,0.0,0.0,0.0,0.0,0.0,0.0,0.0,0.0,0.0,0.0,0.0,0.0,0.0,0.0,0.0,0.0,0.0,0.0,0.0,0.0,0.0,0.0,0.0,0.0,0.0,0.0,0.0,0.0,0.0,0.0,0.0,0.0,0.0,0.0,0.0,0.0,0.0,0.0,0.0,0.0,0.0,0.0,0.0,0.0,0.0,0.0,0.0,0.0,0.0,0.0,0.0,0.0,0.0,0.0,0.0,0.0,0.0,0.0,0.0,0.0,0.0,0.0,0.0,0.0,0.0,0.0,0.0,0.0,0.0,0.0,0.0,0.0,0.0,0.0,0.0,0.0,0.0,0.0,0.0,0.0,0.0,0.0,0.0,0.0,0.0,0.0,0.0,0.0,0.0,0.0,0.0,0.0,0.0,0.0,0.0,0.0,0.0,0.0,0.0,0.0,0.0,0.0,0.0,0.0,0.0,0.0,0.0,0.0,0.0,0.0,0.0,0.0,0.0,0.0,0.0,0.0,0.0,0.0,0.0,0.0,0.0,0.0,0.0,0.0,0.0,0.0,0.0,0.0,0.0,0.0,0.0,0.0,0.0,0.0,0.0,0.0,0.0,0.0,0.0,0.0,0.0,0.0,0.0,0.0,0.0,0.0,0.0,0.0,0.0,0.0,0.0,0.0,0.0,0.0,0.0,0.0,0.0,0.0,0.0,0.0,0.0,0.0,0.0,0.0,0.0,0.0,0.0,0.0,0.0,0.0,0.0,0.0,0.0,0.0,0.0,0.0,0.0,0.0,0.0,0.0,0.0,0.0,0.0,0.0,0.0,0.0,0.0,0.0,0.0,0.0,0.0,0.0,0.0,0.0,0.0,0.0,0.0,0.0,0.0,0.0,0.0,0.0,0.0,0.0,0.0,0.0,0.0,0.0,0.0,0.0,0.0,0.0,0.0,0.0,0.0,0.0,0.0,0.0,0.0,0.0,0.0,0.0,0.0,0.0,0.0,0.0,0.0,0.0,0.0,0.0,0.0,0.0,0.0,0.0,0.0,0.0,0.0,0.0,0.0,0.0,0.0,0.0,0.0,0.0,0.0,0.0,0.0,0.0,0.0,0.0,0.0,0.0,0.0,0.0,0.0,0.0,0.0,0.0,0.0,0.0,0.0,0.0,0.0,0.0,0.0,0.0,0.0,0.0,0.0,0.0,0.0,0.0,0.0,0.0,0.0,0.0,0.0,0.0,0.0,0.0,0.0,0.0,0.0,0.0,0.0,0.0,0.0,0.0,0.0,0.0,0.0,0.0,0.0,0.0,0.0,0.0,0.0,0.0,0.0,0.0,0.0,0.0,0.0,0.0,0.0,0.0,0.0,0.0,0.0,0.0,0.0,0.0,0.0,0.0,0.0,0.0,0.0,0.0,0.0,0.0,0.0,0.0,0.0,0.0,0.0,0.0,0.0,0.0,0.0,0.0,0.0,0.0,0.0,0.0,0.0,0.0,0.0,0.0,0.0,0.0,0.0,0.0,0.0,0.0,0.0,0.0,0.0,0.0,0.0,0.0,0.0,0.0,0.0,0.0,0.0,0.0,0.0,0.0,0.0,0.0,0.0,0.0,0.0,0.0,0.0,0.0,0.0,0.0,0.0,0.0,0.0,0.0,0.0,0.0,0.0,0.0,0.0,0.0,0.0,0.0,0.0,0.0,0.0,0.0,0.0,0.0,0.0,0.0,0.0,0.0,0.0,0.0,0.0,0.0,0.0,0.0,0.0,0.0,0.0,0.0,0.0,0.0,0.0,0.0,0.0,0.0,0.0,0.0,0.0,0.0,0.0,0.0,0.0,0.0,0.0,0.0,0.0,0.0,0.0,0.0,0.0,0.0,0.0,0.0,0.0,0.0,0.0,0.0,0.0,0.0,0.0,0.0,0.0,0.0,0.0,0.0,0.0,0.0,0.0,0.0,0.0,0.0,0.0,0.0,0.0,0.0,0.0,0.0,0.0,0.0,0.0,0.0,0.0,0.0,0.0,0.0,0.0,0.0,0.0,0.0,0.0,0.0,0.0,0.0,0.0,0.0,0.0,0.0,0.0,0.0,0.0,0.0,0.0,0.0,0.0,0.0,0.0,0.0,0.0,0.0,0.0,0.0,0.0,0.0,0.0,0.0,0.0,0.0,0.0,0.0,0.0,0.0,0.0,0.0,0.0,0.0,0.0,0.0,0.0,0.0,0.0,0.0,0.0,0.0,0.0,-3.4704,0.0,0.0,0.0,0.0,0.0,0.0,0.0,0.0,0.0,0.0,0.0,0.0,0.0,0.0,0.0,0.0,0.0,0.0,0.0,0.0,0.0,0.0,0.0,0.0,0.0,0.0,0.0,0.0,0.0,0.0,0.0,0.0,0.0,0.0,0.0,0.0,0.0,0.0,0.0,0.0,0.0,0.0,0.0,0.0,0.0,0.0,0.0,0.0,0.0,0.0,0.0,0.0,0.0,0.0,0.0,0.0,0.0,0.0,0.0,0.0,0.0,0.0,0.0,0.0,0.0,0.0,0.0,0.0,0.0,0.0,0.0,0.0,0.0,0.0,0.0,0.0,0.0,0.0,0.0,0.0,0.0,0.0,0.0,0.0,0.0,0.0,0.0,0.0,0.0,0.0,0.0,0.0,0.0,0.0,0.0,0.0,0.0,0.0,0.0,0.0,0.0,0.0,0.0,0.0,0.0,0.0,0.0,0.0,0.0,0.0,-3.6626,-3.635,-3.613,-3.562,-3.4816,0.0,0.0,0.0,0.0,0.0,0.0,0.0,0.0,0.0,0.0,0.0,0.0,0.0,0.0,0.0,0.0,0.0,0.0,0.0,0.0,0.0,0.0,0.0,0.0,0.0,0.0,0.0,0.0,0.0,0.0,0.0,0.0,0.0,0.0,0.0,0.0,0.0,0.0,0.0,0.0,0.0,0.0,0.0,0.0,0.0,0.0,0.0,0.0,0.0,0.0,0.0,0.0,0.0,0.0,0.0,0.0,0.0,0.0,0.0,0.0,0.0,0.0,0.0,0.0,0.0,0.0,0.0,0.0,0.0,0.0,0.0,0.0,0.0,0.0,0.0,0.0,0.0,0.0,0.0,0.0,0.0,0.0,0.0,0.0,0.0,0.0,0.0,0.0,0.0,0.0,0.0,0.0,0.0,0.0,0.0,0.0,0.0,0.0,0.0,0.0,0.0,0.0,0.0,0.0,0.0,0.0,0.0,0.0,0.0,0.0,0.0,0.0,-3.6539,-3.5916,-3.4673,0.0,0.0,0.0,0.0,0.0,0.0,0.0,0.0,0.0,0.0,0.0,0.0,0.0,0.0,0.0,0.0,0.0,0.0,0.0,0.0,0.0,0.0,0.0,0.0,0.0,0.0,0.0,0.0,0.0,0.0,0.0,0.0,0.0,0.0,0.0,0.0,0.0,0.0,0.0,0.0,0.0,0.0,0.0,0.0,0.0,0.0,0.0,0.0,0.0,0.0,0.0,0.0,0.0,0.0,0.0,0.0,0.0,0.0,0.0,0.0,0.0,0.0,0.0,0.0,0.0,0.0,0.0,0.0,0.0,0.0,0.0,0.0,0.0,0.0,0.0,0.0,0.0,0.0,0.0,0.0,0.0,0.0,0.0,0.0,0.0,0.0,0.0,0.0,0.0,0.0,0.0,0.0,0.0,0.0,0.0,0.0,0.0,0.0,0.0,0.0,0.0,0.0,0.0,0.0,0.0,0.0,0.0,0.0,0.0,0.0,-3.7432,-3.6457,-3.6746,0.0,-3.4202,0.0,0.0,0.0,0.0,0.0,0.0,0.0,0.0,0.0,0.0,0.0,0.0,0.0,0.0,0.0,0.0,0.0,0.0,0.0,0.0,0.0,0.0,0.0,0.0,0.0,0.0,0.0,0.0,0.0,0.0,0.0,0.0,0.0,0.0,0.0,0.0,0.0,0.0,0.0,0.0,0.0,0.0,0.0,0.0,0.0,0.0,0.0,0.0,0.0,0.0,0.0,0.0,0.0,0.0,0.0,0.0,0.0,0.0,0.0,0.0,0.0,0.0,0.0,0.0,0.0,0.0,0.0,0.0,0.0,0.0,0.0,0.0,0.0,0.0,0.0,0.0,0.0,0.0,0.0,0.0,0.0,0.0,0.0,0.0,0.0,0.0,0.0,0.0,0.0,0.0,0.0,0.0,0.0,0.0,0.0,0.0,0.0,0.0,0.0,0.0,0.0,0.0,0.0,0.0,0.0,0.0,0.0,0.0,0.0,0.0,-3.7827,-3.717,-3.6781,-3.5916,0.0,0.0,0.0,0.0,0.0,0.0,0.0,0.0,0.0,0.0,0.0,0.0,0.0,0.0,0.0,0.0,0.0,0.0,0.0,0.0,0.0,0.0,0.0,0.0,0.0,0.0,0.0,0.0,0.0,0.0,0.0,0.0,0.0,0.0,0.0,0.0,0.0,0.0,0.0,0.0,0.0,0.0,0.0,0.0,0.0,0.0,0.0,0.0,0.0,0.0,0.0,0.0,0.0,0.0,0.0,0.0,0.0,0.0,0.0,0.0,0.0,0.0,0.0,0.0,0.0,0.0,0.0,0.0,0.0,0.0,0.0,0.0,0.0,0.0,0.0,0.0,0.0,0.0,0.0,0.0,0.0,0.0,0.0,0.0,0.0,0.0,0.0,0.0,0.0,0.0,0.0,0.0,0.0,0.0,0.0,0.0,0.0,0.0,0.0,0.0,0.0,0.0,0.0,0.0,0.0,0.0,0.0,0.0,0.0,0.0,-3.834,-3.8036,-3.7504,-3.6736,-3.5837,-3.4816,0.0,0.0,0.0,0.0,0.0,0.0,0.0,0.0,0.0,0.0,0.0,0.0,0.0,0.0,0.0,0.0,0.0,0.0,0.0,0.0,0.0,0.0,0.0,0.0,0.0,0.0,0.0,0.0,0.0,0.0,0.0,0.0,0.0,0.0,0.0,0.0,0.0,0.0,0.0,0.0,0.0,0.0,0.0,0.0,0.0,0.0,0.0,0.0,0.0,0.0,0.0,0.0,0.0,0.0,0.0,0.0,0.0,0.0,0.0,0.0,0.0,0.0,0.0,0.0,0.0,0.0,0.0,0.0,0.0,0.0,0.0,0.0,0.0,0.0,0.0,0.0,0.0,0.0,0.0,0.0,0.0,0.0,0.0,0.0,0.0,0.0,0.0,0.0,0.0,0.0,0.0,0.0,0.0,0.0,0.0,0.0,0.0,0.0,0.0,0.0,0.0,0.0,0.0,0.0,0.0,0.0,0.0,0.0,-3.8307,-3.8307,-3.788,-3.6978,-3.6533,-3.5837,0.0,0.0,0.0,0.0,0.0,0.0,0.0,0.0,0.0,0.0,0.0,0.0,0.0,0.0,0.0,0.0,0.0,0.0,0.0,0.0,0.0,0.0,0.0,0.0,0.0,0.0,0.0,0.0,0.0,0.0,0.0,0.0,0.0,0.0,0.0,0.0,0.0,0.0,0.0,0.0,0.0,0.0,0.0,0.0,0.0,0.0,0.0,0.0,0.0,0.0,0.0,0.0,0.0,0.0,0.0,0.0,0.0,0.0,0.0,0.0,0.0,0.0,0.0,0.0,0.0,0.0,0.0,0.0,0.0,0.0,0.0,0.0,0.0,0.0,0.0,0.0,0.0,0.0,0.0,0.0,0.0,0.0,0.0,0.0,0.0,0.0,0.0,0.0,0.0,0.0,0.0,0.0,0.0,0.0,0.0,0.0,0.0,0.0,0.0,0.0,0.0,0.0,0.0,0.0,0.0,0.0,0.0,0.0,0.0,-3.8207,-3.7949,-3.7505,-3.69,-3.6433,-3.5871,0.0,0.0,0.0,0.0,0.0,0.0,0.0,0.0,0.0,0.0,0.0,0.0,0.0,0.0,0.0,0.0,0.0,0.0,0.0,0.0,0.0,0.0,0.0,0.0,0.0,0.0,0.0,0.0,0.0,0.0,0.0,0.0,0.0,0.0,0.0,0.0,0.0,0.0,0.0,0.0,0.0,0.0,0.0,0.0,0.0,0.0,0.0,0.0,0.0,0.0,0.0,0.0,0.0,0.0,0.0,0.0,0.0,0.0,0.0,0.0,0.0,0.0,0.0,0.0,0.0,0.0,0.0,0.0,0.0,0.0,0.0,0.0,0.0,0.0,0.0,0.0,0.0,0.0,0.0,0.0,0.0,0.0,0.0,0.0,0.0,0.0,0.0,0.0,0.0,0.0,0.0,0.0,0.0,0.0,0.0,0.0,0.0,0.0,0.0,0.0,0.0,0.0,0.0,0.0,0.0,0.0,0.0,0.0,0.0,-3.8192,0.0,-3.7487,-3.69,-3.6539,-3.6114,0.0,0.0,0.0,0.0,0.0,0.0,0.0,0.0,0.0,0.0,0.0,0.0,0.0,0.0,0.0,0.0,0.0,0.0,0.0,0.0,0.0,0.0,0.0,0.0,0.0,0.0,0.0,0.0,0.0,0.0,0.0,0.0,0.0,0.0,0.0,0.0,0.0,0.0,0.0,0.0,0.0,0.0,0.0,0.0,0.0,0.0,0.0,0.0,0.0,0.0,0.0,0.0,0.0,0.0,0.0,0.0,0.0,0.0,0.0,0.0,0.0,0.0,0.0,0.0,0.0,0.0,0.0,0.0,0.0,0.0,0.0,0.0,0.0,0.0,0.0,0.0,0.0,0.0,0.0,0.0,0.0,0.0,0.0,0.0,0.0,0.0,0.0,0.0,0.0,0.0,0.0,0.0,0.0,0.0,0.0,0.0,0.0,0.0,0.0,0.0,0.0,0.0,0.0,0.0,0.0,0.0,0.0,0.0,-3.8192,-3.8192,-3.8192,-3.7757,-3.6939,-3.6843,-3.6433,0.0,0.0,0.0,0.0,0.0,0.0,0.0,0.0,0.0,0.0,0.0,0.0,0.0,0.0,0.0,0.0,0.0,0.0,0.0,0.0,0.0,0.0,0.0,0.0,0.0,0.0,0.0,0.0,0.0,0.0,0.0,0.0,0.0,0.0,0.0,0.0,0.0,0.0,0.0,0.0,0.0,0.0,0.0,0.0,0.0,0.0,0.0,0.0,0.0,0.0,0.0,0.0,0.0,0.0,0.0,0.0,0.0,0.0,0.0,0.0,0.0,0.0,0.0,0.0,0.0,0.0,0.0,0.0,0.0,0.0,0.0,0.0,0.0,0.0,0.0,0.0,0.0,0.0,0.0,0.0,0.0,0.0,0.0,0.0,0.0,0.0,0.0,0.0,0.0,0.0,0.0,0.0,0.0,0.0,0.0,0.0,0.0,0.0,0.0,0.0,0.0,0.0,0.0,0.0,0.0,0.0,0.0,0.0,0.0,-3.8192,-3.788,-3.745,-3.6882,-3.644,-3.5924,0.0,0.0,0.0,0.0,0.0,0.0,0.0,0.0,0.0,0.0,0.0,0.0,0.0,0.0,0.0,0.0,0.0,0.0,0.0,0.0,0.0,0.0,0.0,0.0,0.0,0.0,0.0,0.0,0.0,0.0,0.0,0.0,0.0,0.0,0.0,0.0,0.0,0.0,0.0,0.0,0.0,0.0,0.0,0.0,0.0,0.0,0.0,0.0,0.0,0.0,0.0,0.0,0.0,0.0,0.0,0.0,0.0,0.0,0.0,0.0,0.0,0.0,0.0,0.0,0.0,0.0,0.0,0.0,0.0,0.0,0.0,0.0,0.0,0.0,0.0,0.0,0.0,0.0,0.0,0.0,0.0,0.0,0.0,0.0,0.0,0.0,0.0,0.0,0.0,0.0,0.0,0.0,0.0,0.0,0.0,0.0,0.0,0.0,0.0,0.0,0.0,0.0,0.0,0.0,0.0,0.0,0.0,0.0,0.0,-3.8192,-3.7933,-3.7559,-3.7132,-3.6563,-3.6054,-3.5515,0.0,0.0,0.0,0.0,0.0,0.0,0.0,0.0,0.0,0.0,0.0,0.0,0.0,0.0,0.0,0.0,0.0,0.0,0.0,0.0,0.0,0.0,0.0,0.0,0.0,0.0,0.0,0.0,0.0,0.0,0.0,0.0,0.0,0.0,0.0,0.0,0.0,0.0,0.0,0.0,0.0,0.0,0.0,0.0,0.0,0.0,0.0,0.0,0.0,0.0,0.0,0.0,0.0,0.0,0.0,0.0,0.0,0.0,0.0,0.0,0.0,0.0,0.0,0.0,0.0,0.0,0.0,0.0,0.0,0.0,0.0,0.0,0.0,0.0,0.0,0.0,0.0,0.0,0.0,0.0,0.0,0.0,0.0,0.0,0.0,0.0,0.0,0.0,0.0,0.0,0.0,0.0,0.0,0.0,0.0,0.0,0.0,0.0,0.0,0.0,0.0,0.0,0.0,0.0,0.0,0.0,0.0,0.0,-3.8192,-3.8192,-3.7967,-3.7469,-3.7094,-3.6563,0.0,0.0,0.0,0.0,0.0,0.0,0.0,0.0,0.0,0.0,0.0,0.0,0.0,0.0,0.0,0.0,0.0,0.0,0.0,0.0,0.0,0.0,0.0,0.0,0.0,0.0,0.0,0.0,0.0,0.0,0.0,0.0,0.0,0.0,0.0,0.0,0.0,0.0,0.0,0.0,0.0,0.0,0.0,0.0,0.0,0.0,0.0,0.0,0.0,0.0,0.0,0.0,0.0,0.0,0.0,0.0,0.0,0.0,0.0,0.0,0.0,0.0,0.0,0.0,0.0,0.0,0.0,0.0,0.0,0.0,0.0,0.0,0.0,0.0,0.0,0.0,0.0,0.0,0.0,0.0,0.0,0.0,0.0,0.0,0.0,0.0,0.0,0.0,0.0,0.0,0.0,0.0,0.0,0.0,0.0,0.0,0.0,0.0,0.0,0.0,0.0,0.0,0.0,0.0,0.0,0.0,0.0,0.0,0.0,-3.8192,-3.8192,-3.7828,-3.7076,-3.6786,-3.6256,0.0,0.0,0.0,0.0,0.0,0.0,0.0,0.0,0.0,0.0,0.0,0.0,0.0,0.0,0.0,0.0,0.0,0.0,0.0,0.0,0.0,0.0,0.0,0.0,0.0,0.0,0.0,0.0,0.0,0.0,0.0,0.0,0.0,0.0,0.0,0.0,0.0,0.0,0.0,0.0,0.0,0.0,0.0,0.0,0.0,0.0,0.0,0.0,0.0,0.0,0.0,0.0,0.0,0.0,0.0,0.0,0.0,0.0,0.0,0.0,0.0,0.0,0.0,0.0,0.0,0.0,0.0,0.0,0.0,0.0,0.0,0.0,0.0,0.0,0.0,0.0,0.0,0.0,0.0,0.0,0.0,0.0,0.0,0.0,0.0,0.0,0.0,0.0,0.0,0.0,0.0,0.0,0.0,0.0,0.0,0.0,0.0,0.0,0.0,0.0,0.0,0.0,0.0,0.0,0.0,0.0,0.0,0.0,-3.8192,-3.8192,-3.8192,-3.7792,-3.69,-3.6746,-3.6215,0.0,0.0,0.0,0.0,0.0,0.0,0.0,0.0,0.0,0.0,0.0,0.0,0.0,0.0,0.0,0.0,0.0,0.0,0.0,0.0,0.0,0.0,0.0,0.0,0.0,0.0,0.0,0.0,0.0,0.0,0.0,0.0,0.0,0.0,0.0,0.0,0.0,0.0,0.0,0.0,0.0,0.0,0.0,0.0,0.0,0.0,0.0,0.0,0.0,0.0,0.0,0.0,0.0,0.0,0.0,0.0,0.0,0.0,0.0,0.0,0.0,0.0,0.0,0.0,0.0,0.0,0.0,0.0,0.0,0.0,0.0,0.0,0.0,0.0,0.0,0.0,0.0,0.0,0.0,0.0,0.0,0.0,0.0,0.0,0.0,0.0,0.0,0.0,0.0,0.0,0.0,0.0,0.0,0.0,0.0,0.0,0.0,0.0,0.0,0.0,0.0,0.0,0.0,0.0,0.0,0.0,0.0,0.0,-3.8192,-3.8192,-3.8158,-3.7739,-3.6939,-3.69,-3.6323,0.0,0.0,0.0,0.0,0.0,0.0,0.0,0.0,0.0,0.0,0.0,0.0,0.0,0.0,0.0,0.0,0.0,0.0,0.0,0.0,0.0,0.0,0.0,0.0,0.0,0.0,0.0,0.0,0.0,0.0,0.0,0.0,0.0,0.0,0.0,0.0,0.0,0.0,0.0,0.0,0.0,0.0,0.0,0.0,0.0,0.0,0.0,0.0,0.0,0.0,0.0,0.0,0.0,0.0,0.0,0.0,0.0,0.0,0.0,0.0,0.0,0.0,0.0,0.0,0.0,0.0,0.0,0.0,0.0,0.0,0.0,0.0,0.0,0.0,0.0,0.0,0.0,0.0,0.0,0.0,0.0,0.0,0.0,0.0,0.0,0.0,0.0,0.0,0.0,0.0,0.0,0.0,0.0,0.0,0.0,0.0,0.0,0.0,0.0,0.0,0.0,0.0,0.0,0.0,0.0,0.0,0.0,0.0,-3.8192,-3.8174,-3.7845,-3.7395,-3.69,-3.6786,-3.6053,0.0,0.0,0.0,0.0,0.0,0.0,0.0,0.0,0.0,0.0,0.0,0.0,0.0,0.0,0.0,0.0,0.0,0.0,0.0,0.0,0.0,0.0,0.0,0.0,0.0,0.0,0.0,0.0,0.0,0.0,0.0,0.0,0.0,0.0,0.0,0.0,0.0,0.0,0.0,0.0,0.0,0.0,0.0,0.0,0.0,0.0,0.0,0.0,-3.6114,0.0,0.0,0.0,0.0,0.0,0.0,0.0,0.0,0.0,0.0,0.0,0.0,0.0,0.0,0.0,0.0,0.0,0.0,0.0,0.0,0.0,0.0,0.0,0.0,0.0,0.0,0.0,0.0,0.0,0.0,0.0,0.0,0.0,0.0,0.0,0.0,0.0,0.0,0.0,0.0,0.0,0.0,0.0,0.0,0.0,0.0,0.0,0.0,0.0,0.0,0.0,0.0,0.0,0.0,0.0,0.0,0.0,0.0,0.0,-3.8192,-3.8192,-3.7756,-3.7303,-3.6882,-3.6661,-3.5873,0.0,0.0,0.0,0.0,0.0,0.0,0.0,0.0,0.0,0.0,0.0,0.0,0.0,0.0,0.0,0.0,0.0,0.0,0.0,0.0,0.0,0.0,0.0,0.0,0.0,0.0,0.0,0.0,0.0,0.0,0.0,0.0,0.0,0.0,0.0,0.0,0.0,0.0,0.0,0.0,0.0,0.0,0.0,0.0,0.0,0.0,0.0,0.0,0.0,0.0,0.0,0.0,0.0,0.0,0.0,0.0,0.0,0.0,0.0,0.0,0.0,0.0,0.0,0.0,0.0,0.0,0.0,0.0,0.0,0.0,0.0,0.0,0.0,0.0,0.0,0.0,0.0,0.0,0.0,0.0,0.0,0.0,0.0,0.0,0.0,0.0,0.0,0.0,0.0,0.0,0.0,0.0,0.0,0.0,0.0,0.0,0.0,0.0,0.0,0.0,0.0,0.0,0.0,0.0,0.0,0.0,0.0,-3.8192,-3.814,-3.8072,-3.7632,-3.719,-3.6821,-3.6392,-3.5661,-3.4415,0.0,0.0,0.0,0.0,0.0,0.0,0.0,0.0,0.0,0.0,0.0,0.0,0.0,0.0,0.0,0.0,0.0,0.0,0.0,0.0,0.0,0.0,0.0,0.0,0.0,0.0,0.0,0.0,0.0,0.0,0.0,0.0,0.0,0.0,0.0,0.0,0.0,0.0,-3.7559,-3.7967,0.0,0.0,0.0,0.0,0.0,0.0,0.0,0.0,-3.5711,0.0,0.0,0.0,0.0,0.0,0.0,0.0,0.0,0.0,0.0,0.0,0.0,0.0,0.0,0.0,0.0,0.0,0.0,0.0,0.0,0.0,0.0,0.0,0.0,0.0,0.0,0.0,0.0,0.0,0.0,0.0,0.0,0.0,0.0,0.0,0.0,0.0,0.0,0.0,0.0,0.0,0.0,0.0,0.0,0.0,0.0,0.0,0.0,0.0,0.0,0.0,0.0,0.0,0.0,0.0,0.0,-3.8192,-3.8192,-3.802,-3.7632,-3.7208,-3.6838,-3.6409,-3.5958,-3.5316,-3.4415,0.0,0.0,0.0,0.0,0.0,0.0,0.0,0.0,0.0,0.0,0.0,0.0,0.0,0.0,0.0,0.0,0.0,0.0,0.0,0.0,0.0,0.0,0.0,0.0,0.0,0.0,0.0,0.0,0.0,0.0,0.0,0.0,0.0,0.0,0.0,0.0,0.0,0.0,0.0,-3.8174,-3.8225,0.0,0.0,0.0,0.0,0.0,0.0,0.0,0.0,-3.6045,0.0,0.0,0.0,0.0,0.0,0.0,0.0,0.0,0.0,0.0,0.0,0.0,0.0,0.0,0.0,0.0,0.0,0.0,0.0,0.0,0.0,0.0,0.0,0.0,0.0,0.0,0.0,0.0,0.0,0.0,0.0,0.0,0.0,0.0,0.0,0.0,0.0,0.0,0.0,0.0,0.0,0.0,0.0,0.0,0.0,0.0,0.0,0.0,0.0,0.0,0.0,0.0,0.0,0.0,0.0,-3.8192,-3.8192,-3.7967,-3.7505,-3.7132,-3.6719,-3.6301,-3.5827,-3.5068,0.0,0.0,0.0,0.0,0.0,0.0,0.0,0.0,0.0,0.0,0.0,0.0,0.0,0.0,0.0,0.0,0.0,0.0,0.0,0.0,0.0,0.0,0.0,0.0,0.0,0.0,0.0,0.0,0.0,0.0,0.0,0.0,0.0,0.0,0.0,0.0,0.0,0.0,0.0,0.0,-3.8207,-3.8225,-3.8241,0.0,0.0,0.0,0.0,0.0,0.0,-3.6131,-3.6131,0.0,0.0,0.0,0.0,0.0,0.0,0.0,0.0,0.0,0.0,0.0,0.0,0.0,0.0,0.0,0.0,0.0,0.0,0.0,0.0,0.0,0.0,0.0,0.0,0.0,0.0,0.0,0.0,0.0,0.0,0.0,0.0,0.0,0.0,0.0,0.0,0.0,0.0,0.0,0.0,0.0,0.0,0.0,0.0,0.0,0.0,0.0,0.0,0.0,0.0,0.0,0.0,0.0,0.0,0.0,-3.8192,-3.8192,-3.7933,-3.7395,-3.7055,-3.6661,-3.6156,-3.58,-3.5005,0.0,0.0,0.0,0.0,0.0,0.0,0.0,0.0,0.0,0.0,0.0,0.0,0.0,0.0,0.0,0.0,0.0,0.0,0.0,0.0,0.0,0.0,0.0,0.0,0.0,0.0,0.0,0.0,0.0,0.0,0.0,0.0,0.0,0.0,0.0,0.0,0.0,0.0,0.0,0.0,0.0,-3.8192,-3.8192,-3.814,0.0,0.0,0.0,0.0,-3.5915,-3.6045,0.0,0.0,0.0,0.0,0.0,0.0,0.0,0.0,0.0,0.0,0.0,0.0,0.0,0.0,0.0,0.0,0.0,0.0,0.0,0.0,0.0,0.0,0.0,0.0,0.0,0.0,0.0,0.0,0.0,0.0,0.0,0.0,0.0,0.0,0.0,0.0,0.0,0.0,0.0,0.0,0.0,0.0,0.0,0.0,0.0,0.0,0.0,0.0,0.0,0.0,0.0,0.0,0.0,0.0,0.0,0.0,-3.8192,-3.8192,-3.781,-3.7017,-3.6939,-3.6516,-3.5711,-3.5622,-3.5005,0.0,0.0,0.0,0.0,0.0,0.0,0.0,0.0,0.0,0.0,0.0,0.0,0.0,0.0,0.0,0.0,0.0,0.0,0.0,0.0,0.0,0.0,0.0,0.0,0.0,0.0,0.0,0.0,0.0,0.0,0.0,0.0,0.0,0.0,0.0,0.0,0.0,0.0,0.0,0.0,0.0,-3.8192,-3.8192,-3.7827,-3.7542,0.0,0.0,-3.6781,-3.6284,-3.6259,0.0,0.0,0.0,0.0,0.0,0.0,0.0,0.0,0.0,0.0,0.0,0.0,0.0,0.0,0.0,0.0,0.0,0.0,0.0,0.0,0.0,0.0,0.0,0.0,0.0,0.0,0.0,0.0,0.0,0.0,0.0,0.0,0.0,0.0,0.0,0.0,0.0,0.0,0.0,0.0,0.0,0.0,0.0,0.0,0.0,0.0,0.0,0.0,0.0,0.0,0.0,0.0,0.0,0.0,0.0,-3.8192,-3.8192,-3.8192,-3.7898,-3.7246,-3.6999,-3.662,-3.6019,-3.5756,-3.5052,0.0,0.0,0.0,0.0,0.0,0.0,0.0,0.0,0.0,0.0,0.0,0.0,0.0,0.0,0.0,0.0,0.0,0.0,0.0,0.0,0.0,0.0,0.0,0.0,0.0,0.0,0.0,0.0,0.0,0.0,0.0,0.0,0.0,0.0,0.0,0.0,0.0,0.0,0.0,0.0,0.0,0.0,-3.8192,-3.7792,0.0,0.0,0.0,-3.6643,-3.6002,0.0,0.0,0.0,0.0,0.0,0.0,0.0,0.0,0.0,0.0,0.0,0.0,0.0,0.0,0.0,0.0,0.0,0.0,0.0,0.0,0.0,0.0,0.0,0.0,0.0,0.0,0.0,0.0,0.0,0.0,0.0,0.0,0.0,0.0,0.0,0.0,0.0,0.0,0.0,0.0,0.0,0.0,0.0,0.0,0.0,0.0,0.0,0.0,0.0,0.0,0.0,0.0,0.0,0.0,0.0,0.0,0.0,-3.8002,-3.814,-3.7967,-3.7523,-3.7114,-3.6701,-3.6301,-3.5844,0.0,0.0,0.0,0.0,0.0,0.0,0.0,0.0,0.0,0.0,0.0,0.0,0.0,0.0,0.0,0.0,0.0,0.0,0.0,0.0,0.0,0.0,0.0,0.0,0.0,0.0,0.0,-3.5021,0.0,0.0,0.0,0.0,0.0,0.0,0.0,0.0,0.0,0.0,0.0,0.0,0.0,0.0,-3.8192,-3.8192,-3.7721,-3.7266,0.0,0.0,-3.6392,-3.5871,-3.5958,-3.5975,0.0,0.0,0.0,0.0,0.0,0.0,0.0,0.0,0.0,0.0,0.0,0.0,0.0,0.0,0.0,0.0,0.0,0.0,0.0,0.0,0.0,0.0,0.0,0.0,0.0,0.0,0.0,0.0,0.0,0.0,0.0,0.0,0.0,0.0,0.0,0.0,0.0,0.0,0.0,0.0,0.0,0.0,0.0,0.0,0.0,0.0,0.0,0.0,0.0,0.0,0.0,0.0,0.0,0.0,0.0,-3.7596,-3.7967,-3.7967,-3.7505,-3.7076,-3.6719,-3.6301,-3.5827,-3.5115,0.0,0.0,0.0,0.0,0.0,0.0,0.0,0.0,0.0,0.0,0.0,0.0,0.0,0.0,0.0,0.0,0.0,0.0,0.0,0.0,0.0,0.0,0.0,0.0,0.0,0.0,0.0,0.0,0.0,0.0,0.0,0.0,0.0,0.0,0.0,0.0,0.0,0.0,0.0,0.0,0.0,-3.8192,-3.8192,-3.7468,-3.7038,0.0,0.0,-3.5827,-3.6174,-3.5915,-3.5594,-3.5337,0.0,0.0,0.0,0.0,0.0,0.0,0.0,0.0,0.0,0.0,0.0,0.0,0.0,0.0,0.0,0.0,0.0,0.0,0.0,0.0,0.0,0.0,0.0,0.0,0.0,0.0,0.0,0.0,0.0,0.0,0.0,0.0,0.0,0.0,0.0,0.0,0.0,0.0,0.0,0.0,0.0,0.0,0.0,0.0,0.0,0.0,0.0,0.0,0.0,0.0,0.0,0.0,0.0,-3.7685,-3.7505,-3.7667,-3.7685,-3.7505,-3.686,-3.6451,-3.6284,-3.5844,-3.527,0.0,0.0,0.0,0.0,0.0,0.0,0.0,0.0,0.0,0.0,0.0,0.0,0.0,0.0,0.0,0.0,0.0,0.0,0.0,0.0,0.0,0.0,0.0,0.0,0.0,0.0,0.0,0.0,-3.5639,-3.5639,-3.5639,0.0,0.0,0.0,0.0,0.0,0.0,0.0,0.0,0.0,0.0,-3.7898,-3.814,-3.745,0.0,0.0,-3.6266,-3.5667,-3.5827,-3.5667,-3.5537,-3.5446,-3.5354,0.0,0.0,0.0,0.0,0.0,0.0,0.0,0.0,0.0,0.0,0.0,0.0,0.0,0.0,0.0,0.0,0.0,0.0,0.0,0.0,0.0,0.0,0.0,0.0,0.0,0.0,0.0,0.0,0.0,0.0,0.0,0.0,0.0,0.0,0.0,0.0,0.0,0.0,0.0,0.0,0.0,0.0,0.0,0.0,0.0,0.0,0.0,0.0,0.0,0.0,0.0,0.0,-3.7432,-3.7303,-3.7432,-3.7505,-3.7505,-3.6701,-3.6284,-3.6284,-3.5827,-3.5362,0.0,0.0,0.0,0.0,0.0,0.0,0.0,0.0,0.0,0.0,0.0,0.0,0.0,0.0,0.0,0.0,0.0,0.0,0.0,0.0,0.0,0.0,0.0,0.0,0.0,0.0,0.0,0.0,-3.5639,-3.5639,-3.5639,0.0,0.0,0.0,0.0,0.0,0.0,0.0,0.0,0.0,0.0,-3.7469,-3.7933,-3.7264,-3.6719,-3.6661,-3.6028,-3.5577,-3.5594,-3.552,-3.5492,-3.5492,0.0,0.0,0.0,0.0,0.0,0.0,0.0,0.0,0.0,0.0,0.0,0.0,0.0,0.0,0.0,0.0,0.0,0.0,0.0,0.0,0.0,0.0,0.0,0.0,0.0,0.0,0.0,0.0,0.0,0.0,-3.9775,0.0,0.0,0.0,0.0,0.0,0.0,0.0,0.0,0.0,0.0,0.0,0.0,0.0,0.0,0.0,0.0,0.0,0.0,0.0,0.0,0.0,0.0,-3.7321,-3.6939,-3.7303,-3.7505,-3.7469,-3.6701,-3.6301,-3.6259,-3.5827,-3.5379,-3.4833,0.0,0.0,0.0,0.0,0.0,0.0,0.0,0.0,0.0,0.0,0.0,0.0,0.0,0.0,0.0,0.0,0.0,0.0,0.0,0.0,0.0,0.0,0.0,0.0,0.0,0.0,-3.5639,-3.5639,-3.5639,0.0,0.0,0.0,0.0,0.0,0.0,0.0,0.0,0.0,0.0,-3.7152,-3.7055,-3.7469,-3.6821,-3.6284,-3.6156,-3.5773,-3.5492,-3.5475,-3.5492,-3.5492,0.0,0.0,0.0,0.0,0.0,0.0,0.0,0.0,0.0,0.0,0.0,0.0,0.0,0.0,0.0,0.0,0.0,0.0,0.0,0.0,0.0,0.0,0.0,0.0,0.0,0.0,0.0,-3.9984,-3.988,0.0,0.0,0.0,0.0,0.0,0.0,0.0,0.0,0.0,0.0,0.0,-3.9687,-3.988,0.0,0.0,0.0,0.0,0.0,0.0,0.0,0.0,0.0,0.0,0.0,0.0,-3.7097,-3.6999,-3.7395,-3.7487,-3.7173,-3.658,-3.6131,-3.5827,-3.5694,-3.5379,-3.4816,0.0,0.0,0.0,0.0,0.0,0.0,0.0,0.0,0.0,0.0,0.0,0.0,0.0,0.0,0.0,0.0,0.0,0.0,0.0,0.0,0.0,0.0,0.0,0.0,0.0,-3.5639,0.0,0.0,0.0,0.0,0.0,0.0,0.0,0.0,0.0,0.0,0.0,-3.6028,-3.6638,-3.6597,-3.662,-3.7055,-3.6638,-3.6301,0.0,0.0,0.0,0.0,0.0,0.0,0.0,0.0,0.0,0.0,0.0,0.0,0.0,0.0,-3.377,-3.216,-3.1853,-3.1796,-3.1524,0.0,0.0,0.0,0.0,0.0,0.0,0.0,0.0,0.0,0.0,0.0,0.0,0.0,0.0,-4.0266,0.0,-4.012,0.0,0.0,0.0,0.0,0.0,0.0,0.0,0.0,-3.9963,-4.0023,-3.9984,-4.0157,-4.0082,0.0,-3.9668,-3.9457,0.0,0.0,0.0,0.0,0.0,0.0,0.0,0.0,-3.7266,-3.7285,-3.7577,-3.7487,-3.702,-3.6557,-3.6088,-3.5622,-3.5639,-3.5424,-3.5085,-3.488,-3.4625,0.0,0.0,0.0,0.0,0.0,0.0,0.0,0.0,0.0,0.0,0.0,0.0,0.0,0.0,0.0,0.0,0.0,0.0,0.0,0.0,0.0,0.0,0.0,-3.5639,0.0,0.0,0.0,0.0,0.0,0.0,0.0,0.0,0.0,-3.5639,-3.5639,-3.58,-3.6259,-3.6174,-3.6216,-3.662,0.0,0.0,0.0,0.0,0.0,0.0,0.0,-3.5492,-3.552,-3.5475,-3.5321,-3.5102,-3.5321,-3.5185,-3.4159,0.0,0.0,-3.2201,-3.191,-3.1796,-3.1524,-3.1467,-3.1467,-3.1467,-3.1467,-3.1467,0.0,0.0,0.0,0.0,0.0,0.0,0.0,0.0,-4.0583,-4.0573,0.0,-4.0504,0.0,0.0,0.0,0.0,0.0,-3.9901,0.0,0.0,-4.0473,-4.0489,-4.0473,-4.0473,-4.0392,-4.0158,-3.9797,-3.9519,-3.9279,-3.9163,0.0,0.0,0.0,0.0,0.0,0.0,-3.7756,-3.7791,-3.7756,-3.7469,-3.7058,-3.6597,-3.6071,-3.5622,-3.5639,-3.5577,-3.5577,-3.5115,-3.4833,-3.4721,-3.3802,0.0,0.0,0.0,0.0,0.0,0.0,0.0,0.0,0.0,0.0,0.0,0.0,0.0,0.0,0.0,0.0,0.0,0.0,0.0,0.0,-3.5639,0.0,0.0,0.0,0.0,0.0,0.0,0.0,0.0,0.0,0.0,-3.5639,-3.5639,-3.5739,-3.6216,0.0,0.0,0.0,0.0,-3.5594,-3.5537,-3.5492,-3.5475,-3.5475,-3.5492,-3.552,-3.5577,0.0,0.0,-3.4752,-3.5144,-3.4975,-3.3214,-3.3319,-3.3443,-3.2841,-3.2586,-3.2272,-3.1625,-3.1467,-3.1467,-3.1467,-3.1467,-3.1467,-4.066,0.0,0.0,0.0,0.0,-4.0603,-4.0598,-4.0588,-4.0583,-4.0588,-4.0588,-4.0592,0.0,0.0,0.0,0.0,0.0,0.0,-3.9882,-4.0213,-4.0269,-4.0267,-4.0286,-4.0267,-4.012,-3.984,-3.9731,-3.9481,-3.9171,-3.9125,-3.8896,-3.851,0.0,0.0,0.0,0.0,-3.7843,-3.7877,-3.815,-3.8032,-3.7596,-3.7058,-3.6399,-3.5622,-3.5639,-3.5639,-3.5622,-3.5487,-3.5021,-3.4284,-3.4317,0.0,0.0,0.0,0.0,0.0,0.0,0.0,0.0,0.0,0.0,0.0,0.0,0.0,0.0,0.0,0.0,0.0,0.0,0.0,-3.5639,-3.5639,-3.5639,0.0,0.0,0.0,0.0,0.0,0.0,0.0,0.0,0.0,-3.5639,-3.5639,-3.5667,0.0,0.0,-3.5667,-3.5783,-3.5694,-3.5577,-3.5594,-3.5577,0.0,0.0,-3.5594,-3.5594,-3.556,-3.5639,-3.5532,-3.5362,-3.5161,-3.4835,-3.4161,-3.3587,-3.2986,-3.2492,-3.2064,-3.1739,-3.1524,-3.1467,-3.1467,-3.1467,-3.1467,-3.1467,-4.0764,-4.0668,-4.0621,-4.0621,-4.0621,-4.0612,-4.0612,-4.0621,-4.0617,-4.0588,-4.0588,-4.0573,-4.0539,-4.0489,-4.0286,0.0,0.0,0.0,-3.9982,-4.0139,-4.0196,-4.0139,-4.0042,-4.0042,-3.988,-3.959,-3.9561,-3.9345,-3.8971,-3.8961,-3.8807,-3.859,0.0,0.0,-3.8168,-3.8132,-3.8165,-3.8216,-3.8396,-3.8281,-3.7825,-3.7173,-3.644,-3.5711,-3.5667,-3.5667,-3.5639,-3.5639,-3.5333,-3.4673,-3.4721,-3.4366,0.0,0.0,0.0,0.0,0.0,0.0,0.0,0.0,0.0,0.0,0.0,-3.2788,-3.3198,0.0,0.0,0.0,-3.527,-3.5639,-3.5639,-3.5639,0.0,0.0,0.0,0.0,0.0,0.0,0.0,-3.5639,-3.5639,-3.5639,-3.5639,-3.5639,-3.5639,-3.5639,-3.5639,-3.5639,-3.5639,0.0,-3.5639,-3.5639,-3.5639,-3.5639,-3.5639,-3.5639,-3.5639,-3.5639,-3.5639,-3.5515,-3.527,-3.5021,-3.4626,-3.4097,-3.345,-3.2841,-3.2302,-3.1925,-3.1697,-3.1712,-3.1682,-3.161,-3.1597,-3.1597,-3.1612,-4.0867,-4.0803,-4.0648,-4.0654,-4.07,-4.0635,-4.0654,-4.0687,-4.0617,-4.0588,-4.0588,-4.0523,-4.0489,-4.0489,-4.0304,0.0,-4.0233,-4.0233,-4.0214,-4.0196,-4.0196,-4.0042,-3.9775,-3.9794,-3.9614,-3.9369,-3.9298,-3.9082,-3.8822,-3.8719,-3.8707,-3.8707,-3.8559,-3.859,-3.8689,-3.8559,-3.8578,-3.8707,-3.8559,-3.8281,-3.7877,-3.702,-3.6367,-3.58,-3.5817,-3.5728,-3.5622,-3.5639,-3.5577,-3.547,-3.5021,-3.4721,-3.4577,0.0,0.0,0.0,0.0,0.0,0.0,0.0,0.0,0.0,0.0,0.0,0.0,0.0,0.0,0.0,-3.5316,0.0,-3.5639,-3.5639,0.0,0.0,0.0,-3.5639,-3.5639,-3.5639,-3.5639,-3.5639,0.0,0.0,-3.5639,-3.5639,-3.5639,-3.5639,-3.5639,-3.5639,-3.5639,-3.5639,-3.5639,-3.5639,-3.5639,-3.5639,-3.5639,-3.5639,-3.5639,-3.5639,-3.5639,-3.5424,-3.5021,-3.4721,-3.4317,-3.3479,-3.3077,-3.2788,-3.2287,-3.2094,-3.2053,-3.2053,-3.1936,-3.1807,-3.1769,-3.1784,-3.1727,-4.0898,-4.0858,-4.0796,-4.0778,-4.0778,-4.07,-4.0654,-4.0621,-4.0603,-4.0573,-4.0523,-4.0504,-4.0489,-4.0489,-4.0457,-4.0422,-4.0422,-4.0422,-4.0339,-4.0214,-4.0196,-3.9962,-3.958,-3.9532,-3.9331,-3.9036,-3.895,-3.8833,-3.8719,-3.8689,-3.8707,-3.8707,-3.8658,-3.8658,-3.8707,-3.8658,-3.8658,-3.8707,-3.8676,-3.8267,-3.7452,-3.6882,-3.6367,-3.5975,-3.5861,-3.5773,-3.5773,-3.5667,-3.5224,-3.4431,-3.4625,-3.4268,-3.3055,-3.3093,0.0,0.0,0.0,0.0,0.0,0.0,0.0,0.0,0.0,-3.2964,-3.3767,0.0,-3.3953,0.0,-3.5532,-3.5639,-3.5639,-3.5639,0.0,0.0,-3.5639,-3.5639,-3.5639,-3.5639,-3.5639,-3.5639,-3.5639,-3.5639,-3.5639,-3.5639,-3.5639,-3.5639,-3.5639,-3.5639,-3.5639,-3.5639,-3.5639,-3.5639,-3.5639,-3.5639,-3.5639,-3.5639,-3.5639,-3.5639,-3.5639,-3.5577,-3.5424,-3.4738,-3.4037,-3.3508,-3.2961,-3.2532,-3.2398,-3.2342,-3.2287,-3.2302,-3.215,-3.1955,-3.1856,-3.1784,-3.1727,-4.0979,-4.0941,-4.0868,-4.0834,-4.0834,-4.0739,-4.0687,-4.0654,-4.0617,-4.0573,-4.0539,-4.0504,-4.0489,-4.0489,-4.0489,-4.0489,-4.0489,-4.0489,-4.0389,-4.0177,-4.0062,-3.9816,-3.9502,-3.935,-3.9156,-3.895,-3.891,-3.8833,-3.878,-3.875,-3.875,-3.875,-3.8707,-3.8707,-3.8707,-3.8707,-3.8707,-3.8707,-3.8515,-3.8101,-3.7396,-3.6978,-3.6492,-3.6019,-3.5932,-3.5861,-3.5817,-3.5684,-3.5224,-3.4529,-3.4673,-3.4268,-3.3161,-3.3145,-3.3093,0.0,0.0,0.0,0.0,0.0,0.0,0.0,0.0,0.0,0.0,0.0,-3.37,-3.4785,-3.5333,-3.5639,-3.5639,-3.5639,-3.5639,-3.5639,-3.5639,-3.5639,-3.5639,-3.5639,-3.5639,-3.5639,-3.5639,-3.5639,-3.5639,-3.5639,-3.5639,-3.5639,-3.5639,-3.5639,-3.5639,-3.5639,-3.5639,-3.5639,-3.5639,-3.5639,-3.5639,-3.5639,-3.5639,-3.5639,-3.5639,-3.547,-3.4975,-3.4431,-3.3786,-3.3108,-3.2671,-3.2398,-3.2398,-3.2398,-3.2398,-3.2398,-3.2318,-3.2165,-3.1996,-3.1996,-3.1883,-4.107,-4.1019,-4.0941,-4.0897,-4.0898,-4.0788,-4.0713,-4.0687,-4.0631,-4.0622,-4.0588,-4.0523,-4.0489,-4.0489,-4.0489,-4.0489,-4.0489,-4.0489,-4.0408,-4.0196,-3.9963,-3.9728,-3.9502,-3.9245,-3.9092,-3.9007,-3.8997,-3.895,-3.891,-3.8851,-3.8822,-3.8773,-3.875,-3.8707,-3.8707,-3.8707,-3.8707,-3.8707,-3.8252,-3.7862,-3.7487,-3.7055,-3.6557,-3.6062,-3.6019,-3.5975,-3.5861,-3.5711,-3.5453,-3.5068,-3.4927,-3.4577,-3.402,-3.3495,-3.3198,0.0,-3.2695,0.0,0.0,0.0,0.0,0.0,0.0,0.0,0.0,-3.3355,-3.3547,-3.3969,-3.4975,-3.5639,-3.5639,-3.5639,-3.5639,-3.5639,-3.5639,-3.5639,-3.5639,-3.5639,-3.5639,-3.5639,-3.5639,-3.5639,-3.5639,-3.5639,-3.5639,-3.5639,-3.5639,-3.5639,-3.5639,-3.5639,-3.5639,-3.5639,-3.5639,-3.5639,-3.5577,-3.5532,-3.547,-3.547,-3.5379,-3.5085,-3.4169,-3.3969,-3.3614,-3.2788,-3.2477,-3.2398,-3.2398,-3.2398,-3.2398,-3.2398,-3.2398,-3.2358,-3.2247,-3.2206,-3.2094,-4.1085,-4.1074,-4.1019,-4.0957,-4.0888,-4.0878,-4.0804,-4.072,-4.0687,-4.0646,-4.0588,-4.0539,-4.0489,-4.0489,-4.0489,-4.0489,-4.0489,-4.0489,-4.0408,-4.0196,-4.0139,-3.9899,-3.9508,-3.9401,-3.9237,-3.9026,-3.8921,-3.8892,-3.891,-3.8862,-3.8851,-3.8773,-3.8792,-3.875,-3.8707,0.0,0.0,0.0,-3.7982,-3.7578,-3.7469,-3.6799,-3.6385,-3.6259,-3.6191,0.0,-3.6122,-3.5975,-3.5677,-3.5174,-3.5068,0.0,0.0,0.0,0.0,0.0,0.0,0.0,0.0,0.0,0.0,0.0,-3.2492,-3.2734,-3.3198,-3.402,-3.4366,-3.4086,-3.4975,-3.5639,-3.5639,-3.5639,-3.5639,-3.5639,-3.5639,-3.5639,-3.5639,-3.5639,-3.5639,-3.5639,-3.5639,-3.5639,-3.5639,-3.5639,-3.5639,-3.5639,-3.5639,-3.5639,-3.5639,-3.5639,-3.5639,-3.5639,-3.5639,-3.5639,-3.5639,-3.527,-3.5021,-3.4911,-3.4577,-3.4284,-3.402,-3.3614,-3.3339,-3.2986,-3.2695,-3.2398,-3.2398,-3.2398,-3.2398,-3.2398,-3.2398,-3.2342,-3.2247,-3.2191,-3.2135,-4.1146,0.0,-4.1078,-4.1022,0.0,-4.0972,-4.0897,-4.0792,-4.0739,-4.0654,-4.0598,-4.0515,-4.0519,-4.0558,-4.0504,-4.0489,-4.0489,-4.0489,-4.0441,-4.0339,-4.0251,-4.0002,-3.9656,-3.9508,-3.9298,-3.9045,-3.8628,-3.8414,-3.8377,-3.7941,-3.771,-3.771,-3.7624,-3.7584,-3.7573,-3.7544,-3.79,-3.8707,-3.8101,-3.7685,-3.7487,-3.69,-3.6509,-3.6276,0.0,0.0,0.0,0.0,0.0,0.0,0.0,0.0,0.0,0.0,0.0,-3.2841,-3.2547,-3.2398,-3.2398,-3.2398,-3.2398,-3.2398,-3.2398,-3.2492,-3.2788,-3.3563,-3.4003,-3.402,-3.4721,-3.5333,-3.556,-3.5639,-3.5639,-3.5639,-3.5639,-3.5639,-3.5639,-3.5639,-3.5639,-3.5639,-3.5639,-3.5639,-3.5639,-3.5639,-3.5639,-3.5639,-3.5639,-3.5639,-3.5639,-3.5639,-3.5639,-3.5639,-3.5639,-3.5639,-3.5577,-3.5424,-3.5085,-3.4833,-3.4577,-3.4185,-3.3716,-3.3407,-3.3145,-3.2895,-3.2586,-3.2398,-3.2398,-3.2398,-3.2398,-3.2398,-3.2398,-3.2398,-3.2287,-3.2302,-3.2247,-4.1191,-4.1191,-4.1144,-4.1114,-4.1088,-4.1047,-4.0986,-4.0906,0.0,0.0,0.0,-4.0559,-4.0549,-4.0588,-4.0539,-4.0504,-4.0489,-4.0489,-4.0489,-4.0469,-4.0168,-3.9891,-3.9634,-3.9324,-3.9027,-3.8699,-3.8066,-3.7724,-3.7652,-3.6906,-3.6564,-3.6591,-3.6482,-3.6408,-3.6398,-3.6332,-3.6945,-3.8181,-3.8012,-3.7731,-3.7399,-3.7082,-3.6719,-3.6318,-3.6251,-3.6208,-3.6208,-3.6105,-3.5898,-3.5554,-3.5464,-3.4878,-3.3853,-3.3649,-3.3303,-3.2711,-3.2563,-3.2523,-3.2468,-3.2453,-3.2453,-3.2468,-3.2398,-3.2398,-3.2398,-3.3002,-3.3511,-3.3986,-3.4577,-3.5115,-3.5577,-3.5639,-3.5639,-3.5639,-3.5639,-3.5639,-3.5639,-3.5639,-3.5639,-3.5639,-3.5639,-3.5639,-3.5639,-3.5639,-3.5639,-3.5639,-3.5639,-3.5639,-3.5577,-3.5487,-3.5424,-3.5424,-3.527,-3.527,-3.527,-3.5115,-3.5005,-3.4512,-3.4366,-3.407,-3.3355,-3.3039,-3.2879,-3.2547,-3.2398,-3.2398,-3.2398,-3.2398,-3.2398,-3.2398,-3.2398,-3.2398,-3.2398,-3.2398,-3.2342,-4.1191,-4.1191,-4.1191,-4.1167,-4.1108,-4.1085,-4.1057,-4.0967,-4.0784,-4.07,-4.0687,-4.0679,-4.0636,-4.0588,-4.0588,-4.0558,-4.0489,-4.0489,-4.0489,0.0,-3.9762,-3.9284,-3.8994,-3.8232,-3.7656,-3.7314,-3.7178,-3.7019,-3.6879,-3.6742,-3.6634,-3.6599,-3.6591,-3.6491,-3.6398,-3.6313,-3.6413,-3.6652,-3.6903,-3.7036,-3.7003,-3.6929,-3.6878,-3.6799,-3.6433,-3.6301,-3.6301,-3.6259,-3.6233,-3.6156,-3.6105,-3.5783,-3.5161,-3.456,-3.4036,-3.3539,-3.3081,-3.2827,-3.2843,-3.2827,-3.2773,-3.2578,-3.2453,-3.2398,-3.2453,-3.3319,-3.3935,-3.4036,-3.4816,-3.5515,-3.5622,-3.5577,-3.5577,-3.5577,-3.5622,-3.5639,-3.5639,-3.5639,-3.5639,-3.5639,-3.5639,-3.5639,-3.5639,-3.5639,-3.5639,-3.5639,-3.5639,-3.5639,-3.5532,-3.5224,-3.4927,-3.4816,-3.4529,-3.4284,-3.4333,-3.3869,-3.37,-3.3443,-3.3145,-3.2895,-3.2641,-3.2586,-3.2547,-3.2453,-3.2398,-3.2398,-3.2398,-3.2398,-3.2398,-3.2398,-3.2398,-3.2398,-3.2398,-3.2398,-3.2382,-4.1191,-4.1191,-4.1191,-4.1171,-4.1147,-4.1116,-4.1078,-4.1052,-4.0929,-4.0859,-4.0849,-4.0796,-4.0718,-4.0655,-4.0144,-3.986,-3.9826,-3.935,-3.9142,-3.9104,-3.8757,-3.8454,-3.819,-3.7771,-3.7471,-3.7165,-3.671,-3.6459,-3.6351,-3.5893,-3.5687,-3.5687,-3.5642,-3.5549,-3.5374,-3.5229,-3.5124,-3.5037,-3.604,-3.6479,-3.6254,-3.6267,-3.6364,-3.6571,-3.64,-3.6418,-3.662,-3.6638,-3.6533,-3.6301,-3.6002,-3.5588,-3.4988,-3.4415,-3.385,-3.3293,-3.3058,-3.2912,-3.2912,-3.2912,-3.2843,-3.2773,-3.2703,-3.278,-3.3055,-3.3108,-3.3266,-3.3547,-3.4053,-3.4415,-3.4721,-3.4975,-3.5178,-3.5178,-3.5424,-3.5622,-3.5639,-3.5639,-3.5639,-3.5639,-3.5639,-3.5639,-3.5639,-3.5639,-3.5639,-3.5639,-3.5639,-3.5639,-3.5594,-3.5161,-3.4816,-3.4769,-3.456,-3.4317,-3.402,-3.3818,-3.3511,-3.3235,-3.2986,-3.2734,-3.2492,-3.2398,-3.2398,-3.2398,-3.2398,-3.2398,-3.2398,-3.2398,-3.2398,-3.2398,-3.2398,-3.2398,-3.2398,-3.2398,-3.2287,-4.0801,-4.0605,-4.0605,-4.0605,-4.0605,-4.0558,-4.0552,-4.057,-4.0871,-4.0818,-4.0471,-4.0357,-4.0267,-4.013,-3.9393,-3.905,-3.8931,-3.8325,-3.8003,-3.7983,-3.7796,-3.7606,-3.7381,-3.723,-3.7029,-3.6786,-3.6179,-3.5875,-3.5741,-3.5153,-3.4832,-3.487,-3.4792,-3.4649,-3.4495,-3.4279,-3.4068,-3.4013,-3.5156,-3.5703,-3.555,-3.567,-3.5825,-3.6024,-3.5954,-3.6072,-3.6484,-3.6496,-3.6464,-3.6284,-3.5941,-3.5402,-3.4704,-3.4268,-3.3697,-3.3096,-3.3005,-3.3005,-3.3005,-3.2951,-3.2951,-3.2951,-3.2912,-3.3065,-3.3319,-3.2873,-3.2803,-3.3459,-3.3751,-3.3969,-3.4464,-3.4864,-3.5068,-3.5115,-3.5424,-3.5711,-3.5711,-3.5711,-3.5711,-3.5667,-3.5694,-3.5711,-3.5711,-3.5684,-3.5622,-3.5622,-3.5639,-3.5622,-3.5577,-3.5224,-3.5021,-3.4833,-3.4721,-3.4431,-3.4036,-3.3869,-3.3614,-3.3251,-3.3039,-3.2788,-3.2492,-3.2398,-3.2398,-3.2398,-3.2398,-3.2398,-3.2398,-3.2398,-3.2398,-3.2398,-3.2398,-3.2398,-3.2398,-3.2231,-3.2064,-3.957,-3.8887,-3.8906,-3.8848,-3.8906,-3.8887,-3.8906,-3.9082,-4.0469,-4.0254,-3.8926,-3.88,-3.8685,-3.8452,-3.8355,-3.826,-3.8215,-3.8064,-3.7949,-3.7839,-3.7175,-3.6801,-3.6709,-3.6075,-3.5584,-3.546,-3.5367,-3.528,-3.5116,-3.4984,-3.4889,-3.4889,-3.4668,-3.4561,-3.4495,-3.4179,-3.4005,-3.3998,-3.412,-3.4502,-3.5054,-3.549,-3.5555,-3.5311,-3.4959,-3.4958,-3.5394,-3.5365,-3.5635,-3.6215,-3.6241,-3.5776,-3.4911,-3.4721,-3.4251,-3.3346,-3.324,-3.3256,-3.3256,-3.315,-3.3043,-3.3058,-3.2951,-3.2951,-3.3043,-3.2951,-3.3419,-3.448,-3.4927,-3.5021,-3.556,-3.5694,-3.5739,-3.5677,-3.5888,-3.5958,-3.5949,-3.5958,-3.5975,-3.5958,-3.5932,-3.5993,-3.5932,-3.5844,-3.5728,-3.5667,-3.5728,-3.5756,-3.5667,-3.5667,-3.5453,-3.4911,-3.4431,-3.4119,-3.3935,-3.3563,-3.3303,-3.3145,-3.2788,-3.2547,-3.2453,-3.2398,-3.2398,-3.2398,-3.2398,-3.2398,-3.2398,-3.2398,-3.2398,-3.2398,-3.2398,-3.2342,-3.2327,-3.1936,-3.1537,-3.886,-3.8547,-3.8573,-3.8613,-3.8613,-3.8613,-3.8613,-3.8691,-3.9336,-3.8965,-3.7851,-3.7296,-3.7539,-3.8324,-3.7805,-3.7536,-3.7472,-3.691,-3.6609,-3.6563,-3.6199,-3.6016,-3.5951,-3.5661,-3.5465,-3.5388,-3.5388,-3.5358,-3.5258,-3.5277,-3.5258,-3.5242,-3.5141,-3.5035,-3.4889,-3.4612,-3.4413,-3.4293,-3.4099,-3.4138,-3.4373,-3.4541,-3.4819,-3.5157,-3.4961,-3.4947,-3.5188,-3.5166,-3.5346,-3.56,-3.536,-3.523,-3.5266,-3.4975,-3.448,-3.3848,-3.345,-3.3293,-3.3293,-3.3256,-3.3203,-3.3187,-3.315,-3.3346,-3.3951,-3.3781,-3.4184,-3.5316,-3.4864,-3.4447,-3.4941,-3.5345,-3.5526,-3.5571,-3.5827,-3.6019,-3.6036,-3.6019,-3.6036,-3.6036,-3.6036,-3.6036,-3.5975,-3.5932,-3.5888,-3.5844,-3.5888,-3.5888,-3.5844,-3.5888,-3.58,-3.5543,-3.5052,-3.4366,-3.3767,-3.3407,-3.3093,-3.2803,-3.2547,-3.2398,-3.2398,-3.2398,-3.2398,-3.2398,-3.2398,-3.2398,-3.2398,-3.2398,-3.2398,-3.2287,-3.1992,-3.1766,-3.1349,-3.1116,-3.094,-3.7998,-3.7814,-3.785,-3.7891,-3.7891,-3.7891,-3.7891,-3.7871,-3.7891,-3.7519,-3.6914,-3.6269,-3.6659,-3.7602,-3.7069,-3.676,-3.6651,-3.6028,-3.5721,-3.5657,-3.5639,-3.5611,-3.5546,-3.5534,-3.5528,-3.5515,-3.5495,-3.5488,-3.5488,-3.5507,-3.5507,-3.5493,-3.5446,-3.5358,-3.5174,-3.4945,-3.4752,-3.4604,-3.4316,-3.4154,-3.4148,-3.4023,-3.4207,-3.4679,-3.4604,-3.4661,-3.4914,-3.4762,-3.4799,-3.5035,-3.459,-3.4601,-3.5199,-3.4768,-3.4396,-3.4118,-3.3882,-3.3729,-3.3745,-3.3729,-3.3729,-3.3694,-3.3591,-3.3832,-3.4366,-3.4184,-3.4513,-3.5498,-3.464,-3.4252,-3.483,-3.5266,-3.5509,-3.5509,-3.5854,-3.6088,-3.6105,-3.6105,-3.6105,-3.6105,-3.6088,-3.6062,-3.6079,-3.6079,-3.6036,-3.5975,-3.6019,-3.6019,-3.6036,-3.6019,-3.5975,-3.5827,-3.5407,-3.4864,-3.3853,-3.3407,-3.3093,-3.2734,-3.2602,-3.2398,-3.2398,-3.2398,-3.2398,-3.2398,-3.2398,-3.2398,-3.2327,-3.2327,-3.2033,-3.1864,-3.1637,-3.1233,-3.0807,-3.045,-3.0269,-3.6703,-3.6111,-3.6111,-3.623,-3.6152,-3.6172,-3.6172,-3.6289,-3.6211,-3.6133,-3.6133,-3.6035,-3.6055,-3.6211,-3.6099,-3.5931,-3.5875,-3.5844,-3.5794,-3.5781,-3.573,-3.5696,-3.5689,-3.5629,-3.5592,-3.5601,-3.5543,-3.5496,-3.5515,-3.5501,-3.5507,-3.5488,-3.5335,-3.5223,-3.5174,-3.5019,-3.4908,-3.485,-3.4647,-3.4539,-3.4517,-3.4245,-3.3947,-3.3725,-3.353,-3.3773,-3.4035,-3.374,-3.3827,-3.4596,-3.4268,-3.4219,-3.437,-3.4034,-3.3902,-3.4104,-3.4496,-3.4673,-3.4625,-3.4577,-3.4625,-3.4593,-3.4234,-3.4084,-3.4284,-3.3933,-3.4118,-3.4816,-3.4911,-3.5144,-3.5871,-3.6028,-3.6156,-3.6156,-3.6241,-3.6259,-3.6241,-3.6259,-3.6284,-3.6241,-3.6241,-3.6216,-3.6225,-3.6165,-3.6122,-3.6062,-3.6122,-3.6165,-3.6079,-3.614,-3.5932,-3.5543,-3.5316,-3.5131,-3.4833,-3.3986,-3.3423,-3.3018,-3.2672,-3.2453,-3.2398,-3.2398,-3.2398,-3.2398,-3.2398,-3.2327,-3.2256,-3.189,-3.1405,-3.1246,-3.1349,-3.0999,-3.0389,-2.9889,-2.9656,-3.6073,-3.5841,-3.5857,-3.5864,-3.5884,-3.5884,-3.5893,-3.5947,-3.5986,-3.6012,-3.6016,-3.6016,-3.6016,-3.6016,-3.5975,-3.5951,-3.5918,-3.5923,-3.5893,-3.5873,-3.5841,-3.5816,-3.5756,-3.5702,-3.5659,-3.5659,-3.5646,-3.562,-3.5611,-3.5621,-3.5601,-3.5554,-3.5488,-3.5432,-3.5364,-3.5193,-3.5037,-3.4908,-3.471,-3.4517,-3.4381,-3.4221,-3.408,-3.3979,-3.385,-3.366,-3.3463,-3.3223,-3.3263,-3.3641,-3.345,-3.3584,-3.4144,-3.4141,-3.4186,-3.4305,-3.4598,-3.469,-3.4415,-3.4382,-3.4317,-3.4317,-3.4184,-3.4415,-3.488,-3.4911,-3.5052,-3.5571,-3.5749,-3.5985,-3.6131,-3.6301,-3.6284,-3.6284,-3.6284,-3.6284,-3.6284,-3.6284,-3.6284,-3.6284,-3.6284,-3.6259,-3.6259,-3.6276,-3.6216,-3.6216,-3.6233,-3.6233,-3.6216,-3.6216,-3.6131,-3.5941,-3.5616,-3.5283,-3.4736,-3.4086,-3.3523,-3.3102,-3.2812,-3.2648,-3.2594,-3.2523,-3.2523,-3.2468,-3.2468,-3.2272,-3.2145,-3.2003,-3.1405,-3.097,-3.1058,-3.0569,-3.0011,-2.947,-2.9121,-3.5682,-3.5723,-3.5768,-3.578,-3.5805,-3.5805,-3.5827,-3.5877,-3.5916,-3.5932,-3.5947,-3.5953,-3.5974,-3.5974,-3.5976,-3.6016,-3.6016,-3.6016,-3.5975,-3.5927,-3.5923,-3.591,-3.5869,-3.5802,-3.5772,-3.5766,-3.5743,-3.5723,-3.5667,-3.5667,-3.5648,-3.5618,-3.5607,-3.5581,-3.5495,-3.5364,-3.5203,-3.5088,-3.4889,-3.4711,-3.4545,-3.439,-3.4316,-3.4311,-3.4148,-3.3858,-3.3437,-3.3207,-3.3118,-3.3175,-3.2948,-3.302,-3.347,-3.4045,-3.4168,-3.3917,-3.451,-3.4718,-3.4376,-3.4558,-3.4833,-3.4785,-3.469,-3.4927,-3.5526,-3.5436,-3.5616,-3.5924,-3.6071,-3.6131,-3.6259,-3.6284,-3.6284,-3.6284,-3.6284,-3.6284,-3.6284,-3.6284,-3.6284,-3.6284,-3.6284,-3.6284,-3.6284,-3.6284,-3.6284,-3.6284,-3.6284,-3.6284,-3.6284,-3.6284,-3.6199,-3.6071,-3.5749,-3.5237,-3.4657,-3.4052,-3.3491,-3.3087,-3.292,-3.2827,-3.2773,-3.2718,-3.2648,-3.2594,-3.2398,-3.2216,-3.2089,-3.2003,-3.1549,-3.0881,-3.0389,-2.995,-2.9407,-2.8944,-2.8698,-3.5602,-3.5601,-3.5687,-3.5723,-3.5788,-3.5788,-3.5794,-3.5805,-3.5811,-3.5816,-3.5836,-3.5861,-3.5896,-3.5918,-3.5951,-3.5996,-3.5976,-3.5976,-3.5976,-3.5996,-3.5996,-3.5996,-3.5976,-3.5923,-3.5893,-3.5871,-3.5827,-3.5755,-3.5655,-3.5655,-3.564,-3.5631,-3.5623,-3.5631,-3.5584,-3.5515,-3.5489,-3.5388,-3.5223,-3.5141,-3.5141,-3.4772,-3.4583,-3.4561,-3.4363,-3.4179,-3.4055,-3.368,-3.3419,-3.3368,-3.2916,-3.2511,-3.2586,-3.3414,-3.3663,-3.3211,-3.4261,-3.4822,-3.4592,-3.5335,-3.5728,-3.5805,-3.5698,-3.5397,-3.5554,-3.5283,-3.5237,-3.5661,-3.5766,-3.5837,-3.6199,-3.6284,-3.6284,-3.6284,-3.6284,-3.6284,-3.6284,-3.6284,-3.6284,-3.6284,-3.6284,-3.6284,-3.6284,-3.6284,-3.6284,-3.6284,-3.6284,-3.6284,-3.6249,-3.6197,-3.6045,-3.5752,-3.5365,-3.4908,-3.444,-3.4052,-3.3511,-3.3093,-3.3011,-3.2951,-3.2897,-3.2897,-3.2843,-3.2718,-3.2358,-3.2104,-3.1261,-3.113,-3.0763,-3.0194,-2.9766,-2.9496,-2.9025,-2.8669,-2.8429,-3.5353,-3.5412,-3.5566,-3.5639,-3.5669,-3.5669,-3.5698,-3.5737,-3.5718,-3.5755,-3.5786,-3.5827,-3.5836,-3.5836,-3.5853,-3.5857,-3.5857,-3.5877,-3.5901,-3.5996,-3.6016,-3.5996,-3.5996,-3.5976,-3.5974,-3.5973,-3.595,-3.5923,-3.5874,-3.5871,-3.5869,-3.5813,-3.5753,-3.5697,-3.5618,-3.5546,-3.5463,-3.532,-3.5242,-3.5141,-3.5019,-3.4889,-3.4811,-3.4811,-3.4732,-3.4607,-3.4431,-3.3891,-3.3382,-3.3014,-3.2734,-3.2458,-3.2381,-3.302,-3.3325,-3.3166,-3.4012,-3.4404,-3.398,-3.4167,-3.4618,-3.4934,-3.4924,-3.5239,-3.5942,-3.5873,-3.5812,-3.6037,-3.6071,-3.6174,-3.6259,-3.6284,-3.6215,-3.6284,-3.6284,-3.6266,-3.6215,-3.6215,-3.6284,-3.6284,-3.6284,-3.6284,-3.6266,-3.6232,-3.6163,-3.6163,-3.618,-3.618,-3.618,-3.5766,-3.5559,-3.5359,-3.4949,-3.4398,-3.3765,-3.3337,-3.2885,-3.2593,-3.2588,-3.2588,-3.2698,-3.2707,-3.2754,-3.2609,-3.2228,-3.1656,-3.0837,-3.029,-2.9949,-2.9807,-2.9596,-2.9195,-2.8753,-2.836,-2.8007,-3.5102,-3.5171,-3.5285,-3.5374,-3.543,-3.5443,-3.5534,-3.5639,-3.5669,-3.566,-3.5629,-3.5721,-3.5709,-3.5682,-3.5749,-3.5791,-3.5791,-3.5791,-3.5845,-3.5923,-3.5925,-3.5925,-3.5925,-3.5925,-3.5925,-3.5925,-3.5925,-3.5909,-3.5895,-3.5898,-3.5875,-3.5828,-3.5807,-3.5768,-3.5666,-3.562,-3.5495,-3.5391,-3.5355,-3.527,-3.5138,-3.5053,-3.5018,-3.5,-3.4926,-3.4831,-3.4689,-3.4232,-3.3742,-3.3296,-3.2983,-3.2621,-3.2249,-3.2543,-3.2713,-3.2723,-3.3335,-3.3706,-3.3253,-3.3567,-3.3857,-3.4336,-3.4303,-3.4575,-3.5328,-3.5473,-3.5473,-3.5473,-3.5439,-3.5473,-3.5456,-3.5473,-3.549,-3.5473,-3.599,-3.6128,-3.5973,-3.5628,-3.5456,-3.5387,-3.5404,-3.5473,-3.5473,-3.5473,-3.5473,-3.5473,-3.5473,-3.5473,-3.5387,-3.5059,-3.4829,-3.461,-3.4199,-3.3601,-3.2967,-3.2566,-3.2229,-3.2096,-3.2051,-3.2025,-3.2049,-3.2049,-3.208,-3.1774,-3.1495,-3.0843,-3.0107,-2.974,-2.9377,-2.9371,-2.9078,-2.8451,-2.7781,-2.7612,-2.7325,-3.4889,-3.487,-3.4889,-3.5053,-3.5184,-3.52,-3.5326,-3.5515,-3.5547,-3.5443,-3.5378,-3.5508,-3.5532,-3.5472,-3.5571,-3.5655,-3.5743,-3.5689,-3.567,-3.571,-3.5717,-3.5749,-3.5827,-3.5831,-3.5812,-3.5827,-3.5827,-3.5782,-3.5757,-3.5794,-3.5761,-3.5753,-3.5783,-3.5802,-3.5766,-3.5714,-3.5678,-3.565,-3.5626,-3.5546,-3.5477,-3.5336,-3.5232,-3.5223,-3.5089,-3.4945,-3.4851,-3.4586,-3.4381,-3.4105,-3.3476,-3.2908,-3.2386,-3.2214,-3.2143,-3.1891,-3.2661,-3.2882,-3.2823,-3.3244,-3.3896,-3.4029,-3.4007,-3.4116,-3.4306,-3.4483,-3.4466,-3.4431,-3.434,-3.4271,-3.4288,-3.4323,-3.4323,-3.434,-3.5272,-3.5611,-3.5221,-3.4616,-3.4444,-3.4306,-3.4167,-3.4128,-3.43,-3.4283,-3.4283,-3.4283,-3.4318,-3.4387,-3.4318,-3.4226,-3.3882,-3.3607,-3.3413,-3.2838,-3.2194,-3.1808,-3.1438,-3.1142,-3.1118,-3.1207,-3.1407,-3.1435,-3.1165,-3.0949,-3.0603,-2.997,-2.9366,-2.8956,-2.8482,-2.8082,-2.7654,-2.7138,-2.6936,-2.6829,-2.6633,-3.4668,-3.4689,-3.485,-3.4926,-3.4982,-3.4982,-3.5016,-3.5083,-3.51,-3.5119,-3.51,-3.5146,-3.5174,-3.5108,-3.5181,-3.5225,-3.5249,-3.5235,-3.5235,-3.5276,-3.5276,-3.5494,-3.5743,-3.5791,-3.5805,-3.5805,-3.5774,-3.5797,-3.5773,-3.5786,-3.5802,-3.5789,-3.5781,-3.5794,-3.5784,-3.5783,-3.5735,-3.5702,-3.5698,-3.5639,-3.5581,-3.553,-3.55,-3.5476,-3.5388,-3.52,-3.4907,-3.4524,-3.4173,-3.3921,-3.3522,-3.3214,-3.297,-3.2925,-3.2813,-3.2752,-3.2745,-3.2871,-3.2755,-3.2721,-3.2997,-3.35,-3.3515,-3.3682,-3.4254,-3.4328,-3.4345,-3.4306,-3.4306,-3.4293,-3.4293,-3.4258,-3.4276,-3.4341,-3.4562,-3.4735,-3.4662,-3.4411,-3.4194,-3.4391,-3.4164,-3.3995,-3.3978,-3.3978,-3.3978,-3.3978,-3.396,-3.396,-3.3736,-3.3438,-3.3119,-3.2913,-3.2629,-3.2009,-3.147,-3.11,-3.0685,-3.0214,-3.0144,-3.0259,-3.0571,-3.0911,-3.0485,-2.9963,-2.9562,-2.9,-2.8436,-2.7863,-2.7367,-2.7103,-2.6996,-2.6768,-2.6344,-2.6131,-2.5887,-3.445,-3.4431,-3.4564,-3.467,-3.4771,-3.4771,-3.4812,-3.4889,-3.4908,-3.487,-3.487,-3.4906,-3.4907,-3.4832,-3.4944,-3.4997,-3.4997,-3.4997,-3.5013,-3.5047,-3.5062,-3.5282,-3.5573,-3.5674,-3.5729,-3.5713,-3.5702,-3.5721,-3.571,-3.5741,-3.5762,-3.5749,-3.5779,-3.5806,-3.5792,-3.5779,-3.5757,-3.5736,-3.5719,-3.569,-3.569,-3.5682,-3.5676,-3.565,-3.5568,-3.5361,-3.5064,-3.4775,-3.4379,-3.3928,-3.3625,-3.3408,-3.3124,-3.3075,-3.305,-3.2925,-3.2719,-3.2588,-3.2521,-3.2335,-3.2494,-3.2932,-3.2985,-3.3248,-3.3653,-3.3829,-3.3794,-3.3758,-3.3794,-3.3794,-3.3794,-3.3812,-3.3794,-3.3758,-3.3706,-3.3739,-3.3999,-3.3532,-3.3355,-3.3432,-3.3395,-3.328,-3.3297,-3.3297,-3.3297,-3.3228,-3.3107,-3.3087,-3.3014,-3.272,-3.2438,-3.2297,-3.2042,-3.1545,-3.1103,-3.0734,-3.0438,-2.9951,-2.9675,-2.9705,-2.9752,-3.017,-2.9682,-2.9128,-2.8621,-2.8184,-2.7722,-2.7329,-2.7018,-2.6779,-2.6648,-2.6417,-2.5999,-2.5714,-2.5429,-3.4173,-3.4191,-3.4191,-3.4293,-3.4495,-3.4517,-3.4564,-3.4713,-3.4772,-3.4691,-3.4567,-3.4734,-3.4695,-3.4572,-3.4735,-3.4889,-3.4889,-3.4794,-3.4832,-3.4851,-3.4888,-3.5043,-3.5278,-3.5438,-3.5502,-3.5521,-3.5547,-3.5565,-3.5585,-3.564,-3.5688,-3.5685,-3.5742,-3.5774,-3.5758,-3.574,-3.5725,-3.578,-3.574,-3.5745,-3.5747,-3.5749,-3.5747,-3.5671,-3.5609,-3.548,-3.5301,-3.5124,-3.4775,-3.3975,-3.3884,-3.3616,-3.3118,-3.2965,-3.2939,-3.2816,-3.2802,-3.2654,-3.2454,-3.2521,-3.2472,-3.2743,-3.2776,-3.2766,-3.3118,-3.3234,-3.3252,-3.3239,-3.3057,-3.318,-3.318,-3.3104,-3.3194,-3.3252,-3.314,-3.3123,-3.3055,-3.2634,-3.2214,-3.2232,-3.2284,-3.2197,-3.2197,-3.2197,-3.2302,-3.2984,-3.2809,-3.2792,-3.2738,-3.2527,-3.2154,-3.1734,-3.1513,-3.1213,-3.0804,-3.0393,-3.0199,-2.9897,-2.9621,-2.9418,-2.9108,-2.9169,-2.8823,-2.8437,-2.8171,-2.7891,-2.755,-2.7156,-2.6712,-2.6432,-2.6315,-2.5995,-2.5661,-2.5519,-2.5227,-3.3972,-3.3954,-3.3972,-3.3998,-3.4049,-3.4049,-3.3998,-3.3928,-3.4227,-3.425,-3.413,-3.4274,-3.4321,-3.4274,-3.4348,-3.4371,-3.4353,-3.426,-3.4184,-3.4325,-3.4473,-3.4637,-3.4832,-3.5013,-3.5117,-3.5168,-3.5315,-3.536,-3.5397,-3.5489,-3.5612,-3.5604,-3.5562,-3.5611,-3.5693,-3.5655,-3.5722,-3.5782,-3.5759,-3.5742,-3.5741,-3.576,-3.5769,-3.5685,-3.5587,-3.5475,-3.5356,-3.5155,-3.4932,-3.4734,-3.454,-3.4246,-3.3906,-3.3821,-3.3768,-3.3661,-3.3532,-3.3465,-3.3408,-3.3166,-3.3111,-3.3166,-3.3196,-3.3154,-3.3214,-3.3284,-3.3302,-3.3243,-3.3243,-3.3343,-3.3354,-3.3255,-3.3314,-3.3343,-3.3314,-3.3327,-3.3242,-3.3015,-3.289,-3.2996,-3.2903,-3.2809,-3.2809,-3.2763,-3.2777,-3.2791,-3.2713,-3.2666,-3.2519,-3.2352,-3.2073,-3.1674,-3.1637,-3.147,-3.1106,-3.069,-3.0335,-3.0038,-2.975,-2.9364,-2.9013,-2.8732,-2.8574,-2.8286,-2.7871,-2.7575,-2.7335,-2.6907,-2.649,-2.6218,-2.6042,-2.5893,-2.5702,-2.5411,-2.5118,-3.3662,-3.3753,-3.3753,-3.3753,-3.3753,-3.3734,-3.3698,-3.3661,-3.3815,-3.3887,-3.3807,-3.3868,-3.3939,-3.3921,-3.3921,-3.3921,-3.3895,-3.3815,-3.3788,-3.3876,-3.3975,-3.4074,-3.4165,-3.4353,-3.451,-3.4851,-3.5053,-3.5122,-3.5152,-3.5216,-3.5262,-3.5311,-3.5297,-3.5287,-3.5374,-3.5367,-3.535,-3.5427,-3.556,-3.5597,-3.563,-3.5724,-3.5773,-3.5703,-3.5656,-3.5607,-3.5522,-3.5465,-3.5336,-3.5213,-3.5057,-3.4773,-3.4414,-3.4323,-3.4278,-3.4102,-3.4,-3.3882,-3.3813,-3.371,-3.3658,-3.3788,-3.3825,-3.3836,-3.3906,-3.3975,-3.4,-3.3968,-3.4,-3.4056,-3.4031,-3.3949,-3.3917,-3.3943,-3.4,-3.4,-3.3847,-3.3468,-3.3196,-3.3343,-3.3196,-3.3136,-3.3118,-3.3219,-3.3057,-3.2965,-3.284,-3.2763,-3.242,-3.2266,-3.2232,-3.202,-3.2037,-3.1875,-3.1545,-3.1106,-3.0584,-3.0293,-2.9951,-2.9528,-2.909,-2.8858,-2.8622,-2.8204,-2.774,-2.7386,-2.7093,-2.6698,-2.6525,-2.6486,-2.6394,-2.6125,-2.5907,-2.5825,-2.537,-3.3291,-3.3473,-3.3502,-3.352,-3.3502,-3.3549,-3.3502,-3.3473,-3.353,-3.3559,-3.3502,-3.3502,-3.3494,-3.3494,-3.3465,-3.3455,-3.3368,-3.3321,-3.3243,-3.3255,-3.3284,-3.3354,-3.3411,-3.3597,-3.3873,-3.4572,-3.4674,-3.4715,-3.4736,-3.4813,-3.4869,-3.4869,-3.4906,-3.4886,-3.4906,-3.4869,-3.488,-3.4979,-3.5147,-3.5302,-3.5407,-3.5546,-3.5587,-3.5662,-3.5732,-3.5742,-3.5716,-3.5685,-3.5655,-3.5541,-3.5473,-3.5187,-3.4837,-3.4586,-3.449,-3.4191,-3.4226,-3.4242,-3.4255,-3.417,-3.4211,-3.4485,-3.448,-3.4534,-3.4612,-3.4674,-3.4674,-3.4674,-3.4674,-3.4793,-3.4889,-3.4674,-3.4588,-3.463,-3.4792,-3.4831,-3.4588,-3.3975,-3.375,-3.3634,-3.3661,-3.3597,-3.3607,-3.3643,-3.3335,-3.3118,-3.3027,-3.2872,-3.2553,-3.242,-3.2537,-3.2386,-3.2352,-3.1984,-3.1582,-3.1355,-3.0868,-3.0543,-3.0208,-2.9777,-2.9303,-2.9044,-2.8716,-2.8073,-2.7604,-2.7299,-2.7093,-2.687,-2.6765,-2.6832,-2.6553,-2.615,-2.6122,-2.6176,-2.5632,-3.283,-3.2862,-3.3037,-3.3117,-3.3099,-3.322,-3.3129,-3.3086,-3.3202,-3.325,-3.3099,-3.3075,-3.3039,-3.3009,-3.2898,-3.2677,-3.2466,-3.2451,-3.24,-3.24,-3.2433,-3.2482,-3.2642,-3.2867,-3.3153,-3.3385,-3.3721,-3.3969,-3.4204,-3.4386,-3.4433,-3.437,-3.4449,-3.4451,-3.4355,-3.4292,-3.4398,-3.4566,-3.4717,-3.4823,-3.4993,-3.5133,-3.5253,-3.5424,-3.5574,-3.566,-3.5689,-3.5703,-3.5699,-3.5662,-3.5643,-3.5578,-3.5386,-3.5134,-3.4955,-3.4856,-3.4827,-3.4797,-3.4807,-3.4812,-3.4831,-3.4887,-3.4923,-3.4905,-3.4943,-3.4997,-3.5028,-3.4996,-3.4978,-3.4997,-3.498,-3.4959,-3.4944,-3.4944,-3.4978,-3.4996,-3.4906,-3.4756,-3.4582,-3.4502,-3.4323,-3.4136,-3.4147,-3.4128,-3.3963,-3.3792,-3.3713,-3.3552,-3.3288,-3.3219,-3.3284,-3.3014,-3.2666,-3.2144,-3.16,-3.1449,-3.1123,-3.0845,-3.0502,-3.0064,-2.9629,-2.9257,-2.8764,-2.8073,-2.769,-2.7473,-2.7269,-2.6989,-2.6884,-2.6779,-2.6472,-2.6162,-2.6176,-2.6204,-2.566,-3.195,-3.2056,-3.2317,-3.2317,-3.2231,-3.2401,-3.2385,-3.2179,-3.2282,-3.2264,-3.2196,-3.2178,-3.2161,-3.2161,-3.2092,-3.1898,-3.1789,-3.1752,-3.1752,-3.1752,-3.1752,-3.1771,-3.1899,-3.2143,-3.2212,-3.2313,-3.2592,-3.3183,-3.3698,-3.3924,-3.3938,-3.3931,-3.3968,-3.3949,-3.3894,-3.388,-3.3894,-3.4096,-3.4157,-3.4292,-3.4457,-3.4624,-3.4866,-3.4902,-3.5085,-3.5179,-3.5083,-3.5095,-3.5182,-3.5325,-3.5379,-3.5513,-3.5577,-3.5562,-3.5407,-3.5377,-3.5378,-3.5416,-3.54,-3.5396,-3.5365,-3.5415,-3.5384,-3.5297,-3.5252,-3.5277,-3.5341,-3.5341,-3.5258,-3.5258,-3.5365,-3.5265,-3.5213,-3.5245,-3.5265,-3.5258,-3.522,-3.5207,-3.52,-3.5193,-3.4876,-3.4661,-3.4735,-3.4676,-3.4574,-3.4489,-3.4405,-3.4204,-3.3951,-3.3862,-3.3828,-3.3259,-3.2805,-3.235,-3.1842,-3.1696,-3.1452,-3.1184,-3.0908,-3.0468,-2.9876,-2.9451,-2.8732,-2.7959,-2.771,-2.7509,-2.7167,-2.6832,-2.6832,-2.6741,-2.6553,-2.6379,-2.6326,-2.6125,-2.5495,-3.1162,-3.1283,-3.1603,-3.1582,-3.1414,-3.1657,-3.1677,-3.1452,-3.1397,-3.1397,-3.1321,-3.1321,-3.1321,-3.1283,-3.1244,-3.1223,-3.1184,-3.1145,-3.1128,-3.1145,-3.1145,-3.1128,-3.1206,-3.1304,-3.1439,-3.1497,-3.1735,-3.2179,-3.2903,-3.3207,-3.3243,-3.3118,-3.3166,-3.3214,-3.3118,-3.3039,-3.3232,-3.3343,-3.3423,-3.3542,-3.3707,-3.4055,-3.422,-3.4031,-3.422,-3.432,-3.4339,-3.4355,-3.4576,-3.4798,-3.4963,-3.5106,-3.5436,-3.5519,-3.5524,-3.5547,-3.5678,-3.5771,-3.5753,-3.5656,-3.5588,-3.5593,-3.5641,-3.5538,-3.5503,-3.5515,-3.5669,-3.5669,-3.5535,-3.5438,-3.5513,-3.5482,-3.5386,-3.5373,-3.546,-3.5534,-3.5391,-3.5346,-3.5363,-3.5313,-3.5198,-3.5136,-3.5123,-3.4996,-3.4838,-3.4821,-3.475,-3.4604,-3.4367,-3.4222,-3.3987,-3.334,-3.2827,-3.2464,-3.2161,-3.2057,-3.1808,-3.1531,-3.138,-3.1077,-3.0336,-2.9581,-2.8826,-2.8125,-2.7625,-2.7423,-2.7026,-2.6592,-2.6433,-2.6326,-2.6476,-2.6261,-2.5674,-2.5439,-2.5107,-3.0828,-3.0868,-3.1123,-3.1162,-3.1145,-3.1338,-3.1435,-3.1321,-3.1089,-3.1106,-3.0891,-3.0868,-3.0771,-3.069,-3.0601,-3.0452,-3.0368,-3.0267,-3.0251,-3.0251,-3.0267,-3.0251,-3.0368,-3.0723,-3.0616,-3.064,-3.1055,-3.1548,-3.1792,-3.2039,-3.2144,-3.2004,-3.223,-3.2161,-3.2074,-3.2144,-3.2056,-3.2264,-3.2331,-3.2462,-3.2697,-3.3182,-3.3204,-3.3113,-3.3185,-3.34,-3.3605,-3.3645,-3.3867,-3.4235,-3.4334,-3.4434,-3.4561,-3.4558,-3.4617,-3.4851,-3.523,-3.5699,-3.5624,-3.5545,-3.5504,-3.5481,-3.5417,-3.54,-3.5427,-3.5508,-3.5605,-3.5701,-3.5547,-3.5468,-3.5465,-3.5382,-3.5318,-3.5298,-3.5339,-3.5352,-3.5279,-3.529,-3.5324,-3.53,-3.5134,-3.5291,-3.5388,-3.5233,-3.5111,-3.513,-3.5091,-3.4932,-3.4795,-3.4622,-3.443,-3.3864,-3.3374,-3.298,-3.2657,-3.2517,-3.2311,-3.2004,-3.1862,-3.1664,-3.083,-3.0009,-2.9162,-2.8497,-2.7963,-2.7255,-2.6683,-2.6297,-2.596,-2.6096,-2.6422,-2.5633,-2.4478,-2.4513,-2.4815,-2.9569,-2.9865,-3.0133,-3.0149,-3.0048,-3.0551,-3.051,-3.0133,-3.0005,-2.9789,-2.9553,-2.9448,-2.9374,-2.9464,-2.9271,-2.9225,-2.9134,-2.9134,-2.9134,-2.9134,-2.915,-2.915,-2.918,-2.9345,-2.9358,-2.9278,-2.9472,-2.9456,-2.9969,-3.0915,-3.1568,-3.1439,-3.1551,-3.1662,-3.127,-3.1473,-3.1623,-3.1716,-3.1754,-3.1845,-3.2057,-3.2345,-3.2456,-3.2156,-3.2349,-3.2474,-3.2536,-3.2585,-3.2763,-3.313,-3.3232,-3.339,-3.3597,-3.3701,-3.3739,-3.4069,-3.4329,-3.4719,-3.5068,-3.5066,-3.5141,-3.5224,-3.52,-3.5227,-3.5251,-3.5185,-3.524,-3.5359,-3.5197,-3.5169,-3.5251,-3.5227,-3.52,-3.5144,-3.4953,-3.4913,-3.4933,-3.5135,-3.5161,-3.5115,-3.5039,-3.5022,-3.5077,-3.5078,-3.5045,-3.5275,-3.5293,-3.5221,-3.5113,-3.5001,-3.4787,-3.4518,-3.407,-3.3664,-3.3342,-3.3095,-3.2913,-3.2693,-3.258,-3.2212,-3.137,-3.0516,-2.9691,-2.8823,-2.8148,-2.739,-2.652,-2.6244,-2.6244,-2.6326,-2.6461,-2.555,-2.4751,-2.4614,-2.4646,-2.8112,-2.867,-2.9088,-2.9134,-2.8966,-2.954,-2.9451,-2.8966,-2.8919,-2.8685,-2.8384,-2.8384,-2.8336,-2.824,-2.8225,-2.8161,-2.8112,-2.7917,-2.7853,-2.7853,-2.7853,-2.7853,-2.7871,-2.792,-2.7758,-2.7315,-2.7908,-2.7957,-2.8231,-2.9016,-3.0053,-3.0647,-3.0484,-3.0542,-3.0623,-3.0542,-3.0484,-3.0179,-3.0203,-3.0325,-3.0553,-3.0852,-3.0959,-3.1009,-3.1159,-3.1274,-3.1249,-3.1215,-3.1433,-3.1497,-3.1586,-3.1617,-3.1706,-3.1632,-3.1693,-3.1893,-3.2025,-3.2274,-3.303,-3.3638,-3.4459,-3.4652,-3.4563,-3.4365,-3.4418,-3.4404,-3.4382,-3.448,-3.4346,-3.4437,-3.4579,-3.4456,-3.4296,-3.4241,-3.4314,-3.4298,-3.4205,-3.3996,-3.3997,-3.4037,-3.4018,-3.422,-3.4342,-3.4623,-3.492,-3.5331,-3.5462,-3.5372,-3.5182,-3.4911,-3.4889,-3.4614,-3.4614,-3.4263,-3.4112,-3.3827,-3.3586,-3.3345,-3.3223,-3.2448,-3.1408,-3.0889,-3.0347,-2.9482,-2.7317,-2.7674,-2.6916,-2.6721,-2.6457,-2.577,-2.5286,-2.566,-2.5342,-2.4968,-2.4235,-2.6894,-2.7485,-2.8079,-2.8336,-2.8352,-2.8384,-2.8432,-2.8288,-2.8288,-2.8176,-2.7917,-2.8128,-2.7966,-2.7966,-2.7425,-2.7259,-2.736,-2.6843,-2.6585,-2.6518,-2.6622,-2.6451,-2.6332,-2.6213,-2.6294,-2.628,-2.6332,-2.6385,-2.6556,-2.677,-2.778,-2.8544,-2.884,-2.881,-2.881,-2.8932,-2.8762,-2.8436,-2.8264,-2.8155,-2.8373,-2.8621,-2.8881,-2.9039,-2.9148,-2.9345,-2.9751,-2.9567,-2.9545,-2.9473,-2.9499,-2.9482,-2.937,-2.9295,-2.9371,-2.9477,-2.9518,-2.9599,-2.9938,-3.19,-3.3531,-3.3561,-3.3172,-3.2793,-3.2765,-3.3051,-3.3165,-3.2967,-3.2692,-3.2748,-3.2849,-3.292,-3.2518,-3.2327,-3.2145,-3.2115,-3.2076,-3.2249,-3.2322,-3.2701,-3.2661,-3.2356,-3.2383,-3.2409,-3.3895,-3.439,-3.436,-3.4268,-3.4347,-3.4195,-3.4511,-3.4591,-3.4853,-3.4836,-3.4861,-3.4513,-3.384,-3.3712,-3.3711,-3.2487,-3.108,-3.0818,-3.1384,-2.5313,-2.2697,-2.5122,-2.5523,-2.0726,-1.8724,-2.249,-2.4261,-2.5078,-2.4209,-2.2836,-2.2528,-2.5384,-2.5604,-2.5861,-2.6657,-2.7685,-2.7655,-2.749,-2.7187,-2.6784,-2.6299,-2.6048,-2.5955,-2.5955,-2.5901,-2.5793,-2.5616,-2.5562,-2.5397,-2.5011,-2.4691,-2.4565,-2.4356,-2.4173,-2.3989,-2.3772,-2.3785,-2.4085,-2.4296,-2.401,-2.4774,-2.5507,-2.6222,-2.6792,-2.7229,-2.733,-2.728,-2.7098,-2.7054,-2.6914,-2.698,-2.7151,-2.7215,-2.7235,-2.6971,-2.7,-2.6811,-2.6728,-2.6663,-2.6877,-2.709,-2.7139,-2.7139,-2.7105,-2.7105,-2.7173,-2.7321,-2.7354,-2.7187,-2.7178,-2.9244,-3.0711,-3.0854,-3.0548,-3.0384,-3.0426,-3.0499,-3.0571,-3.0553,-3.0426,-3.0228,-3.0202,-3.0068,-2.9808,-2.9693,-2.9582,-2.9538,-2.9521,-2.9549,-2.9365,-2.917,-2.946,-2.9508,-2.969,-2.9858,-3.1725,-3.3371,-3.326,-3.3053,-3.2781,-3.2457,-3.2365,-3.2535,-3.2679,-3.2942,-3.2908,-3.327,-3.3633,-3.349,-3.3316,-3.1106,-2.9311,-3.2642,-3.157,-2.4362,-1.7985,-1.8916,-1.701,-1.1162,-1.2111,-1.9018,-2.2998,-2.5163,-2.3547,-2.1012,-2.043,-2.4239,-2.4425,-2.4182,-2.4995,-2.6357,-2.6419,-2.6246,-2.5915,-2.5452,-2.4968,-2.4513,-2.4513,-2.4328,-2.42,-2.3955,-2.3755,-2.3566,-2.3331,-2.2975,-2.277,-2.2504,-2.225,-2.2006,-2.181,-2.1822,-2.1498,-2.187,-2.2238,-2.2128,-2.3059,-2.3344,-2.3703,-2.4309,-2.4845,-2.5966,-2.5586,-2.5396,-2.5231,-2.4998,-2.5162,-2.5162,-2.523,-2.5378,-2.4956,-2.5011,-2.4929,-2.471,-2.4682,-2.4517,-2.4517,-2.4531,-2.4545,-2.4668,-2.4778,-2.4901,-2.5047,-2.5124,-2.4892,-2.4882,-2.6086,-2.7303,-2.7451,-2.7196,-2.7165,-2.7319,-2.7257,-2.7088,-2.7241,-2.7149,-2.7087,-2.6979,-2.6764,-2.6808,-2.6701,-2.6111,-2.5968,-2.5949,-2.5968,-2.5712,-2.5487,-2.5726,-2.5797,-2.5911,-2.6195,-2.8233,-2.9814,-2.9913,-2.9719,-2.9589,-2.9233,-2.8923,-2.9233,-2.9625,-2.9924,-3.0221,-2.9589,-2.9024,-2.9053,-2.8632,-2.73,-2.7036,-2.9979,-2.9898,-2.3197,-1.7633,-1.3974,-1.0587,-0.748,-1.1523,-1.7767,-1.9989,-2.1131,-2.1559,-1.9135,-1.8294,-2.3682,-2.4176,-2.3446,-2.3644,-2.4429,-2.457,-2.4557,-2.4429,-2.4385,-2.42,-2.404,-2.4097,-2.3813,-2.3246,-2.2627,-2.2262,-2.1758,-2.1232,-2.0801,-2.0726,-2.049,-2.0546,-2.0353,-2.0149,-2.0062,-2.044,-2.0685,-2.0737,-2.0696,-2.1192,-2.1129,-2.1055,-2.1673,-2.2456,-2.4627,-2.3592,-2.2554,-2.1932,-2.1561,-2.1969,-2.2226,-2.2468,-2.2742,-2.2608,-2.2786,-2.2702,-2.2439,-2.2427,-2.2247,-2.1971,-2.191,-2.1679,-2.1222,-2.0887,-2.0751,-2.0563,-2.05,-2.0206,-1.9909,-2.2394,-2.335,-2.3986,-2.4001,-2.3728,-2.3466,-2.3369,-2.3371,-2.3472,-2.3482,-2.3342,-2.3329,-2.3342,-2.3522,-2.3109,-2.2519,-2.2242,-2.2198,-2.2141,-2.1831,-2.1716,-2.1621,-2.1629,-2.1763,-2.2411,-2.454,-2.5816,-2.624,-2.6275,-2.6061,-2.5872,-2.545,-2.508,-2.5445,-2.5384,-2.533,-2.4834,-2.4492,-2.4533,-2.3753,-2.2255,-2.1585,-2.269,-2.1747,-1.9034,-1.5336,-0.9929,-0.7473,-0.5279,-0.6768,-0.7722,-1.3363,-1.5477,-1.6571,-1.5713,-1.2706,-2.1978,-2.2163,-2.1854,-2.1717,-2.1744,-2.2651,-2.288,-2.2554,-2.2421,-2.2139,-2.1756,-2.2003,-2.188,-2.1307,-2.1043,-2.0737,-2.0417,-1.9792,-1.9433,-1.8772,-1.8429,-1.7755,-1.7697,-1.8055,-1.82,-1.8402,-1.8747,-1.9344,-1.9552,-1.9738,-2.0268,-2.0386,-1.9814,-2.064,-2.1596,-2.1432,-2.1181,-2.1003,-2.0812,-2.0662,-2.0328,-2.0478,-2.0351,-1.9899,-2.0039,-2.0039,-1.9695,-1.9749,-1.9576,-1.9457,-1.9381,-1.9272,-1.9097,-1.8934,-1.8563,-1.8344,-1.8181,-1.7293,-1.6506,-1.7158,-1.8325,-1.9832,-2.088,-2.0584,-2.0409,-2.0274,-2.0053,-1.9747,-1.9986,-1.9809,-1.9275,-1.9613,-1.9613,-1.8635,-1.8161,-1.8161,-1.8106,-1.8096,-1.7901,-1.7976,-1.7891,-1.8049,-1.8181,-1.8059,-1.9667,-2.0687,-2.1006,-2.1863,-2.1979,-2.195,-2.1712,-2.087,-2.0682,-2.0553,-2.0296,-1.9611,-1.9597,-1.9827,-1.8572,-1.6785,-1.645,-1.6288,-1.0692,-0.6485,-0.6233,-0.5642,-0.0715,0.3543,0.5316,0.3857,-0.1877,-0.6354,-0.7378,-0.5277,-0.1644,-2.0741,-2.0741,-2.0741,-2.0355,-1.9955,-2.1003,-2.1283,-2.1043,-2.0974,-2.0624,-2.0366,-2.0613,-2.0193,-1.9596,-1.9333,-1.887,-1.8593,-1.8103,-1.7755,-1.7092,-1.6678,-1.641,-1.6219,-1.6158,-1.6636,-1.6784,-1.7198,-1.7736,-1.7658,-1.8315,-1.8439,-1.8362,-1.8322,-1.8332,-1.8808,-1.9017,-1.9073,-1.8885,-1.8562,-1.8542,-1.8398,-1.8419,-1.8228,-1.7823,-1.7629,-1.7512,-1.6973,-1.6706,-1.6766,-1.6927,-1.6977,-1.7036,-1.7058,-1.6825,-1.6387,-1.6025,-1.5748,-1.4928,-1.4269,-1.3871,-1.5375,-1.6887,-1.7514,-1.7292,-1.6915,-1.6655,-1.6451,-1.6314,-1.6615,-1.6351,-1.5938,-1.6249,-1.5964,-1.5085,-1.4717,-1.4771,-1.4363,-1.4331,-1.3916,-1.3962,-1.3962,-1.4167,-1.4363,-1.4253,-1.4599,-1.5197,-1.5654,-1.6619,-1.7476,-1.7298,-1.687,-1.5813,-1.5016,-1.4594,-1.4414,-1.4238,-1.4426,-1.5041,-1.357,-1.1712,-1.066,-1.0051,-0.1969,0.3536,-0.1225,-0.171,0.8117,1.2843,1.0579,1.0349,0.9448,0.5578,0.2647,0.3293,0.5449,-2.0042,-2.0031,-2.0042,-1.9639,-1.9166,-1.9617,-1.989,-2.0031,-2.0042,-1.9987,-1.9901,-1.9781,-1.909,-1.8045,-1.7833,-1.7229,-1.628,-1.6009,-1.5869,-1.5666,-1.5446,-1.5384,-1.5384,-1.5455,-1.5525,-1.5604,-1.5877,-1.621,-1.5666,-1.5983,-1.6053,-1.5703,-1.5738,-1.5677,-1.5878,-1.607,-1.6417,-1.6582,-1.666,-1.6513,-1.6235,-1.6262,-1.6114,-1.5843,-1.5852,-1.5703,-1.5421,-1.5271,-1.4759,-1.4458,-1.403,-1.3621,-1.3273,-1.2931,-1.2858,-1.2698,-1.2684,-1.2458,-1.2311,-1.1957,-1.2178,-1.3042,-1.3092,-1.2917,-1.3186,-1.3338,-1.31,-1.297,-1.3107,-1.3078,-1.2968,-1.302,-1.3071,-1.243,-1.1844,-1.1525,-1.0972,-1.053,-0.9889,-0.9756,-0.9745,-0.9878,-1.0005,-1.0005,-1.0595,-1.0498,-1.0912,-1.0863,-1.1558,-1.1585,-1.0975,-0.9719,-0.8969,-0.837,-0.8379,-0.899,-0.8806,-0.9359,-0.8513,-0.6859,-0.5795,-0.4893,-0.0953,0.1053,-0.16,0.072,0.7466,1.0941,1.1532,1.1783,1.1002,1.1359,0.6488,0.6587,0.7762,-1.9166,-1.9166,-1.9034,-1.8586,-1.792,-1.755,-1.7745,-1.8452,-1.9153,-1.8873,-1.7385,-1.8213,-1.7588,-1.6289,-1.628,-1.6009,-1.5525,-1.5108,-1.4832,-1.4545,-1.425,-1.3897,-1.3897,-1.425,-1.4402,-1.4681,-1.4887,-1.4942,-1.5013,-1.472,-1.3988,-1.3757,-1.3469,-1.3121,-1.2903,-1.275,-1.3757,-1.4625,-1.4775,-1.4498,-1.4132,-1.4132,-1.3917,-1.37,-1.378,-1.3628,-1.3469,-1.3404,-1.3041,-1.2976,-1.2983,-1.2931,-1.2931,-1.181,-1.0902,-0.9412,-0.9185,-0.9039,-0.9115,-0.9185,-0.9336,-0.9412,-0.9412,-1.0237,-1.053,-1.0599,-1.0077,-1.0157,-1.0151,-1.037,-1.0215,-1.0129,-1.0049,-0.9606,-0.9165,-0.8774,-0.8303,-0.7778,-0.7198,-0.6965,-0.6885,-0.6885,-0.6885,-0.6946,-0.7421,-0.6707,-0.6409,-0.6457,-0.6522,-0.6775,-0.6554,-0.5407,-0.4865,-0.4865,-0.4167,-0.446,-0.3888,-0.3438,-0.3319,-0.2935,-0.1684,-0.0914,-0.0154,-0.0077,-0.0453,0.0903,0.4045,0.6751,0.9011,0.814,0.7624,0.978,1.1226,1.046,0.9901,-1.8027,-1.825,-1.8192,-1.7716,-1.695,-1.6237,-1.6167,-1.6751,-1.7672,-1.7209,-1.6035,-1.6245,-1.5824,-1.5108,-1.5029,-1.4816,-1.4466,-1.4042,-1.376,-1.3615,-1.3105,-1.3112,-1.3185,-1.3178,-1.3324,-1.3455,-1.3361,-1.3201,-1.3266,-1.2889,-1.2158,-1.1944,-1.1575,-1.1298,-1.1081,-1.1075,-1.1205,-1.2078,-1.259,-1.2538,-1.2318,-1.2098,-1.1736,-1.1434,-1.1514,-1.136,-1.0971,-1.0977,-1.0822,-1.0599,-1.045,-1.045,-1.0375,-0.9401,-0.8878,-0.76,-0.7524,-0.7528,-0.7604,-0.7528,-0.7222,-0.6839,-0.6524,-0.6736,-0.7571,-0.7947,-0.7808,-0.7897,-0.7888,-0.788,-0.7575,-0.7271,-0.6969,-0.6667,-0.6437,-0.6203,-0.5816,-0.5428,-0.5041,-0.473,-0.4653,-0.4655,-0.4653,-0.457,-0.4573,-0.4658,-0.4585,-0.4424,-0.4183,-0.3953,-0.3724,-0.2953,-0.2485,-0.2095,-0.1396,-0.1007,-0.1007,-0.1007,-0.101,-0.0234,0.1569,0.1726,0.1171,0.164,0.2262,0.3343,0.4092,0.4578,0.5879,0.5473,0.6468,0.8943,1.1069,1.1616,1.115,-1.6594,-1.7254,-1.7254,-1.6802,-1.6088,-1.5384,-1.4958,-1.484,-1.5547,-1.5539,-1.4942,-1.4348,-1.4101,-1.3954,-1.3962,-1.3688,-1.347,-1.3112,-1.2893,-1.282,-1.2599,-1.2452,-1.2298,-1.2599,-1.2063,-1.1626,-1.1471,-1.1446,-1.0553,-1.0248,-1.0243,-1.0185,-0.9948,-0.9728,-0.9502,-0.92,-0.9185,-0.918,-0.9777,-0.9938,-1.0093,-1.0104,-0.9954,-0.9492,-0.9261,-0.903,-0.8116,-0.7664,-0.7363,-0.7061,-0.6988,-0.7214,-0.7065,-0.7065,-0.6839,-0.6535,-0.6381,-0.6146,-0.6069,-0.5992,-0.5674,-0.5209,-0.459,-0.4276,-0.4812,-0.5502,-0.5588,-0.5511,-0.5502,-0.5425,-0.5271,-0.5118,-0.4892,-0.4663,-0.4431,-0.4044,-0.3501,-0.2957,-0.2333,-0.2022,-0.1787,-0.1787,-0.163,-0.1551,-0.1472,-0.2101,-0.2181,-0.1948,-0.1871,-0.1404,-0.1249,-0.0859,-0.1092,-0.0701,0.0467,0.0856,0.1012,0.1092,0.1093,0.1639,0.2893,0.2663,0.2042,0.2506,0.3044,0.3599,0.4215,0.4924,0.5622,0.6083,0.7226,0.8949,1.0375,1.1104,1.1692,-1.533,-1.548,-1.5392,-1.5171,-1.495,-1.4243,-1.3882,-1.3745,-1.3324,-1.355,-1.373,-1.3194,-1.2837,-1.2952,-1.3032,-1.2893,-1.2746,-1.2298,-1.2231,-1.1855,-1.1632,-1.1403,-1.0795,-1.0938,-1.0571,-1.0421,-1.0196,-0.9739,-0.9125,-0.8595,-0.8062,-0.7753,-0.7681,-0.7609,-0.7604,-0.7302,-0.7076,-0.6923,-0.6919,-0.7291,-0.7592,-0.7672,-0.7524,-0.752,-0.7367,-0.7367,-0.6912,-0.6912,-0.6912,-0.6839,-0.6839,-0.6535,-0.6005,-0.5925,-0.5538,-0.5076,-0.4999,-0.4761,-0.437,-0.4215,-0.3822,-0.3196,-0.2653,-0.2421,-0.2575,-0.2963,-0.3195,-0.3117,-0.3117,-0.3117,-0.3039,-0.2961,-0.2884,-0.273,-0.2496,-0.1953,-0.133,-0.0625,0.0156,0.0469,0.0781,0.1015,0.1092,0.1325,0.1481,0.1481,0.148,0.1481,0.1091,0.117,0.0624,0.0624,-0.0312,0.0078,0.164,0.2577,0.2653,0.3119,0.3352,0.382,0.429,0.3828,0.3365,0.327,0.3575,0.4288,0.5076,0.6009,0.6626,0.67,0.7456,0.8964,0.8666,0.8997,1.0281,-1.4466,-1.4681,-1.4314,-1.4099,-1.3962,-1.331,-1.2959,-1.2886,-1.2519,-1.2372,-1.2505,-1.2285,-1.2218,-1.2003,-1.2077,-1.1842,-1.1694,-1.1465,-1.1093,-1.0726,-1.0576,-1.0426,-0.997,-0.9432,-0.9205,-0.9054,-0.8214,-0.7685,-0.7452,-0.7149,-0.6538,-0.623,-0.5928,-0.5854,-0.5854,-0.5702,-0.5392,-0.5231,-0.4846,-0.4844,-0.53,-0.561,-0.6002,-0.6002,-0.5848,-0.577,-0.5461,-0.5461,-0.5461,-0.5458,-0.5384,-0.4996,-0.4535,-0.4382,-0.4146,-0.3759,-0.3446,-0.321,-0.274,-0.2349,-0.2035,-0.133,-0.1017,-0.1017,-0.0391,-0.0782,-0.125,-0.125,-0.1641,-0.1719,-0.1173,-0.1017,-0.1017,-0.086,-0.0783,-0.047,-0.0235,0.0078,0.047,0.0627,0.1018,0.1565,0.172,0.2106,0.2341,0.2419,0.281,0.2966,0.2968,0.3279,0.281,0.2418,0.1637,0.1794,0.3357,0.3984,0.4139,0.4686,0.5303,0.4993,0.4838,0.4919,0.4758,0.4897,0.5049,0.5214,0.6079,0.6934,0.6938,0.6861,0.7693,0.8827,0.8075,0.7702,0.9145,-1.3673,-1.4027,-1.3295,-1.3011,-1.2945,-1.2291,-1.1922,-1.2003,-1.2009,-1.1632,-1.1099,-1.1539,-1.1403,-1.1186,-1.0887,-1.0421,-1.019,-1.0415,-1.0115,-0.9583,-0.9508,-0.8827,-0.8595,-0.8443,-0.7833,-0.7149,-0.6461,-0.5844,-0.5458,-0.5309,-0.5309,-0.5231,-0.5231,-0.5154,-0.5082,-0.4696,-0.4229,-0.3915,-0.3526,-0.3057,-0.3446,-0.4144,-0.4538,-0.4621,-0.4467,-0.4233,-0.3921,-0.3765,-0.3765,-0.3524,-0.3521,-0.313,-0.2974,-0.2741,-0.2585,-0.235,-0.2272,-0.188,-0.1488,-0.1331,-0.0627,0.0,0.0157,0.0549,0.1099,0.102,0.0549,0.0235,-0.0157,-0.0157,0.0392,0.0628,0.0628,0.0628,0.0628,0.0706,0.0706,0.0863,0.102,0.102,0.1646,0.2194,0.2738,0.3125,0.3359,0.3435,0.3437,0.3515,0.3671,0.4292,0.437,0.4445,0.4208,0.4681,0.5082,0.5389,0.5464,0.5999,0.6384,0.5848,0.5696,0.6461,0.6923,0.6853,0.693,0.6927,0.708,0.7706,0.748,0.7322,0.8161,0.9069,0.8618,0.8389,0.8908,-1.2218,-1.1694,-1.0938,-1.0634,-1.0565,-1.0421,-1.0346,-1.0426,-1.083,-1.0686,-1.0121,-0.9782,-0.9782,-1.0121,-1.0121,-0.9739,-0.9281,-0.9352,-0.8822,-0.8291,-0.7829,-0.6992,-0.6458,-0.6451,-0.5844,-0.5384,-0.4999,-0.4691,-0.4224,-0.3912,-0.3602,-0.3366,-0.3288,-0.321,-0.3212,-0.2979,-0.2978,-0.2743,-0.2586,-0.2273,-0.2353,-0.2899,-0.3137,-0.3295,-0.3374,-0.353,-0.3608,-0.3374,-0.2978,-0.2427,-0.1878,-0.1488,-0.1332,-0.1332,-0.1175,-0.1176,-0.1097,-0.0627,-0.0313,-0.0157,0.0549,0.1256,0.1334,0.1413,0.1806,0.1805,0.1491,0.1491,0.1176,0.1098,0.1412,0.1569,0.1569,0.1491,0.1412,0.1412,0.1491,0.1882,0.2194,0.2584,0.3052,0.3752,0.453,0.4841,0.5074,0.5154,0.5309,0.5309,0.5231,0.5544,0.5854,0.6009,0.624,0.5938,0.5634,0.6472,0.6853,0.7314,0.754,0.7157,0.7464,0.8841,0.9079,0.8089,0.8399,0.8699,0.8856,0.8399,0.8699,0.8694,0.9008,0.9392,0.9008,0.8851,0.9221]},{"header":{"parameterUnit":"m.s-1","parameterCategory":1,"la1":31.0,"la2":29.5877,"lo1":-88.7671,"lo2":-86.6584,"dy":0.0162,"dx":0.0185,"nx":115,"ny":88,"refTime":"2023-10-05T06:00:00:Z","depth":0,"parameterNumber":3,"parameterNumberName":"V-component_of_WINDS"},"data":[0.0,0.0,0.0,0.0,0.0,0.0,0.0,0.0,0.0,0.0,0.0,0.0,0.0,0.0,0.0,0.0,0.0,0.0,0.0,0.0,0.0,0.0,0.0,0.0,0.0,0.0,0.0,0.0,0.0,0.0,0.0,0.0,0.0,0.0,0.0,0.0,0.0,0.0,0.0,0.0,0.0,0.0,0.0,0.0,0.0,0.0,0.0,0.0,0.0,0.0,0.0,0.0,0.0,0.0,0.0,0.0,0.0,0.0,0.0,0.0,0.0,0.0,0.0,0.0,0.0,0.0,0.0,0.0,0.0,0.0,0.0,0.0,0.0,0.0,0.0,0.0,0.0,0.0,0.0,0.0,0.0,0.0,0.0,0.0,0.0,0.0,0.0,0.0,0.0,0.0,0.0,0.0,0.0,0.0,0.0,0.0,0.0,0.0,0.0,0.0,0.0,0.0,0.0,0.0,0.0,0.0,0.0,0.0,0.0,0.0,0.0,0.0,0.0,0.0,0.0,0.0,0.0,0.0,0.0,0.0,0.0,0.0,0.0,0.0,0.0,0.0,0.0,0.0,0.0,0.0,0.0,0.0,0.0,0.0,0.0,0.0,0.0,0.0,0.0,0.0,0.0,0.0,0.0,0.0,0.0,0.0,0.0,0.0,0.0,0.0,0.0,0.0,0.0,0.0,0.0,0.0,0.0,0.0,0.0,0.0,0.0,0.0,0.0,0.0,0.0,0.0,0.0,0.0,0.0,0.0,0.0,0.0,0.0,0.0,0.0,0.0,0.0,0.0,0.0,0.0,0.0,0.0,0.0,0.0,0.0,0.0,0.0,0.0,0.0,0.0,0.0,0.0,0.0,0.0,0.0,0.0,0.0,0.0,0.0,0.0,0.0,0.0,0.0,0.0,0.0,0.0,0.0,0.0,0.0,0.0,0.0,0.0,0.0,0.0,0.0,0.0,0.0,0.0,0.0,0.0,0.0,0.0,0.0,0.0,0.0,0.0,0.0,0.0,0.0,0.0,0.0,0.0,0.0,0.0,0.0,0.0,0.0,0.0,0.0,0.0,0.0,0.0,0.0,0.0,0.0,0.0,0.0,0.0,0.0,0.0,0.0,0.0,0.0,0.0,0.0,0.0,0.0,0.0,0.0,0.0,0.0,0.0,0.0,0.0,0.0,0.0,0.0,0.0,0.0,0.0,0.0,0.0,0.0,0.0,0.0,0.0,0.0,0.0,0.0,0.0,0.0,0.0,0.0,0.0,0.0,0.0,0.0,0.0,0.0,0.0,0.0,0.0,0.0,0.0,0.0,0.0,0.0,0.0,0.0,0.0,0.0,0.0,0.0,0.0,0.0,0.0,0.0,0.0,0.0,0.0,0.0,0.0,0.0,0.0,0.0,0.0,0.0,0.0,0.0,0.0,0.0,0.0,0.0,0.0,0.0,0.0,0.0,0.0,0.0,0.0,0.0,0.0,0.0,0.0,0.0,0.0,0.0,0.0,0.0,0.0,0.0,0.0,0.0,0.0,0.0,0.0,0.0,0.0,0.0,0.0,0.0,0.0,0.0,0.0,0.0,0.0,0.0,0.0,0.0,0.0,0.0,0.0,0.0,0.0,0.0,0.0,0.0,0.0,0.0,0.0,0.0,0.0,0.0,0.0,0.0,0.0,0.0,0.0,0.0,0.0,0.0,0.0,0.0,0.0,0.0,0.0,0.0,0.0,0.0,0.0,0.0,0.0,0.0,0.0,0.0,0.0,0.0,0.0,0.0,0.0,0.0,0.0,0.0,0.0,0.0,0.0,0.0,0.0,0.0,0.0,0.0,0.0,0.0,0.0,0.0,0.0,0.0,0.0,0.0,0.0,0.0,0.0,0.0,0.0,0.0,0.0,0.0,0.0,0.0,0.0,0.0,0.0,0.0,0.0,0.0,0.0,0.0,0.0,0.0,0.0,0.0,0.0,0.0,0.0,0.0,0.0,0.0,0.0,0.0,0.0,0.0,0.0,0.0,0.0,0.0,0.0,0.0,0.0,0.0,0.0,0.0,0.0,0.0,0.0,0.0,0.0,0.0,0.0,0.0,0.0,0.0,0.0,0.0,0.0,0.0,0.0,0.0,0.0,0.0,0.0,0.0,0.0,0.0,0.0,0.0,0.0,0.0,0.0,0.0,0.0,0.0,0.0,0.0,0.0,0.0,0.0,0.0,0.0,0.0,0.0,0.0,0.0,0.0,0.0,0.0,0.0,0.0,0.0,0.0,0.0,0.0,0.0,0.0,0.0,0.0,0.0,0.0,0.0,0.0,0.0,0.0,0.0,0.0,0.0,0.0,0.0,0.0,0.0,0.0,0.0,0.0,0.0,0.0,0.0,0.0,0.0,0.0,0.0,0.0,0.0,0.0,0.0,0.0,0.0,0.0,0.0,0.0,0.0,0.0,0.0,0.0,0.0,0.0,0.0,0.0,0.0,0.0,0.0,0.0,0.0,0.0,0.0,0.0,0.0,0.0,0.0,0.0,0.0,0.0,0.0,0.0,0.0,0.0,0.0,0.0,0.0,0.0,0.0,0.0,0.0,0.0,0.0,0.0,0.0,0.0,0.0,0.0,0.0,0.0,0.0,0.0,0.0,0.0,0.0,0.0,0.0,0.0,0.0,0.0,0.0,0.0,0.0,0.0,0.0,0.0,0.0,0.0,0.0,0.0,0.0,0.0,0.0,0.0,0.0,0.0,0.0,0.0,0.0,0.0,0.0,0.0,0.0,0.0,0.0,0.0,0.0,0.0,0.0,0.0,0.0,0.0,0.0,0.0,0.0,0.0,0.0,0.0,0.0,0.0,0.0,0.0,0.0,0.0,0.0,0.0,0.0,0.0,0.0,0.0,0.0,0.0,0.0,0.0,0.0,0.0,0.0,0.0,0.0,0.0,0.0,0.0,0.0,0.0,0.0,0.0,0.0,0.0,0.0,0.0,0.0,0.0,0.0,0.0,0.0,0.0,0.0,0.0,0.0,0.0,0.0,0.0,0.0,0.0,0.0,0.0,0.0,0.0,0.0,0.0,0.0,0.0,0.0,0.0,0.0,0.0,0.0,0.0,0.0,0.0,0.0,0.0,0.0,0.0,0.0,0.0,0.0,0.0,0.0,0.0,0.0,0.0,0.0,0.0,0.0,0.0,0.0,0.0,0.0,0.0,0.0,0.0,0.0,0.0,0.0,0.0,0.0,0.0,0.0,0.0,0.0,0.0,0.0,0.0,0.0,0.0,0.0,0.0,0.0,0.0,0.0,0.0,0.0,0.0,0.0,0.0,0.0,0.0,0.0,0.0,0.0,0.0,0.0,0.0,0.0,0.0,0.0,0.0,0.0,0.0,0.0,0.0,0.0,0.0,0.0,0.0,0.0,0.0,0.0,0.0,0.0,0.0,0.0,0.0,0.0,0.0,0.0,0.0,0.0,0.0,0.0,0.0,0.0,0.0,0.0,0.0,0.0,0.0,0.0,0.0,0.0,0.0,0.0,0.0,0.0,0.0,0.0,0.0,0.0,0.0,0.0,0.0,0.0,0.0,0.0,0.0,0.0,0.0,0.0,0.0,0.0,0.0,0.0,0.0,0.0,0.0,0.0,0.0,0.0,0.0,0.0,0.0,0.0,0.0,0.0,0.0,0.0,0.0,0.0,0.0,0.0,0.0,0.0,0.0,0.0,0.0,0.0,0.0,0.0,0.0,0.0,0.0,0.0,0.0,0.0,0.0,0.0,0.0,0.0,0.0,0.0,0.0,0.0,0.0,0.0,0.0,0.0,0.0,0.0,0.0,0.0,0.0,0.0,0.0,0.0,0.0,0.0,0.0,0.0,0.0,0.0,0.0,0.0,0.0,0.0,0.0,0.0,0.0,0.0,0.0,0.0,0.0,0.0,0.0,0.0,0.0,0.0,0.0,0.0,0.0,0.0,0.0,0.0,0.0,0.0,0.0,0.0,0.0,0.0,0.0,0.0,0.0,0.0,0.0,0.0,0.0,0.0,0.0,0.0,0.0,0.0,0.0,0.0,0.0,0.0,0.0,0.0,0.0,0.0,0.0,0.0,0.0,0.0,0.0,0.0,0.0,0.0,0.0,0.0,0.0,0.0,0.0,0.0,0.0,0.0,0.0,0.0,0.0,0.0,0.0,0.0,0.0,0.0,0.0,0.0,0.0,0.0,0.0,0.0,0.0,0.0,0.0,0.0,0.0,0.0,0.0,0.0,0.0,0.0,0.0,0.0,0.0,0.0,0.0,0.0,0.0,0.0,-2.1897,0.0,0.0,0.0,0.0,0.0,0.0,0.0,0.0,0.0,0.0,0.0,0.0,0.0,0.0,0.0,0.0,0.0,0.0,0.0,0.0,0.0,0.0,0.0,0.0,0.0,0.0,0.0,0.0,0.0,0.0,0.0,0.0,0.0,0.0,0.0,0.0,0.0,0.0,0.0,0.0,0.0,0.0,0.0,0.0,0.0,0.0,0.0,0.0,0.0,0.0,0.0,0.0,0.0,0.0,0.0,0.0,0.0,0.0,0.0,0.0,0.0,0.0,0.0,0.0,0.0,0.0,0.0,0.0,0.0,0.0,0.0,0.0,0.0,0.0,0.0,0.0,0.0,0.0,0.0,0.0,0.0,0.0,0.0,0.0,0.0,0.0,0.0,0.0,0.0,0.0,0.0,0.0,0.0,0.0,0.0,0.0,0.0,0.0,0.0,0.0,0.0,0.0,0.0,0.0,0.0,0.0,0.0,0.0,0.0,0.0,-1.8461,-1.9125,-1.9413,-2.0256,-2.1756,0.0,0.0,0.0,0.0,0.0,0.0,0.0,0.0,0.0,0.0,0.0,0.0,0.0,0.0,0.0,0.0,0.0,0.0,0.0,0.0,0.0,0.0,0.0,0.0,0.0,0.0,0.0,0.0,0.0,0.0,0.0,0.0,0.0,0.0,0.0,0.0,0.0,0.0,0.0,0.0,0.0,0.0,0.0,0.0,0.0,0.0,0.0,0.0,0.0,0.0,0.0,0.0,0.0,0.0,0.0,0.0,0.0,0.0,0.0,0.0,0.0,0.0,0.0,0.0,0.0,0.0,0.0,0.0,0.0,0.0,0.0,0.0,0.0,0.0,0.0,0.0,0.0,0.0,0.0,0.0,0.0,0.0,0.0,0.0,0.0,0.0,0.0,0.0,0.0,0.0,0.0,0.0,0.0,0.0,0.0,0.0,0.0,0.0,0.0,0.0,0.0,0.0,0.0,0.0,0.0,0.0,0.0,0.0,0.0,0.0,0.0,0.0,-1.8718,-1.9806,-2.1983,0.0,0.0,0.0,0.0,0.0,0.0,0.0,0.0,0.0,0.0,0.0,0.0,0.0,0.0,0.0,0.0,0.0,0.0,0.0,0.0,0.0,0.0,0.0,0.0,0.0,0.0,0.0,0.0,0.0,0.0,0.0,0.0,0.0,0.0,0.0,0.0,0.0,0.0,0.0,0.0,0.0,0.0,0.0,0.0,0.0,0.0,0.0,0.0,0.0,0.0,0.0,0.0,0.0,0.0,0.0,0.0,0.0,0.0,0.0,0.0,0.0,0.0,0.0,0.0,0.0,0.0,0.0,0.0,0.0,0.0,0.0,0.0,0.0,0.0,0.0,0.0,0.0,0.0,0.0,0.0,0.0,0.0,0.0,0.0,0.0,0.0,0.0,0.0,0.0,0.0,0.0,0.0,0.0,0.0,0.0,0.0,0.0,0.0,0.0,0.0,0.0,0.0,0.0,0.0,0.0,0.0,0.0,0.0,0.0,0.0,-1.6862,-1.8877,-1.8221,0.0,-2.2638,0.0,0.0,0.0,0.0,0.0,0.0,0.0,0.0,0.0,0.0,0.0,0.0,0.0,0.0,0.0,0.0,0.0,0.0,0.0,0.0,0.0,0.0,0.0,0.0,0.0,0.0,0.0,0.0,0.0,0.0,0.0,0.0,0.0,0.0,0.0,0.0,0.0,0.0,0.0,0.0,0.0,0.0,0.0,0.0,0.0,0.0,0.0,0.0,0.0,0.0,0.0,0.0,0.0,0.0,0.0,0.0,0.0,0.0,0.0,0.0,0.0,0.0,0.0,0.0,0.0,0.0,0.0,0.0,0.0,0.0,0.0,0.0,0.0,0.0,0.0,0.0,0.0,0.0,0.0,0.0,0.0,0.0,0.0,0.0,0.0,0.0,0.0,0.0,0.0,0.0,0.0,0.0,0.0,0.0,0.0,0.0,0.0,0.0,0.0,0.0,0.0,0.0,0.0,0.0,0.0,0.0,0.0,0.0,0.0,0.0,-1.6057,-1.7432,-1.8238,-1.9806,0.0,0.0,0.0,0.0,0.0,0.0,0.0,0.0,0.0,0.0,0.0,0.0,0.0,0.0,0.0,0.0,0.0,0.0,0.0,0.0,0.0,0.0,0.0,0.0,0.0,0.0,0.0,0.0,0.0,0.0,0.0,0.0,0.0,0.0,0.0,0.0,0.0,0.0,0.0,0.0,0.0,0.0,0.0,0.0,0.0,0.0,0.0,0.0,0.0,0.0,0.0,0.0,0.0,0.0,0.0,0.0,0.0,0.0,0.0,0.0,0.0,0.0,0.0,0.0,0.0,0.0,0.0,0.0,0.0,0.0,0.0,0.0,0.0,0.0,0.0,0.0,0.0,0.0,0.0,0.0,0.0,0.0,0.0,0.0,0.0,0.0,0.0,0.0,0.0,0.0,0.0,0.0,0.0,0.0,0.0,0.0,0.0,0.0,0.0,0.0,0.0,0.0,0.0,0.0,0.0,0.0,0.0,0.0,0.0,0.0,-1.5006,-1.5658,-1.6796,-1.8416,-2.007,-2.1756,0.0,0.0,0.0,0.0,0.0,0.0,0.0,0.0,0.0,0.0,0.0,0.0,0.0,0.0,0.0,0.0,0.0,0.0,0.0,0.0,0.0,0.0,0.0,0.0,0.0,0.0,0.0,0.0,0.0,0.0,0.0,0.0,0.0,0.0,0.0,0.0,0.0,0.0,0.0,0.0,0.0,0.0,0.0,0.0,0.0,0.0,0.0,0.0,0.0,0.0,0.0,0.0,0.0,0.0,0.0,0.0,0.0,0.0,0.0,0.0,0.0,0.0,0.0,0.0,0.0,0.0,0.0,0.0,0.0,0.0,0.0,0.0,0.0,0.0,0.0,0.0,0.0,0.0,0.0,0.0,0.0,0.0,0.0,0.0,0.0,0.0,0.0,0.0,0.0,0.0,0.0,0.0,0.0,0.0,0.0,0.0,0.0,0.0,0.0,0.0,0.0,0.0,0.0,0.0,0.0,0.0,0.0,0.0,-1.509,-1.509,-1.5982,-1.7836,-1.8816,-2.007,0.0,0.0,0.0,0.0,0.0,0.0,0.0,0.0,0.0,0.0,0.0,0.0,0.0,0.0,0.0,0.0,0.0,0.0,0.0,0.0,0.0,0.0,0.0,0.0,0.0,0.0,0.0,0.0,0.0,0.0,0.0,0.0,0.0,0.0,0.0,0.0,0.0,0.0,0.0,0.0,0.0,0.0,0.0,0.0,0.0,0.0,0.0,0.0,0.0,0.0,0.0,0.0,0.0,0.0,0.0,0.0,0.0,0.0,0.0,0.0,0.0,0.0,0.0,0.0,0.0,0.0,0.0,0.0,0.0,0.0,0.0,0.0,0.0,0.0,0.0,0.0,0.0,0.0,0.0,0.0,0.0,0.0,0.0,0.0,0.0,0.0,0.0,0.0,0.0,0.0,0.0,0.0,0.0,0.0,0.0,0.0,0.0,0.0,0.0,0.0,0.0,0.0,0.0,0.0,0.0,0.0,0.0,0.0,0.0,-1.534,-1.5816,-1.6698,-1.7997,-1.8966,-2.0089,0.0,0.0,0.0,0.0,0.0,0.0,0.0,0.0,0.0,0.0,0.0,0.0,0.0,0.0,0.0,0.0,0.0,0.0,0.0,0.0,0.0,0.0,0.0,0.0,0.0,0.0,0.0,0.0,0.0,0.0,0.0,0.0,0.0,0.0,0.0,0.0,0.0,0.0,0.0,0.0,0.0,0.0,0.0,0.0,0.0,0.0,0.0,0.0,0.0,0.0,0.0,0.0,0.0,0.0,0.0,0.0,0.0,0.0,0.0,0.0,0.0,0.0,0.0,0.0,0.0,0.0,0.0,0.0,0.0,0.0,0.0,0.0,0.0,0.0,0.0,0.0,0.0,0.0,0.0,0.0,0.0,0.0,0.0,0.0,0.0,0.0,0.0,0.0,0.0,0.0,0.0,0.0,0.0,0.0,0.0,0.0,0.0,0.0,0.0,0.0,0.0,0.0,0.0,0.0,0.0,0.0,0.0,0.0,0.0,-1.5431,0.0,-1.6788,-1.7997,-1.8718,-1.9608,0.0,0.0,0.0,0.0,0.0,0.0,0.0,0.0,0.0,0.0,0.0,0.0,0.0,0.0,0.0,0.0,0.0,0.0,0.0,0.0,0.0,0.0,0.0,0.0,0.0,0.0,0.0,0.0,0.0,0.0,0.0,0.0,0.0,0.0,0.0,0.0,0.0,0.0,0.0,0.0,0.0,0.0,0.0,0.0,0.0,0.0,0.0,0.0,0.0,0.0,0.0,0.0,0.0,0.0,0.0,0.0,0.0,0.0,0.0,0.0,0.0,0.0,0.0,0.0,0.0,0.0,0.0,0.0,0.0,0.0,0.0,0.0,0.0,0.0,0.0,0.0,0.0,0.0,0.0,0.0,0.0,0.0,0.0,0.0,0.0,0.0,0.0,0.0,0.0,0.0,0.0,0.0,0.0,0.0,0.0,0.0,0.0,0.0,0.0,0.0,0.0,0.0,0.0,0.0,0.0,0.0,0.0,0.0,-1.5431,-1.5431,-1.5431,-1.6319,-1.7917,-1.8069,-1.8966,0.0,0.0,0.0,0.0,0.0,0.0,0.0,0.0,0.0,0.0,0.0,0.0,0.0,0.0,0.0,0.0,0.0,0.0,0.0,0.0,0.0,0.0,0.0,0.0,0.0,0.0,0.0,0.0,0.0,0.0,0.0,0.0,0.0,0.0,0.0,0.0,0.0,0.0,0.0,0.0,0.0,0.0,0.0,0.0,0.0,0.0,0.0,0.0,0.0,0.0,0.0,0.0,0.0,0.0,0.0,0.0,0.0,0.0,0.0,0.0,0.0,0.0,0.0,0.0,0.0,0.0,0.0,0.0,0.0,0.0,0.0,0.0,0.0,0.0,0.0,0.0,0.0,0.0,0.0,0.0,0.0,0.0,0.0,0.0,0.0,0.0,0.0,0.0,0.0,0.0,0.0,0.0,0.0,0.0,0.0,0.0,0.0,0.0,0.0,0.0,0.0,0.0,0.0,0.0,0.0,0.0,0.0,0.0,0.0,-1.5431,-1.5982,-1.687,-1.7989,-1.8868,-1.9913,0.0,0.0,0.0,0.0,0.0,0.0,0.0,0.0,0.0,0.0,0.0,0.0,0.0,0.0,0.0,0.0,0.0,0.0,0.0,0.0,0.0,0.0,0.0,0.0,0.0,0.0,0.0,0.0,0.0,0.0,0.0,0.0,0.0,0.0,0.0,0.0,0.0,0.0,0.0,0.0,0.0,0.0,0.0,0.0,0.0,0.0,0.0,0.0,0.0,0.0,0.0,0.0,0.0,0.0,0.0,0.0,0.0,0.0,0.0,0.0,0.0,0.0,0.0,0.0,0.0,0.0,0.0,0.0,0.0,0.0,0.0,0.0,0.0,0.0,0.0,0.0,0.0,0.0,0.0,0.0,0.0,0.0,0.0,0.0,0.0,0.0,0.0,0.0,0.0,0.0,0.0,0.0,0.0,0.0,0.0,0.0,0.0,0.0,0.0,0.0,0.0,0.0,0.0,0.0,0.0,0.0,0.0,0.0,0.0,-1.5431,-1.5906,-1.6624,-1.7513,-1.863,-1.9678,-2.0712,0.0,0.0,0.0,0.0,0.0,0.0,0.0,0.0,0.0,0.0,0.0,0.0,0.0,0.0,0.0,0.0,0.0,0.0,0.0,0.0,0.0,0.0,0.0,0.0,0.0,0.0,0.0,0.0,0.0,0.0,0.0,0.0,0.0,0.0,0.0,0.0,0.0,0.0,0.0,0.0,0.0,0.0,0.0,0.0,0.0,0.0,0.0,0.0,0.0,0.0,0.0,0.0,0.0,0.0,0.0,0.0,0.0,0.0,0.0,0.0,0.0,0.0,0.0,0.0,0.0,0.0,0.0,0.0,0.0,0.0,0.0,0.0,0.0,0.0,0.0,0.0,0.0,0.0,0.0,0.0,0.0,0.0,0.0,0.0,0.0,0.0,0.0,0.0,0.0,0.0,0.0,0.0,0.0,0.0,0.0,0.0,0.0,0.0,0.0,0.0,0.0,0.0,0.0,0.0,0.0,0.0,0.0,0.0,-1.5431,-1.5431,-1.5824,-1.678,-1.7594,-1.863,0.0,0.0,0.0,0.0,0.0,0.0,0.0,0.0,0.0,0.0,0.0,0.0,0.0,0.0,0.0,0.0,0.0,0.0,0.0,0.0,0.0,0.0,0.0,0.0,0.0,0.0,0.0,0.0,0.0,0.0,0.0,0.0,0.0,0.0,0.0,0.0,0.0,0.0,0.0,0.0,0.0,0.0,0.0,0.0,0.0,0.0,0.0,0.0,0.0,0.0,0.0,0.0,0.0,0.0,0.0,0.0,0.0,0.0,0.0,0.0,0.0,0.0,0.0,0.0,0.0,0.0,0.0,0.0,0.0,0.0,0.0,0.0,0.0,0.0,0.0,0.0,0.0,0.0,0.0,0.0,0.0,0.0,0.0,0.0,0.0,0.0,0.0,0.0,0.0,0.0,0.0,0.0,0.0,0.0,0.0,0.0,0.0,0.0,0.0,0.0,0.0,0.0,0.0,0.0,0.0,0.0,0.0,0.0,0.0,-1.5431,-1.5431,-1.6154,-1.7585,-1.8141,-1.9177,0.0,0.0,0.0,0.0,0.0,0.0,0.0,0.0,0.0,0.0,0.0,0.0,0.0,0.0,0.0,0.0,0.0,0.0,0.0,0.0,0.0,0.0,0.0,0.0,0.0,0.0,0.0,0.0,0.0,0.0,0.0,0.0,0.0,0.0,0.0,0.0,0.0,0.0,0.0,0.0,0.0,0.0,0.0,0.0,0.0,0.0,0.0,0.0,0.0,0.0,0.0,0.0,0.0,0.0,0.0,0.0,0.0,0.0,0.0,0.0,0.0,0.0,0.0,0.0,0.0,0.0,0.0,0.0,0.0,0.0,0.0,0.0,0.0,0.0,0.0,0.0,0.0,0.0,0.0,0.0,0.0,0.0,0.0,0.0,0.0,0.0,0.0,0.0,0.0,0.0,0.0,0.0,0.0,0.0,0.0,0.0,0.0,0.0,0.0,0.0,0.0,0.0,0.0,0.0,0.0,0.0,0.0,0.0,-1.5431,-1.5431,-1.5431,-1.6237,-1.7997,-1.8221,-1.9256,0.0,0.0,0.0,0.0,0.0,0.0,0.0,0.0,0.0,0.0,0.0,0.0,0.0,0.0,0.0,0.0,0.0,0.0,0.0,0.0,0.0,0.0,0.0,0.0,0.0,0.0,0.0,0.0,0.0,0.0,0.0,0.0,0.0,0.0,0.0,0.0,0.0,0.0,0.0,0.0,0.0,0.0,0.0,0.0,0.0,0.0,0.0,0.0,0.0,0.0,0.0,0.0,0.0,0.0,0.0,0.0,0.0,0.0,0.0,0.0,0.0,0.0,0.0,0.0,0.0,0.0,0.0,0.0,0.0,0.0,0.0,0.0,0.0,0.0,0.0,0.0,0.0,0.0,0.0,0.0,0.0,0.0,0.0,0.0,0.0,0.0,0.0,0.0,0.0,0.0,0.0,0.0,0.0,0.0,0.0,0.0,0.0,0.0,0.0,0.0,0.0,0.0,0.0,0.0,0.0,0.0,0.0,0.0,-1.5431,-1.5431,-1.5514,-1.6312,-1.7917,-1.7997,-1.9009,0.0,0.0,0.0,0.0,0.0,0.0,0.0,0.0,0.0,0.0,0.0,0.0,0.0,0.0,0.0,0.0,0.0,0.0,0.0,0.0,0.0,0.0,0.0,0.0,0.0,0.0,0.0,0.0,0.0,0.0,0.0,0.0,0.0,0.0,0.0,0.0,0.0,0.0,0.0,0.0,0.0,0.0,0.0,0.0,0.0,0.0,0.0,0.0,0.0,0.0,0.0,0.0,0.0,0.0,0.0,0.0,0.0,0.0,0.0,0.0,0.0,0.0,0.0,0.0,0.0,0.0,0.0,0.0,0.0,0.0,0.0,0.0,0.0,0.0,0.0,0.0,0.0,0.0,0.0,0.0,0.0,0.0,0.0,0.0,0.0,0.0,0.0,0.0,0.0,0.0,0.0,0.0,0.0,0.0,0.0,0.0,0.0,0.0,0.0,0.0,0.0,0.0,0.0,0.0,0.0,0.0,0.0,0.0,-1.5431,-1.5423,-1.6064,-1.6944,-1.7997,-1.8141,-1.9474,0.0,0.0,0.0,0.0,0.0,0.0,0.0,0.0,0.0,0.0,0.0,0.0,0.0,0.0,0.0,0.0,0.0,0.0,0.0,0.0,0.0,0.0,0.0,0.0,0.0,0.0,0.0,0.0,0.0,0.0,0.0,0.0,0.0,0.0,0.0,0.0,0.0,0.0,0.0,0.0,0.0,0.0,0.0,0.0,0.0,0.0,0.0,0.0,-1.9608,0.0,0.0,0.0,0.0,0.0,0.0,0.0,0.0,0.0,0.0,0.0,0.0,0.0,0.0,0.0,0.0,0.0,0.0,0.0,0.0,0.0,0.0,0.0,0.0,0.0,0.0,0.0,0.0,0.0,0.0,0.0,0.0,0.0,0.0,0.0,0.0,0.0,0.0,0.0,0.0,0.0,0.0,0.0,0.0,0.0,0.0,0.0,0.0,0.0,0.0,0.0,0.0,0.0,0.0,0.0,0.0,0.0,0.0,0.0,-1.5431,-1.5431,-1.6221,-1.7098,-1.7989,-1.8479,-1.9885,0.0,0.0,0.0,0.0,0.0,0.0,0.0,0.0,0.0,0.0,0.0,0.0,0.0,0.0,0.0,0.0,0.0,0.0,0.0,0.0,0.0,0.0,0.0,0.0,0.0,0.0,0.0,0.0,0.0,0.0,0.0,0.0,0.0,0.0,0.0,0.0,0.0,0.0,0.0,0.0,0.0,0.0,0.0,0.0,0.0,0.0,0.0,0.0,0.0,0.0,0.0,0.0,0.0,0.0,0.0,0.0,0.0,0.0,0.0,0.0,0.0,0.0,0.0,0.0,0.0,0.0,0.0,0.0,0.0,0.0,0.0,0.0,0.0,0.0,0.0,0.0,0.0,0.0,0.0,0.0,0.0,0.0,0.0,0.0,0.0,0.0,0.0,0.0,0.0,0.0,0.0,0.0,0.0,0.0,0.0,0.0,0.0,0.0,0.0,0.0,0.0,0.0,0.0,0.0,0.0,0.0,0.0,-1.5431,-1.5506,-1.5673,-1.646,-1.7342,-1.8158,-1.9045,-2.0382,-2.2349,0.0,0.0,0.0,0.0,0.0,0.0,0.0,0.0,0.0,0.0,0.0,0.0,0.0,0.0,0.0,0.0,0.0,0.0,0.0,0.0,0.0,0.0,0.0,0.0,0.0,0.0,0.0,0.0,0.0,0.0,0.0,0.0,0.0,0.0,0.0,0.0,0.0,0.0,-1.6624,-1.5824,0.0,0.0,0.0,0.0,0.0,0.0,0.0,0.0,-2.0411,0.0,0.0,0.0,0.0,0.0,0.0,0.0,0.0,0.0,0.0,0.0,0.0,0.0,0.0,0.0,0.0,0.0,0.0,0.0,0.0,0.0,0.0,0.0,0.0,0.0,0.0,0.0,0.0,0.0,0.0,0.0,0.0,0.0,0.0,0.0,0.0,0.0,0.0,0.0,0.0,0.0,0.0,0.0,0.0,0.0,0.0,0.0,0.0,0.0,0.0,0.0,0.0,0.0,0.0,0.0,0.0,-1.5431,-1.5431,-1.5748,-1.646,-1.735,-1.8167,-1.9054,-1.9932,-2.1011,-2.2349,0.0,0.0,0.0,0.0,0.0,0.0,0.0,0.0,0.0,0.0,0.0,0.0,0.0,0.0,0.0,0.0,0.0,0.0,0.0,0.0,0.0,0.0,0.0,0.0,0.0,0.0,0.0,0.0,0.0,0.0,0.0,0.0,0.0,0.0,0.0,0.0,0.0,0.0,0.0,-1.5423,-1.5347,0.0,0.0,0.0,0.0,0.0,0.0,0.0,0.0,-1.9775,0.0,0.0,0.0,0.0,0.0,0.0,0.0,0.0,0.0,0.0,0.0,0.0,0.0,0.0,0.0,0.0,0.0,0.0,0.0,0.0,0.0,0.0,0.0,0.0,0.0,0.0,0.0,0.0,0.0,0.0,0.0,0.0,0.0,0.0,0.0,0.0,0.0,0.0,0.0,0.0,0.0,0.0,0.0,0.0,0.0,0.0,0.0,0.0,0.0,0.0,0.0,0.0,0.0,0.0,0.0,-1.5431,-1.5431,-1.5824,-1.6698,-1.7513,-1.8407,-1.9301,-2.0167,-2.1385,0.0,0.0,0.0,0.0,0.0,0.0,0.0,0.0,0.0,0.0,0.0,0.0,0.0,0.0,0.0,0.0,0.0,0.0,0.0,0.0,0.0,0.0,0.0,0.0,0.0,0.0,0.0,0.0,0.0,0.0,0.0,0.0,0.0,0.0,0.0,0.0,0.0,0.0,0.0,0.0,-1.534,-1.5347,-1.5257,0.0,0.0,0.0,0.0,0.0,0.0,-1.9618,-1.9618,0.0,0.0,0.0,0.0,0.0,0.0,0.0,0.0,0.0,0.0,0.0,0.0,0.0,0.0,0.0,0.0,0.0,0.0,0.0,0.0,0.0,0.0,0.0,0.0,0.0,0.0,0.0,0.0,0.0,0.0,0.0,0.0,0.0,0.0,0.0,0.0,0.0,0.0,0.0,0.0,0.0,0.0,0.0,0.0,0.0,0.0,0.0,0.0,0.0,0.0,0.0,0.0,0.0,0.0,0.0,-1.5431,-1.5431,-1.5906,-1.6944,-1.7674,-1.8479,-1.9529,-2.0255,-2.1451,0.0,0.0,0.0,0.0,0.0,0.0,0.0,0.0,0.0,0.0,0.0,0.0,0.0,0.0,0.0,0.0,0.0,0.0,0.0,0.0,0.0,0.0,0.0,0.0,0.0,0.0,0.0,0.0,0.0,0.0,0.0,0.0,0.0,0.0,0.0,0.0,0.0,0.0,0.0,0.0,0.0,-1.5431,-1.5431,-1.5506,0.0,0.0,0.0,0.0,-2.001,-1.9775,0.0,0.0,0.0,0.0,0.0,0.0,0.0,0.0,0.0,0.0,0.0,0.0,0.0,0.0,0.0,0.0,0.0,0.0,0.0,0.0,0.0,0.0,0.0,0.0,0.0,0.0,0.0,0.0,0.0,0.0,0.0,0.0,0.0,0.0,0.0,0.0,0.0,0.0,0.0,0.0,0.0,0.0,0.0,0.0,0.0,0.0,0.0,0.0,0.0,0.0,0.0,0.0,0.0,0.0,0.0,0.0,-1.5431,-1.5431,-1.6147,-1.7755,-1.7917,-1.8807,-2.0411,-2.0566,-2.1451,0.0,0.0,0.0,0.0,0.0,0.0,0.0,0.0,0.0,0.0,0.0,0.0,0.0,0.0,0.0,0.0,0.0,0.0,0.0,0.0,0.0,0.0,0.0,0.0,0.0,0.0,0.0,0.0,0.0,0.0,0.0,0.0,0.0,0.0,0.0,0.0,0.0,0.0,0.0,0.0,0.0,-1.5431,-1.5431,-1.6057,-1.6617,0.0,0.0,-1.8238,-1.9292,-1.9381,0.0,0.0,0.0,0.0,0.0,0.0,0.0,0.0,0.0,0.0,0.0,0.0,0.0,0.0,0.0,0.0,0.0,0.0,0.0,0.0,0.0,0.0,0.0,0.0,0.0,0.0,0.0,0.0,0.0,0.0,0.0,0.0,0.0,0.0,0.0,0.0,0.0,0.0,0.0,0.0,0.0,0.0,0.0,0.0,0.0,0.0,0.0,0.0,0.0,0.0,0.0,0.0,0.0,0.0,0.0,-1.5431,-1.5431,-1.5431,-1.5989,-1.7269,-1.7747,-1.8559,-1.9863,-2.0333,-2.1375,0.0,0.0,0.0,0.0,0.0,0.0,0.0,0.0,0.0,0.0,0.0,0.0,0.0,0.0,0.0,0.0,0.0,0.0,0.0,0.0,0.0,0.0,0.0,0.0,0.0,0.0,0.0,0.0,0.0,0.0,0.0,0.0,0.0,0.0,0.0,0.0,0.0,0.0,0.0,0.0,0.0,0.0,-1.5431,-1.6139,0.0,0.0,0.0,-1.847,-1.9854,0.0,0.0,0.0,0.0,0.0,0.0,0.0,0.0,0.0,0.0,0.0,0.0,0.0,0.0,0.0,0.0,0.0,0.0,0.0,0.0,0.0,0.0,0.0,0.0,0.0,0.0,0.0,0.0,0.0,0.0,0.0,0.0,0.0,0.0,0.0,0.0,0.0,0.0,0.0,0.0,0.0,0.0,0.0,0.0,0.0,0.0,0.0,0.0,0.0,0.0,0.0,0.0,0.0,0.0,0.0,0.0,0.0,-1.5741,-1.5506,-1.5824,-1.6706,-1.7504,-1.8399,-1.9301,-2.0177,0.0,0.0,0.0,0.0,0.0,0.0,0.0,0.0,0.0,0.0,0.0,0.0,0.0,0.0,0.0,0.0,0.0,0.0,0.0,0.0,0.0,0.0,0.0,0.0,0.0,0.0,0.0,-2.1461,0.0,0.0,0.0,0.0,0.0,0.0,0.0,0.0,0.0,0.0,0.0,0.0,0.0,0.0,-1.5431,-1.5431,-1.6304,-1.718,0.0,0.0,-1.9045,-2.0089,-1.9932,-1.9942,0.0,0.0,0.0,0.0,0.0,0.0,0.0,0.0,0.0,0.0,0.0,0.0,0.0,0.0,0.0,0.0,0.0,0.0,0.0,0.0,0.0,0.0,0.0,0.0,0.0,0.0,0.0,0.0,0.0,0.0,0.0,0.0,0.0,0.0,0.0,0.0,0.0,0.0,0.0,0.0,0.0,0.0,0.0,0.0,0.0,0.0,0.0,0.0,0.0,0.0,0.0,0.0,0.0,0.0,0.0,-1.6542,-1.5824,-1.5824,-1.6698,-1.7585,-1.8407,-1.9301,-2.0167,-2.1308,0.0,0.0,0.0,0.0,0.0,0.0,0.0,0.0,0.0,0.0,0.0,0.0,0.0,0.0,0.0,0.0,0.0,0.0,0.0,0.0,0.0,0.0,0.0,0.0,0.0,0.0,0.0,0.0,0.0,0.0,0.0,0.0,0.0,0.0,0.0,0.0,0.0,0.0,0.0,0.0,0.0,-1.5431,-1.5431,-1.6878,-1.7666,0.0,0.0,-2.0167,-1.9539,-2.001,-2.0654,-2.1128,0.0,0.0,0.0,0.0,0.0,0.0,0.0,0.0,0.0,0.0,0.0,0.0,0.0,0.0,0.0,0.0,0.0,0.0,0.0,0.0,0.0,0.0,0.0,0.0,0.0,0.0,0.0,0.0,0.0,0.0,0.0,0.0,0.0,0.0,0.0,0.0,0.0,0.0,0.0,0.0,0.0,0.0,0.0,0.0,0.0,0.0,0.0,0.0,0.0,0.0,0.0,0.0,0.0,-1.6386,-1.6698,-1.6378,-1.6386,-1.6698,-1.8078,-1.8975,-1.9292,-2.0177,-2.1088,0.0,0.0,0.0,0.0,0.0,0.0,0.0,0.0,0.0,0.0,0.0,0.0,0.0,0.0,0.0,0.0,0.0,0.0,0.0,0.0,0.0,0.0,0.0,0.0,0.0,0.0,0.0,0.0,-2.0576,-2.0576,-2.0576,0.0,0.0,0.0,0.0,0.0,0.0,0.0,0.0,0.0,0.0,-1.5989,-1.5506,-1.687,0.0,0.0,-1.9283,-2.0489,-2.0167,-2.0489,-2.0829,-2.0984,-2.1138,0.0,0.0,0.0,0.0,0.0,0.0,0.0,0.0,0.0,0.0,0.0,0.0,0.0,0.0,0.0,0.0,0.0,0.0,0.0,0.0,0.0,0.0,0.0,0.0,0.0,0.0,0.0,0.0,0.0,0.0,0.0,0.0,0.0,0.0,0.0,0.0,0.0,0.0,0.0,0.0,0.0,0.0,0.0,0.0,0.0,0.0,0.0,0.0,0.0,0.0,0.0,0.0,-1.6862,-1.7098,-1.6862,-1.6698,-1.6698,-1.8399,-1.9292,-1.9292,-2.0167,-2.0934,0.0,0.0,0.0,0.0,0.0,0.0,0.0,0.0,0.0,0.0,0.0,0.0,0.0,0.0,0.0,0.0,0.0,0.0,0.0,0.0,0.0,0.0,0.0,0.0,0.0,0.0,0.0,0.0,-2.0576,-2.0576,-2.0576,0.0,0.0,0.0,0.0,0.0,0.0,0.0,0.0,0.0,0.0,-1.678,-1.5906,-1.7277,-1.8407,-1.8479,-1.9766,-2.0644,-2.0654,-2.0819,-2.0906,-2.0906,0.0,0.0,0.0,0.0,0.0,0.0,0.0,0.0,0.0,0.0,0.0,0.0,0.0,0.0,0.0,0.0,0.0,0.0,0.0,0.0,0.0,0.0,0.0,0.0,0.0,0.0,0.0,0.0,0.0,0.0,-1.0009,0.0,0.0,0.0,0.0,0.0,0.0,0.0,0.0,0.0,0.0,0.0,0.0,0.0,0.0,0.0,0.0,0.0,0.0,0.0,0.0,0.0,0.0,-1.7107,-1.7917,-1.7098,-1.6698,-1.678,-1.8399,-1.9301,-1.9381,-2.0167,-2.0944,-2.1766,0.0,0.0,0.0,0.0,0.0,0.0,0.0,0.0,0.0,0.0,0.0,0.0,0.0,0.0,0.0,0.0,0.0,0.0,0.0,0.0,0.0,0.0,0.0,0.0,0.0,0.0,-2.0576,-2.0576,-2.0576,0.0,0.0,0.0,0.0,0.0,0.0,0.0,0.0,0.0,0.0,-1.7423,-1.7674,-1.678,-1.8158,-1.9292,-1.9529,-2.0342,-2.0906,-2.0896,-2.0906,-2.0906,0.0,0.0,0.0,0.0,0.0,0.0,0.0,0.0,0.0,0.0,0.0,0.0,0.0,0.0,0.0,0.0,0.0,0.0,0.0,0.0,0.0,0.0,0.0,0.0,0.0,0.0,0.0,-0.9139,-0.9666,0.0,0.0,0.0,0.0,0.0,0.0,0.0,0.0,0.0,0.0,0.0,-1.0356,-0.9666,0.0,0.0,0.0,0.0,0.0,0.0,0.0,0.0,0.0,0.0,0.0,0.0,-1.7496,-1.7747,-1.6944,-1.6788,-1.7334,-1.8638,-1.9618,-2.0167,-2.0401,-2.0944,-2.1756,0.0,0.0,0.0,0.0,0.0,0.0,0.0,0.0,0.0,0.0,0.0,0.0,0.0,0.0,0.0,0.0,0.0,0.0,0.0,0.0,0.0,0.0,0.0,0.0,0.0,-2.0576,0.0,0.0,0.0,0.0,0.0,0.0,0.0,0.0,0.0,0.0,0.0,-1.9766,-1.8567,-1.8647,-1.8559,-1.7674,-1.8567,-1.9301,0.0,0.0,0.0,0.0,0.0,0.0,0.0,0.0,0.0,0.0,0.0,0.0,0.0,0.0,-2.3209,-2.5581,-2.6025,-2.6094,-2.6452,0.0,0.0,0.0,0.0,0.0,0.0,0.0,0.0,0.0,0.0,0.0,0.0,0.0,0.0,-0.8009,0.0,-0.8711,0.0,0.0,0.0,0.0,0.0,0.0,0.0,0.0,-0.9318,-0.9056,-0.9139,-0.8536,-0.8794,0.0,-1.0351,-1.1128,0.0,0.0,0.0,0.0,0.0,0.0,0.0,0.0,-1.718,-1.709,-1.6632,-1.6788,-1.7658,-1.8727,-1.9696,-2.0566,-2.0576,-2.0867,-2.1395,-2.169,-2.2059,0.0,0.0,0.0,0.0,0.0,0.0,0.0,0.0,0.0,0.0,0.0,0.0,0.0,0.0,0.0,0.0,0.0,0.0,0.0,0.0,0.0,0.0,0.0,-2.0576,0.0,0.0,0.0,0.0,0.0,0.0,0.0,0.0,0.0,-2.0576,-2.0576,-2.0255,-1.9381,-1.9539,-1.946,-1.8559,0.0,0.0,0.0,0.0,0.0,0.0,0.0,-2.0906,-2.0819,-2.0896,-2.1118,-2.1405,-2.1118,-2.1456,-2.3367,0.0,0.0,-2.5499,-2.5955,-2.6094,-2.6452,-2.6521,-2.6521,-2.6521,-2.6521,-2.6521,0.0,0.0,0.0,0.0,0.0,0.0,0.0,0.0,-0.67,-0.6881,0.0,-0.7051,0.0,0.0,0.0,0.0,0.0,-0.9579,0.0,0.0,-0.7228,-0.7139,-0.7228,-0.7228,-0.7669,-0.8627,-0.9923,-1.1052,-1.2009,-1.2254,0.0,0.0,0.0,0.0,0.0,0.0,-1.6221,-1.6041,-1.6221,-1.678,-1.7577,-1.8647,-1.9687,-2.0566,-2.0576,-2.0644,-2.0644,-2.1308,-2.1766,-2.1907,-2.3231,0.0,0.0,0.0,0.0,0.0,0.0,0.0,0.0,0.0,0.0,0.0,0.0,0.0,0.0,0.0,0.0,0.0,0.0,0.0,0.0,-2.0576,0.0,0.0,0.0,0.0,0.0,0.0,0.0,0.0,0.0,0.0,-2.0576,-2.0576,-2.0323,-1.946,0.0,0.0,0.0,0.0,-2.0654,-2.0829,-2.0906,-2.0896,-2.0896,-2.0906,-2.0819,-2.0644,0.0,0.0,-2.1821,-2.1221,-2.1538,-2.4131,-2.3986,-2.3745,-2.4636,-2.5004,-2.5441,-2.6302,-2.6521,-2.6521,-2.6521,-2.6521,-2.6521,-0.6349,0.0,0.0,0.0,0.0,-0.6704,-0.6612,-0.6428,-0.67,-0.6792,-0.6792,-0.6884,0.0,0.0,0.0,0.0,0.0,0.0,-0.9575,-0.8364,-0.8193,-0.8101,-0.8105,-0.8101,-0.8711,-0.9749,-1.0183,-1.1042,-1.2163,-1.2242,-1.3014,-1.4398,0.0,0.0,0.0,0.0,-1.5869,-1.5786,-1.522,-1.5462,-1.6445,-1.7577,-1.8948,-2.0566,-2.0576,-2.0576,-2.0566,-2.0799,-2.1461,-2.2585,-2.2499,0.0,0.0,0.0,0.0,0.0,0.0,0.0,0.0,0.0,0.0,0.0,0.0,0.0,0.0,0.0,0.0,0.0,0.0,0.0,-2.0576,-2.0576,-2.0576,0.0,0.0,0.0,0.0,0.0,0.0,0.0,0.0,0.0,-2.0576,-2.0576,-2.0489,0.0,0.0,-2.0489,-2.0245,-2.0401,-2.0644,-2.0654,-2.0644,0.0,0.0,-2.0654,-2.0654,-2.0634,-2.0576,-2.0722,-2.0934,-2.1231,-2.1873,-2.326,-2.3847,-2.4409,-2.5158,-2.5734,-2.6164,-2.6452,-2.6521,-2.6521,-2.6521,-2.6521,-2.6521,-0.5638,-0.6169,-0.6343,-0.6343,-0.6343,-0.6523,-0.6523,-0.6343,-0.6615,-0.6792,-0.6792,-0.6881,-0.6966,-0.7139,-0.8105,0.0,0.0,0.0,-0.9323,-0.8715,-0.8544,-0.8715,-0.9061,-0.9061,-0.9666,-1.0794,-1.0971,-1.1655,-1.2851,-1.2942,-1.3457,-1.4237,0.0,0.0,-1.5228,-1.5213,-1.513,-1.5054,-1.4643,-1.4887,-1.5861,-1.7334,-1.8868,-2.0411,-2.0489,-2.0489,-2.0576,-2.0576,-2.1021,-2.1983,-2.1907,-2.2424,0.0,0.0,0.0,0.0,0.0,0.0,0.0,0.0,0.0,0.0,0.0,-2.4707,-2.412,0.0,0.0,0.0,-2.1088,-2.0576,-2.0576,-2.0576,0.0,0.0,0.0,0.0,0.0,0.0,0.0,-2.0576,-2.0576,-2.0576,-2.0576,-2.0576,-2.0576,-2.0576,-2.0576,-2.0576,-2.0576,0.0,-2.0576,-2.0576,-2.0576,-2.0576,-2.0576,-2.0576,-2.0576,-2.0576,-2.0576,-2.0712,-2.1088,-2.1461,-2.2166,-2.3216,-2.397,-2.4636,-2.5465,-2.5968,-2.6245,-2.6258,-2.6233,-2.6289,-2.6396,-2.6396,-2.6408,-0.4837,-0.5644,-0.6166,-0.6257,-0.6083,-0.6254,-0.6257,-0.6171,-0.6615,-0.6792,-0.6792,-0.7054,-0.7139,-0.7139,-0.8017,0.0,-0.8368,-0.8368,-0.8456,-0.8544,-0.8544,-0.9061,-1.0009,-1.0014,-1.0707,-1.1849,-1.2015,-1.2699,-1.3652,-1.3997,-1.4088,-1.4088,-1.4321,-1.4237,-1.4082,-1.4321,-1.4328,-1.4088,-1.4321,-1.4887,-1.5786,-1.7658,-1.9134,-2.0255,-2.0264,-2.042,-2.0566,-2.0576,-2.0644,-2.0789,-2.1461,-2.1907,-2.2134,0.0,0.0,0.0,0.0,0.0,0.0,0.0,0.0,0.0,0.0,0.0,0.0,0.0,0.0,0.0,-2.1011,0.0,-2.0576,-2.0576,0.0,0.0,0.0,-2.0576,-2.0576,-2.0576,-2.0576,-2.0576,0.0,0.0,-2.0576,-2.0576,-2.0576,-2.0576,-2.0576,-2.0576,-2.0576,-2.0576,-2.0576,-2.0576,-2.0576,-2.0576,-2.0576,-2.0576,-2.0576,-2.0576,-2.0576,-2.0867,-2.1461,-2.1907,-2.2499,-2.3661,-2.4253,-2.4707,-2.5453,-2.5758,-2.584,-2.584,-2.5861,-2.5988,-2.6188,-2.6201,-2.627,-0.4389,-0.4746,-0.5552,-0.5822,-0.5822,-0.6083,-0.6257,-0.6343,-0.6704,-0.6881,-0.7054,-0.7051,-0.7139,-0.7139,-0.7316,-0.7401,-0.7401,-0.7401,-0.7841,-0.8456,-0.8544,-0.941,-1.0977,-1.1149,-1.1837,-1.2966,-1.3222,-1.3561,-1.3997,-1.4082,-1.4088,-1.4088,-1.4166,-1.4166,-1.4088,-1.4166,-1.4166,-1.4088,-1.4173,-1.4977,-1.6675,-1.7989,-1.9134,-1.9942,-2.0186,-2.0342,-2.0342,-2.0489,-2.1165,-2.236,-2.2059,-2.2574,-2.4348,-2.4264,0.0,0.0,0.0,0.0,0.0,0.0,0.0,0.0,0.0,-2.4504,-2.3316,0.0,-2.301,0.0,-2.0722,-2.0576,-2.0576,-2.0576,0.0,0.0,-2.0576,-2.0576,-2.0576,-2.0576,-2.0576,-2.0576,-2.0576,-2.0576,-2.0576,-2.0576,-2.0576,-2.0576,-2.0576,-2.0576,-2.0576,-2.0576,-2.0576,-2.0576,-2.0576,-2.0576,-2.0576,-2.0576,-2.0576,-2.0576,-2.0576,-2.0644,-2.0867,-2.1918,-2.285,-2.3245,-2.4279,-2.5075,-2.5312,-2.5382,-2.5453,-2.5465,-2.5688,-2.5992,-2.6144,-2.6201,-2.627,-0.3315,-0.3762,-0.4656,-0.5104,-0.5104,-0.5816,-0.6171,-0.6257,-0.6615,-0.6881,-0.6966,-0.7051,-0.7139,-0.7139,-0.7139,-0.7139,-0.7139,-0.7139,-0.7577,-0.854,-0.8973,-0.9927,-1.1327,-1.1843,-1.2534,-1.3222,-1.3398,-1.3561,-1.3828,-1.3913,-1.3913,-1.3913,-1.4088,-1.4088,-1.4088,-1.4088,-1.4088,-1.4088,-1.4496,-1.5394,-1.6846,-1.7836,-1.8895,-1.9863,-2.002,-2.0186,-2.0264,-2.0498,-2.1165,-2.2209,-2.1983,-2.2574,-2.4204,-2.4192,-2.4264,0.0,0.0,0.0,0.0,0.0,0.0,0.0,0.0,0.0,0.0,0.0,-2.3379,-2.1842,-2.1021,-2.0576,-2.0576,-2.0576,-2.0576,-2.0576,-2.0576,-2.0576,-2.0576,-2.0576,-2.0576,-2.0576,-2.0576,-2.0576,-2.0576,-2.0576,-2.0576,-2.0576,-2.0576,-2.0576,-2.0576,-2.0576,-2.0576,-2.0576,-2.0576,-2.0576,-2.0576,-2.0576,-2.0576,-2.0576,-2.0576,-2.0789,-2.1538,-2.236,-2.322,-2.3944,-2.4732,-2.5312,-2.5312,-2.5312,-2.5312,-2.5312,-2.5477,-2.57,-2.591,-2.591,-2.605,-0.1883,-0.2778,-0.3762,-0.4208,-0.4389,-0.546,-0.5994,-0.6171,-0.6526,-0.6707,-0.6792,-0.7054,-0.7139,-0.7139,-0.7139,-0.7139,-0.7139,-0.7139,-0.758,-0.8544,-0.9318,-1.0274,-1.1327,-1.2186,-1.2796,-1.3052,-1.3143,-1.3222,-1.3398,-1.3568,-1.3652,-1.373,-1.3913,-1.4088,-1.4088,-1.4088,-1.4088,-1.4088,-1.5068,-1.5974,-1.669,-1.7674,-1.8727,-1.9784,-1.9863,-1.9942,-2.0186,-2.0411,-2.0779,-2.1385,-2.1614,-2.2134,-2.2947,-2.3672,-2.412,0.0,-2.4862,0.0,0.0,0.0,0.0,0.0,0.0,0.0,0.0,-2.3902,-2.3599,-2.3021,-2.1538,-2.0576,-2.0576,-2.0576,-2.0576,-2.0576,-2.0576,-2.0576,-2.0576,-2.0576,-2.0576,-2.0576,-2.0576,-2.0576,-2.0576,-2.0576,-2.0576,-2.0576,-2.0576,-2.0576,-2.0576,-2.0576,-2.0576,-2.0576,-2.0576,-2.0576,-2.0644,-2.0722,-2.0789,-2.0789,-2.0944,-2.1395,-2.2723,-2.3021,-2.3537,-2.4707,-2.5146,-2.5312,-2.5312,-2.5312,-2.5312,-2.5312,-2.5312,-2.5394,-2.5535,-2.5618,-2.5758,-0.1524,-0.1793,-0.2778,-0.3583,-0.4297,-0.4567,-0.5191,-0.6086,-0.6171,-0.6438,-0.6792,-0.6966,-0.7139,-0.7139,-0.7139,-0.7139,-0.7139,-0.7139,-0.758,-0.8544,-0.8715,-0.9671,-1.1235,-1.1671,-1.2277,-1.3058,-1.3307,-1.3392,-1.3398,-1.3476,-1.3568,-1.373,-1.3737,-1.3913,-1.4088,0.0,0.0,0.0,-1.5636,-1.6535,-1.678,-1.8247,-1.9143,-1.9381,-1.9548,0.0,-1.9715,-1.9942,-2.0391,-2.1135,-2.1385,0.0,0.0,0.0,0.0,0.0,0.0,0.0,0.0,0.0,0.0,0.0,-2.5158,-2.4779,-2.412,-2.2947,-2.2424,-2.2883,-2.1538,-2.0576,-2.0576,-2.0576,-2.0576,-2.0576,-2.0576,-2.0576,-2.0576,-2.0576,-2.0576,-2.0576,-2.0576,-2.0576,-2.0576,-2.0576,-2.0576,-2.0576,-2.0576,-2.0576,-2.0576,-2.0576,-2.0576,-2.0576,-2.0576,-2.0576,-2.0576,-2.1088,-2.1461,-2.1603,-2.2134,-2.2585,-2.2947,-2.3537,-2.3891,-2.4409,-2.4862,-2.5312,-2.5312,-2.5312,-2.5312,-2.5312,-2.5312,-2.5382,-2.5535,-2.5606,-2.5676,-0.0718,0.0,-0.1704,-0.2419,0.0,-0.3405,-0.4208,-0.528,-0.5816,-0.6257,-0.6612,-0.6871,-0.6962,-0.6969,-0.7051,-0.7139,-0.7139,-0.7139,-0.7404,-0.7841,-0.8281,-0.9235,-1.0626,-1.1235,-1.2015,-1.2875,-1.2831,-1.2853,-1.2841,-1.2972,-1.2985,-1.2985,-1.3231,-1.3402,-1.349,-1.3572,-1.3794,-1.4088,-1.5394,-1.6288,-1.669,-1.7997,-1.8904,-1.939,0.0,0.0,0.0,0.0,0.0,0.0,0.0,0.0,0.0,0.0,0.0,-2.4636,-2.5087,-2.5312,-2.5312,-2.5312,-2.5312,-2.5312,-2.5312,-2.5158,-2.4707,-2.361,-2.2936,-2.2947,-2.1907,-2.1021,-2.0634,-2.0576,-2.0576,-2.0576,-2.0576,-2.0576,-2.0576,-2.0576,-2.0576,-2.0576,-2.0576,-2.0576,-2.0576,-2.0576,-2.0576,-2.0576,-2.0576,-2.0576,-2.0576,-2.0576,-2.0576,-2.0576,-2.0576,-2.0576,-2.0644,-2.0867,-2.1395,-2.1766,-2.2134,-2.2734,-2.339,-2.3829,-2.4192,-2.4564,-2.5004,-2.5312,-2.5312,-2.5312,-2.5312,-2.5312,-2.5312,-2.5312,-2.5453,-2.5465,-2.5535,0.0,0.0,-0.0808,-0.1256,-0.1435,-0.2331,-0.3226,-0.4119,0.0,0.0,0.0,-0.6605,-0.6786,-0.6792,-0.6966,-0.7051,-0.7139,-0.7139,-0.7139,-0.7136,-0.7899,-0.8752,-0.9607,-1.0353,-1.1283,-1.2295,-1.2094,-1.2075,-1.2234,-1.2438,-1.2412,-1.2332,-1.2651,-1.2803,-1.2889,-1.3134,-1.3447,-1.3991,-1.4878,-1.5629,-1.6359,-1.739,-1.8407,-1.9311,-1.9478,-1.9557,-1.9557,-1.9706,-2.0001,-2.0527,-2.0682,-2.1583,-2.3158,-2.3452,-2.3975,-2.4874,-2.5099,-2.5182,-2.5253,-2.5241,-2.5241,-2.5253,-2.5312,-2.5312,-2.5312,-2.442,-2.3683,-2.3032,-2.2134,-2.1308,-2.0644,-2.0576,-2.0576,-2.0576,-2.0576,-2.0576,-2.0576,-2.0576,-2.0576,-2.0576,-2.0576,-2.0576,-2.0576,-2.0576,-2.0576,-2.0576,-2.0576,-2.0576,-2.0644,-2.0799,-2.0867,-2.0867,-2.1088,-2.1088,-2.1088,-2.1308,-2.1451,-2.2199,-2.2424,-2.2872,-2.3902,-2.4337,-2.4552,-2.5087,-2.5312,-2.5312,-2.5312,-2.5312,-2.5312,-2.5312,-2.5312,-2.5312,-2.5312,-2.5312,-2.5382,0.0,0.0,-0.018,-0.0629,-0.1436,-0.1524,-0.2152,-0.3224,-0.5188,-0.6083,-0.6171,-0.6352,-0.6618,-0.6792,-0.6792,-0.6969,-0.7139,-0.7139,-0.7139,0.0,-0.7101,-0.7636,-0.8466,-0.8563,-0.9389,-1.0876,-1.0924,-1.1318,-1.1894,-1.1938,-1.208,-1.2246,-1.2332,-1.2565,-1.2889,-1.3127,-1.3253,-1.334,-1.4444,-1.5058,-1.5139,-1.7024,-1.8086,-1.8247,-1.8966,-1.9301,-1.9301,-1.9381,-1.9469,-1.9529,-1.9706,-2.0245,-2.1231,-2.2124,-2.2957,-2.3813,-2.4478,-2.4849,-2.4861,-2.4849,-2.4921,-2.5111,-2.5241,-2.5312,-2.5241,-2.3986,-2.3106,-2.2957,-2.1756,-2.0712,-2.0566,-2.0644,-2.0644,-2.0644,-2.0566,-2.0576,-2.0576,-2.0576,-2.0576,-2.0576,-2.0576,-2.0576,-2.0576,-2.0576,-2.0576,-2.0576,-2.0576,-2.0576,-2.0722,-2.1165,-2.1614,-2.1756,-2.2209,-2.2585,-2.251,-2.3169,-2.3379,-2.3745,-2.4192,-2.4564,-2.4933,-2.5004,-2.5087,-2.5241,-2.5312,-2.5312,-2.5312,-2.5312,-2.5312,-2.5312,-2.5312,-2.5312,-2.5312,-2.5312,-2.53,0.0,0.0,0.0,-0.0269,-0.0628,-0.1166,-0.1704,-0.2241,-0.3671,-0.4385,-0.4474,-0.5099,-0.5542,-0.5714,-0.6358,-0.676,-0.6843,-0.685,-0.6902,-0.6895,-0.6834,-0.7301,-0.8117,-0.8115,-0.8737,-0.9958,-0.9922,-1.0025,-1.0338,-1.0377,-1.0317,-1.0317,-1.0473,-1.0784,-1.1408,-1.1787,-1.2094,-1.2579,-1.3475,-1.4186,-1.4648,-1.5582,-1.6381,-1.7053,-1.746,-1.7959,-1.8559,-1.8567,-1.8816,-1.9301,-1.9854,-2.0547,-2.1441,-2.2349,-2.3265,-2.4189,-2.4574,-2.4801,-2.4801,-2.4801,-2.4861,-2.4921,-2.4981,-2.4814,-2.4348,-2.4276,-2.4059,-2.3599,-2.2861,-2.2349,-2.1907,-2.1538,-2.1242,-2.1242,-2.0867,-2.0566,-2.0576,-2.0576,-2.0576,-2.0576,-2.0576,-2.0576,-2.0576,-2.0576,-2.0576,-2.0576,-2.0576,-2.0576,-2.0654,-2.1231,-2.1756,-2.1832,-2.2124,-2.2499,-2.2947,-2.3243,-2.3683,-2.4036,-2.4409,-2.4779,-2.5158,-2.5312,-2.5312,-2.5312,-2.5312,-2.5312,-2.5312,-2.5312,-2.5312,-2.5312,-2.5312,-2.5312,-2.5312,-2.5312,-2.5453,0.0,0.0,0.0,0.0,0.0,-0.0796,-0.1062,-0.1151,-0.1963,-0.2228,-0.2475,-0.3708,-0.441,-0.475,-0.5712,-0.6272,-0.6515,-0.6585,-0.6615,-0.6612,-0.6664,-0.7055,-0.769,-0.7744,-0.8124,-0.8917,-0.8853,-0.8779,-0.8994,-0.8928,-0.8846,-0.8775,-0.9079,-0.9609,-1.0218,-1.0726,-1.1316,-1.1961,-1.2536,-1.326,-1.4093,-1.4321,-1.5023,-1.6039,-1.6385,-1.7013,-1.8091,-1.8196,-1.8479,-1.9292,-1.9923,-2.075,-2.1897,-2.2574,-2.3486,-2.449,-2.4646,-2.4646,-2.4646,-2.4718,-2.4718,-2.4718,-2.4801,-2.4467,-2.3986,-2.4659,-2.4719,-2.3756,-2.3305,-2.3021,-2.2274,-2.168,-2.1385,-2.1308,-2.0867,-2.0411,-2.0411,-2.0411,-2.0411,-2.0489,-2.0401,-2.0411,-2.0411,-2.0498,-2.0566,-2.0566,-2.0576,-2.0566,-2.0644,-2.1165,-2.1461,-2.1766,-2.1907,-2.236,-2.2957,-2.3169,-2.3537,-2.4047,-2.4337,-2.4707,-2.5158,-2.5312,-2.5312,-2.5312,-2.5312,-2.5312,-2.5312,-2.5312,-2.5312,-2.5312,-2.5312,-2.5312,-2.5312,-2.5523,-2.5734,0.0,0.0,0.0,0.0,0.0,0.0,0.0,0.0,0.0,0.0,0.0,-0.2288,-0.3555,-0.4466,-0.4624,-0.5207,-0.6053,-0.637,-0.635,-0.6417,-0.6471,-0.6572,-0.6638,-0.6523,-0.6917,-0.7618,-0.7679,-0.7983,-0.8593,-0.8641,-0.8699,-0.878,-0.9614,-0.9992,-1.0218,-1.1105,-1.1626,-1.1706,-1.1832,-1.2218,-1.2932,-1.398,-1.4909,-1.5721,-1.6488,-1.743,-1.8425,-1.8606,-1.8848,-1.9256,-1.9371,-2.0138,-2.1603,-2.1907,-2.267,-2.4116,-2.4261,-2.4273,-2.4273,-2.4418,-2.4562,-2.4574,-2.4718,-2.4718,-2.4562,-2.4718,-2.3948,-2.2285,-2.1614,-2.1461,-2.0634,-2.0401,-2.0323,-2.0391,-2.0098,-1.9932,-2.0029,-1.9932,-1.9942,-1.9932,-2.002,-1.9951,-2.002,-2.0177,-2.042,-2.0489,-2.042,-2.0333,-2.0489,-2.0489,-2.0779,-2.1603,-2.236,-2.2798,-2.3106,-2.361,-2.3975,-2.4192,-2.4707,-2.5087,-2.5241,-2.5312,-2.5312,-2.5312,-2.5312,-2.5312,-2.5312,-2.5312,-2.5312,-2.5312,-2.5312,-2.5382,-2.537,-2.5861,-2.6346,0.0763,0.0757,0.0252,0.0,0.0,0.0,0.0,0.0,0.0,0.0,0.0,-0.0814,-0.1721,-0.268,-0.3307,-0.3862,-0.4269,-0.4369,-0.4738,-0.522,-0.541,-0.5704,-0.6097,-0.6288,-0.6493,-0.6799,-0.6799,-0.6953,-0.7253,-0.7257,-0.7253,-0.733,-0.771,-0.8089,-0.8618,-0.9599,-1.0357,-1.0812,-1.1409,-1.1838,-1.2172,-1.2743,-1.3279,-1.376,-1.4303,-1.5286,-1.669,-1.6962,-1.7527,-1.883,-1.9399,-2.0033,-2.0981,-2.1538,-2.2285,-2.3372,-2.397,-2.4189,-2.4189,-2.4273,-2.4345,-2.4334,-2.4418,-2.4116,-2.3117,-2.3434,-2.2841,-2.1011,-2.168,-2.2264,-2.1517,-2.0924,-2.0615,-2.0537,-2.0167,-1.9863,-1.9872,-1.9863,-1.9872,-1.9872,-1.9872,-1.9872,-1.9942,-2.002,-2.0098,-2.0177,-2.0098,-2.0098,-2.0177,-2.0098,-2.0255,-2.0624,-2.1375,-2.2424,-2.3316,-2.3829,-2.4264,-2.4719,-2.5087,-2.5312,-2.5312,-2.5312,-2.5312,-2.5312,-2.5312,-2.5312,-2.5312,-2.5312,-2.5312,-2.5453,-2.5791,-2.607,-2.6539,-2.6812,-2.7015,0.1493,0.1155,0.033,0.0,0.0,0.0,0.0,0.0,0.0,0.0,0.0,0.0,-0.032,-0.1067,-0.2105,-0.2651,-0.2804,-0.2994,-0.3361,-0.3984,-0.4139,-0.453,-0.5154,-0.5628,-0.5786,-0.5864,-0.6099,-0.6257,-0.6257,-0.6261,-0.6261,-0.6338,-0.649,-0.6953,-0.7557,-0.847,-0.9231,-0.9841,-1.0738,-1.118,-1.126,-1.1632,-1.2114,-1.2536,-1.2852,-1.3741,-1.5363,-1.5751,-1.6598,-1.8141,-1.8976,-1.9676,-2.0322,-2.1202,-2.2018,-2.2905,-2.3287,-2.3508,-2.3519,-2.3508,-2.3508,-2.3593,-2.374,-2.3361,-2.2531,-2.2841,-2.2306,-2.0702,-2.1962,-2.2563,-2.1659,-2.0981,-2.0605,-2.0605,-2.0079,-1.9696,-1.9706,-1.9706,-1.9706,-1.9706,-1.9696,-1.9784,-1.9794,-1.9794,-1.9872,-1.9942,-1.9863,-1.9863,-1.9872,-1.9863,-1.9942,-2.0167,-2.0857,-2.168,-2.3158,-2.3829,-2.4264,-2.4779,-2.5016,-2.5312,-2.5312,-2.5312,-2.5312,-2.5312,-2.5312,-2.5312,-2.537,-2.537,-2.5709,-2.5918,-2.6195,-2.6676,-2.7136,-2.7537,-2.7736,0.2004,0.1261,0.0394,0.0,0.0,0.0,0.0,0.0,0.0,0.0,0.0,0.0,0.0,-0.0158,-0.1024,-0.1804,-0.243,-0.2585,-0.2738,-0.2895,-0.3047,-0.3202,-0.3279,-0.4059,-0.4528,-0.4608,-0.5312,-0.586,-0.6103,-0.618,-0.6261,-0.6257,-0.6868,-0.7326,-0.7557,-0.8246,-0.8703,-0.8932,-0.969,-1.0067,-1.0143,-1.0962,-1.1855,-1.2693,-1.3039,-1.3645,-1.4887,-1.5823,-1.659,-1.7061,-1.7839,-1.8676,-1.9844,-2.0754,-2.1702,-2.268,-2.2295,-2.1983,-2.2059,-2.2134,-2.2059,-2.2145,-2.2767,-2.299,-2.2692,-2.3213,-2.2905,-2.1756,-2.1603,-2.1221,-2.0089,-1.9766,-1.9529,-1.9529,-1.9371,-1.9381,-1.9371,-1.9381,-1.9292,-1.9371,-1.9371,-1.946,-1.9566,-1.9636,-1.9715,-1.9784,-1.9715,-1.9636,-1.9794,-1.9724,-2.002,-2.0624,-2.1011,-2.1318,-2.1766,-2.3032,-2.3841,-2.4432,-2.4957,-2.5241,-2.5312,-2.5312,-2.5312,-2.5312,-2.5312,-2.537,-2.5429,-2.5824,-2.6352,-2.6569,-2.6539,-2.6947,-2.7604,-2.8117,-2.839,0.2918,0.2035,0.1722,0.1566,0.1567,0.1567,0.1332,0.0863,0.0864,0.0471,0.0,0.0,0.0,0.0,-0.0314,-0.0628,0.0,-0.1019,-0.1332,-0.1802,-0.2035,-0.2426,-0.2971,-0.3359,-0.3591,-0.3591,-0.3904,-0.4137,-0.4215,-0.4295,-0.4608,-0.5234,-0.5541,-0.6009,-0.6714,-0.7561,-0.8169,-0.8703,-0.9463,-1.0143,-1.0594,-1.1037,-1.1403,-1.17,-1.207,-1.2921,-1.429,-1.4792,-1.5688,-1.7049,-1.7506,-1.8045,-1.8732,-1.9811,-2.0541,-2.1022,-2.1515,-2.1993,-2.2456,-2.2542,-2.2606,-2.2606,-2.2841,-2.2456,-2.169,-2.1603,-2.1375,-2.0537,-2.0226,-1.9844,-1.9618,-1.9301,-1.9292,-1.9292,-1.9292,-1.9292,-1.9292,-1.9292,-1.9292,-1.9292,-1.9292,-1.9381,-1.9381,-1.939,-1.946,-1.946,-1.9469,-1.9469,-1.946,-1.946,-1.9618,-1.9923,-2.0459,-2.0991,-2.1811,-2.2883,-2.3801,-2.4383,-2.4838,-2.5052,-2.5123,-2.5182,-2.5182,-2.5253,-2.5253,-2.5441,-2.5569,-2.5685,-2.6352,-2.6921,-2.6879,-2.7404,-2.7986,-2.8583,-2.8994,0.375,0.3125,0.2815,0.2659,0.2582,0.2582,0.227,0.1723,0.1725,0.1333,0.0863,0.0549,0.0392,0.0392,0.0157,0.0,0.0,0.0,-0.0314,-0.0862,-0.1019,-0.1411,-0.188,-0.2347,-0.2501,-0.2579,-0.2891,-0.3125,-0.3513,-0.3513,-0.4062,-0.4927,-0.5004,-0.5318,-0.6099,-0.6714,-0.7322,-0.7859,-0.8699,-0.9382,-0.9906,-1.0432,-1.0738,-1.0818,-1.126,-1.199,-1.3171,-1.3585,-1.44,-1.5646,-1.6427,-1.7189,-1.8173,-1.8872,-1.9529,-2.0078,-2.0532,-2.1171,-2.1795,-2.191,-2.1766,-2.1842,-2.1993,-2.1614,-2.0615,-2.0769,-2.0459,-1.9913,-1.9687,-1.9618,-1.9381,-1.9292,-1.9292,-1.9292,-1.9292,-1.9292,-1.9292,-1.9292,-1.9292,-1.9292,-1.9292,-1.9292,-1.9292,-1.9292,-1.9292,-1.9292,-1.9292,-1.9292,-1.9292,-1.9292,-1.945,-1.9687,-2.0226,-2.1068,-2.1973,-2.2968,-2.3779,-2.4371,-2.4694,-2.4849,-2.4921,-2.4992,-2.5052,-2.5123,-2.5312,-2.5511,-2.5639,-2.5685,-2.6239,-2.7082,-2.7604,-2.8051,-2.8648,-2.9198,-2.9331,0.445,0.4292,0.3515,0.3125,0.3052,0.3052,0.2738,0.2582,0.2504,0.2426,0.2113,0.1644,0.1254,0.1176,0.0628,0.0,0.0,0.0,0.0157,0.0,0.0,0.0,0.0,-0.1019,-0.1332,-0.1409,-0.227,-0.3207,-0.3826,-0.3826,-0.4297,-0.5246,-0.5165,-0.5246,-0.5556,-0.5864,-0.6018,-0.6479,-0.7326,-0.771,-0.771,-0.9155,-0.9916,-0.9992,-1.0588,-1.1105,-1.1477,-1.2425,-1.3164,-1.3397,-1.4569,-1.6209,-1.7877,-1.8237,-1.8756,-1.966,-1.9286,-1.9203,-1.9771,-1.9687,-1.9703,-1.9847,-2.0197,-2.0643,-2.0527,-2.0991,-2.1068,-2.0382,-2.0235,-2.007,-1.945,-1.9292,-1.9292,-1.9292,-1.9292,-1.9292,-1.9292,-1.9292,-1.9292,-1.9292,-1.9292,-1.9292,-1.9292,-1.9292,-1.9292,-1.9292,-1.9292,-1.9292,-1.9274,-1.9246,-1.9571,-2.0022,-2.0111,-2.0358,-2.173,-2.2968,-2.3683,-2.4264,-2.4539,-2.4718,-2.479,-2.479,-2.4861,-2.4992,-2.5394,-2.5652,-2.6582,-2.6705,-2.7098,-2.7789,-2.8247,-2.836,-2.8647,-2.8921,-2.9184,0.6234,0.6005,0.5157,0.4771,0.4696,0.4696,0.4304,0.3599,0.3597,0.3207,0.2581,0.227,0.2113,0.2113,0.1801,0.1722,0.1722,0.1723,0.1097,0.0,0.0,0.0,0.0,-0.0235,-0.0392,-0.0471,-0.0706,-0.1019,-0.1331,-0.1409,-0.188,-0.274,-0.3443,-0.4146,-0.4927,-0.555,-0.6173,-0.6945,-0.733,-0.771,-0.8246,-0.878,-0.9084,-0.9084,-0.9306,-0.976,-1.0363,-1.1835,-1.315,-1.4099,-1.4832,-1.5743,-1.6767,-1.7189,-1.7533,-1.7914,-1.7989,-1.8293,-1.9029,-1.9134,-1.9288,-1.9564,-1.986,-1.9937,-1.9719,-1.9885,-1.9953,-1.9668,-1.9687,-1.9539,-1.9381,-1.9292,-1.9256,-1.9292,-1.9292,-1.9283,-1.9256,-1.9256,-1.9292,-1.9292,-1.9292,-1.9292,-1.9283,-1.9265,-1.9228,-1.9228,-1.9237,-1.9237,-1.9237,-1.9017,-1.8907,-1.9198,-1.9174,-1.956,-2.0894,-2.1857,-2.2496,-2.3356,-2.3895,-2.4224,-2.4306,-2.4424,-2.4459,-2.4684,-2.518,-2.5864,-2.6806,-2.7393,-2.7564,-2.7918,-2.8085,-2.8193,-2.8255,-2.8484,-2.875,0.7702,0.7476,0.7019,0.6556,0.6247,0.617,0.5628,0.4771,0.4696,0.4457,0.4059,0.3361,0.3281,0.3357,0.2813,0.2503,0.2503,0.2503,0.1957,0.1019,0.0941,0.0941,0.0941,0.0941,0.0941,0.0941,0.0941,0.0784,0.047,0.0078,-0.0548,-0.1486,-0.2268,-0.3051,-0.3906,-0.4768,-0.5622,-0.624,-0.6553,-0.7096,-0.7629,-0.8012,-0.8165,-0.8241,-0.8546,-0.8927,-0.9539,-1.0875,-1.2198,-1.3368,-1.4171,-1.5125,-1.6079,-1.6581,-1.6848,-1.7125,-1.7261,-1.7733,-1.8528,-1.8606,-1.8767,-1.9033,-1.9211,-1.9165,-1.8883,-1.8861,-1.8861,-1.8861,-1.8843,-1.8861,-1.8852,-1.8861,-1.8871,-1.8861,-1.9136,-1.921,-1.9127,-1.8944,-1.8852,-1.8815,-1.8825,-1.8861,-1.8861,-1.8861,-1.8861,-1.8861,-1.8861,-1.8861,-1.8815,-1.8641,-1.8616,-1.8694,-1.8957,-1.9497,-2.0103,-2.0747,-2.1231,-2.2162,-2.3073,-2.3375,-2.3607,-2.3607,-2.363,-2.3943,-2.4276,-2.4976,-2.5828,-2.6427,-2.6801,-2.7269,-2.7836,-2.7837,-2.7903,-2.8098,-2.8296,0.878,0.8775,0.8699,0.8012,0.7318,0.7242,0.6707,0.5864,0.5789,0.617,0.6318,0.5148,0.4836,0.4985,0.4053,0.3433,0.2891,0.3279,0.3278,0.3046,0.2968,0.2813,0.227,0.2192,0.219,0.227,0.227,0.2032,0.1327,0.0703,-0.0234,-0.078,-0.1641,-0.2347,-0.2579,-0.3439,-0.4144,-0.4377,-0.5007,-0.555,-0.5857,-0.6549,-0.7088,-0.7326,-0.794,-0.847,-0.8851,-0.9836,-1.0594,-1.1329,-1.3018,-1.4394,-1.5621,-1.6061,-1.6289,-1.6778,-1.6821,-1.7117,-1.7729,-1.7769,-1.7833,-1.7999,-1.8082,-1.8044,-1.8145,-1.8143,-1.8133,-1.8115,-1.8163,-1.8126,-1.8136,-1.8154,-1.8154,-1.8163,-1.8656,-1.8935,-1.8629,-1.8309,-1.8218,-1.8145,-1.8072,-1.8146,-1.8238,-1.8229,-1.8229,-1.8229,-1.8247,-1.8284,-1.8247,-1.8294,-1.8397,-1.8533,-1.8521,-1.8864,-1.9344,-1.9972,-2.0514,-2.1204,-2.2196,-2.2673,-2.3029,-2.3155,-2.3485,-2.3641,-2.3802,-2.4378,-2.5192,-2.6073,-2.6676,-2.7237,-2.7533,-2.7496,-2.753,-2.7661,-2.7579,0.9614,0.9539,0.8932,0.8546,0.8318,0.8318,0.8084,0.7698,0.7621,0.7625,0.7621,0.731,0.7076,0.7302,0.6839,0.6608,0.6374,0.6451,0.6451,0.622,0.622,0.4673,0.2891,0.2503,0.2582,0.2582,0.2737,0.2425,0.2188,0.1954,0.1641,0.1484,0.0,-0.0703,-0.1093,-0.2345,-0.3205,-0.3359,-0.3595,-0.4139,-0.4763,-0.4993,-0.5464,-0.6096,-0.6479,-0.7242,-0.8461,-0.9981,-1.1186,-1.1929,-1.2952,-1.3673,-1.425,-1.4402,-1.4609,-1.484,-1.5182,-1.5328,-1.5711,-1.6314,-1.6722,-1.7069,-1.7169,-1.744,-1.7737,-1.768,-1.7689,-1.7764,-1.7764,-1.7662,-1.7662,-1.7644,-1.7653,-1.7782,-1.7992,-1.8082,-1.7756,-1.7818,-1.7895,-1.7428,-1.7784,-1.798,-1.7971,-1.7971,-1.7971,-1.7971,-1.7962,-1.7962,-1.7843,-1.7779,-1.7796,-1.7685,-1.7716,-1.811,-1.8537,-1.9151,-1.9737,-2.038,-2.1205,-2.1984,-2.2518,-2.2977,-2.3604,-2.4263,-2.4261,-2.4659,-2.5716,-2.6789,-2.7129,-2.6868,-2.7114,-2.712,-2.7043,-2.7059,-2.6807,1.0368,1.0363,0.9911,0.9533,0.9236,0.9236,0.8922,0.8618,0.8542,0.8694,0.8694,0.838,0.8461,0.8685,0.8309,0.808,0.808,0.808,0.7923,0.777,0.7613,0.63,0.4525,0.3828,0.3677,0.3832,0.3752,0.3754,0.3675,0.3363,0.3129,0.2813,0.1719,0.1016,0.0781,-0.039,-0.1327,-0.1795,-0.2106,-0.2809,-0.3673,-0.375,-0.3986,-0.4535,-0.4999,-0.6076,-0.7693,-0.8832,-1.0265,-1.1848,-1.2739,-1.3244,-1.389,-1.3954,-1.4114,-1.4402,-1.4911,-1.5196,-1.5338,-1.5771,-1.6024,-1.6062,-1.6177,-1.6127,-1.6052,-1.6045,-1.6119,-1.6012,-1.6119,-1.6119,-1.6119,-1.6127,-1.6119,-1.6012,-1.6258,-1.6547,-1.6859,-1.7178,-1.7179,-1.6943,-1.7016,-1.7325,-1.7334,-1.7334,-1.7334,-1.7297,-1.7234,-1.7316,-1.737,-1.7215,-1.7248,-1.7263,-1.7488,-1.7938,-1.8504,-1.9111,-1.9579,-2.0107,-2.0683,-2.1384,-2.2015,-2.2632,-2.2982,-2.3587,-2.423,-2.4826,-2.5514,-2.5934,-2.5751,-2.5747,-2.6301,-2.6533,-2.6342,-2.6512,-2.6217,1.1186,1.1192,1.1192,1.0812,1.0218,1.0143,0.9911,0.9301,0.9155,0.9458,0.983,0.9145,0.9216,0.9669,0.9064,0.8537,0.8537,0.8836,0.8685,0.8609,0.8456,0.7609,0.6538,0.5851,0.5702,0.5705,0.5789,0.5553,0.516,0.4613,0.4224,0.3908,0.3127,0.2737,0.2422,0.1717,0.1092,0.0234,-0.039,-0.1092,-0.1952,-0.2265,-0.2578,-0.3042,-0.4057,-0.5065,-0.6304,-0.7226,-0.859,-1.1533,-1.1916,-1.2652,-1.3803,-1.4163,-1.4322,-1.4697,-1.4776,-1.5054,-1.548,-1.5338,-1.5488,-1.5095,-1.5023,-1.476,-1.44,-1.4279,-1.4286,-1.4367,-1.3947,-1.4255,-1.4255,-1.4137,-1.4175,-1.4286,-1.4152,-1.4921,-1.6033,-1.627,-1.6061,-1.5982,-1.5921,-1.6053,-1.6053,-1.6053,-1.6017,-1.591,-1.6002,-1.6171,-1.6323,-1.6395,-1.6738,-1.732,-1.7558,-1.793,-1.8509,-1.9177,-1.9518,-1.9977,-2.0453,-2.1081,-2.1539,-2.198,-2.2017,-2.2418,-2.3429,-2.3821,-2.3949,-2.4131,-2.4477,-2.4865,-2.5524,-2.5545,-2.5438,-2.5855,-2.5896,1.1781,1.1774,1.1781,1.1706,1.1558,1.1558,1.1706,1.1848,1.0956,1.0881,1.1254,1.0807,1.0657,1.0807,1.0501,1.0426,1.0421,1.072,1.1025,1.0576,0.9804,0.9281,0.8604,0.7923,0.7544,0.7395,0.6865,0.6633,0.6321,0.578,0.5243,0.5162,0.4761,0.4215,0.383,0.3433,0.2655,0.2032,0.1718,0.117,0.0312,-0.0312,-0.0937,-0.1636,-0.3113,-0.4199,-0.4969,-0.612,-0.7186,-0.8179,-0.9417,-1.0634,-1.1675,-1.1977,-1.2124,-1.2418,-1.2872,-1.3098,-1.3244,-1.3738,-1.397,-1.3738,-1.3665,-1.3818,-1.3673,-1.3448,-1.3455,-1.36,-1.36,-1.3302,-1.3222,-1.352,-1.3375,-1.3302,-1.3375,-1.355,-1.4111,-1.4441,-1.4386,-1.4091,-1.4307,-1.4522,-1.4522,-1.4673,-1.4593,-1.4514,-1.4736,-1.4887,-1.5251,-1.5692,-1.6254,-1.7019,-1.7088,-1.7354,-1.7959,-1.8623,-1.9233,-1.9694,-2.0161,-2.0752,-2.1273,-2.1651,-2.1827,-2.2199,-2.2873,-2.3138,-2.345,-2.391,-2.4487,-2.4664,-2.4821,-2.5005,-2.5257,-2.5522,-2.5784,1.2586,1.2452,1.2452,1.2452,1.2452,1.2445,1.2599,1.2753,1.2224,1.2083,1.2305,1.2077,1.1935,1.1929,1.1929,1.1929,1.2003,1.2224,1.2298,1.1996,1.1533,1.1236,1.1019,1.0421,0.9814,0.8689,0.8012,0.7706,0.7472,0.7165,0.6934,0.6784,0.6542,0.6381,0.5999,0.5681,0.5283,0.4585,0.3973,0.3428,0.257,0.1638,0.0781,-0.0078,-0.1401,-0.2334,-0.2952,-0.4119,-0.4966,-0.5656,-0.6656,-0.8268,-0.9868,-1.0248,-1.0398,-1.0834,-1.1211,-1.1501,-1.1643,-1.1937,-1.2084,-1.1717,-1.1729,-1.1816,-1.1675,-1.1533,-1.1459,-1.1613,-1.1459,-1.123,-1.1304,-1.1607,-1.1761,-1.1687,-1.1459,-1.1459,-1.1903,-1.2931,-1.3665,-1.3302,-1.3665,-1.381,-1.3803,-1.3506,-1.3947,-1.4163,-1.445,-1.4673,-1.5551,-1.5912,-1.5982,-1.6403,-1.6412,-1.6682,-1.7217,-1.7959,-1.8834,-1.9299,-1.9824,-2.0484,-2.1135,-2.1451,-2.1765,-2.2334,-2.2969,-2.339,-2.376,-2.4144,-2.4305,-2.4376,-2.4505,-2.4791,-2.5018,-2.5048,-2.5481,1.3535,1.3185,1.3112,1.3119,1.3112,1.3046,1.3112,1.3185,1.3039,1.2966,1.3112,1.3112,1.3025,1.3025,1.3098,1.3178,1.3397,1.3462,1.36,1.352,1.3448,1.3222,1.3077,1.2645,1.1829,0.9669,0.9372,0.914,0.8983,0.868,0.8452,0.8452,0.838,0.8214,0.83,0.8452,0.7893,0.6958,0.6276,0.5591,0.474,0.3736,0.2879,0.1713,0.0858,0.0,-0.0701,-0.1636,-0.2493,-0.3188,-0.3494,-0.518,-0.7167,-0.8623,-0.9,-0.9723,-0.9814,-0.99,-1.0066,-1.0284,-1.0215,-0.9321,-0.9562,-0.9658,-0.9599,-0.9372,-0.9372,-0.9372,-0.9372,-0.8998,-0.8699,-0.9372,-0.9755,-0.9604,-0.9079,-0.9008,-0.9755,-1.1533,-1.2117,-1.2492,-1.2418,-1.2645,-1.2565,-1.2412,-1.3215,-1.3803,-1.4019,-1.4378,-1.518,-1.5551,-1.5259,-1.5621,-1.5692,-1.6473,-1.7148,-1.756,-1.8365,-1.89,-1.9431,-2.0085,-2.0805,-2.1198,-2.1639,-2.2531,-2.3163,-2.3522,-2.376,-2.3982,-2.4099,-2.4054,-2.4332,-2.4708,-2.4681,-2.4624,-2.5189,1.4617,1.4545,1.4194,1.4057,1.4049,1.376,1.3977,1.4129,1.3753,1.3688,1.4049,1.3954,1.3939,1.4011,1.4219,1.472,1.5226,1.5305,1.5367,1.5367,1.5296,1.5147,1.4704,1.4291,1.3563,1.2983,1.2024,1.1366,1.0703,1.0104,0.9873,1.0018,0.9959,0.9879,0.9932,1.0077,0.9782,0.8939,0.8335,0.788,0.7279,0.6353,0.5269,0.3958,0.3034,0.2415,0.1948,0.1169,0.0545,0.0389,-0.0311,-0.1398,-0.294,-0.486,-0.6242,-0.7171,-0.7403,-0.7635,-0.8036,-0.8358,-0.8443,-0.8376,-0.8143,-0.8219,-0.8228,-0.808,-0.7766,-0.7999,-0.8075,-0.808,-0.8156,-0.8071,-0.8309,-0.8309,-0.8075,-0.7999,-0.83,-0.8746,-0.9185,-0.9406,-1.0248,-1.1174,-1.1013,-1.1007,-1.1446,-1.1883,-1.2104,-1.2545,-1.3281,-1.3506,-1.3448,-1.4099,-1.4887,-1.6026,-1.7157,-1.7432,-1.7969,-1.8442,-1.8967,-1.9617,-2.0268,-2.0869,-2.1577,-2.2531,-2.303,-2.3258,-2.3497,-2.3878,-2.3995,-2.4112,-2.4363,-2.461,-2.4624,-2.465,-2.5216,1.6367,1.6158,1.5675,1.5675,1.5807,1.5455,1.5534,1.5956,1.5658,1.5649,1.579,1.5781,1.5773,1.5773,1.5913,1.6341,1.6636,1.6706,1.6706,1.6706,1.6706,1.6627,1.6253,1.5764,1.5624,1.5413,1.4767,1.3491,1.2432,1.1681,1.152,1.1601,1.1613,1.1607,1.1588,1.1749,1.1588,1.0914,1.0525,1.0077,0.9718,0.8633,0.7411,0.6942,0.595,0.5493,0.5478,0.4854,0.4009,0.3401,0.2784,0.1939,0.0776,-0.0543,-0.2398,-0.4031,-0.4658,-0.482,-0.5212,-0.5369,-0.5443,-0.5372,-0.5446,-0.5748,-0.5899,-0.5745,-0.5597,-0.5597,-0.5979,-0.5979,-0.5443,-0.5822,-0.613,-0.6056,-0.5822,-0.5742,-0.5973,-0.605,-0.597,-0.6126,-0.7732,-0.8722,-0.9064,-0.921,-0.9588,-0.989,-1.011,-1.0703,-1.136,-1.1742,-1.1896,-1.3353,-1.4434,-1.5517,-1.6576,-1.6853,-1.7345,-1.7823,-1.8297,-1.8946,-1.9868,-2.0526,-2.1553,-2.2641,-2.2944,-2.3185,-2.3616,-2.4054,-2.4054,-2.4184,-2.4332,-2.4492,-2.4549,-2.4791,-2.5384,1.7901,1.7609,1.707,1.7148,1.7413,1.701,1.6932,1.7345,1.7404,1.7404,1.7541,1.7541,1.7541,1.7609,1.7677,1.7755,1.7823,1.7891,1.7881,1.7891,1.7891,1.7881,1.7745,1.7531,1.7248,1.7101,1.6697,1.5869,1.4307,1.3585,1.36,1.3803,1.3738,1.3673,1.3803,1.3939,1.368,1.3302,1.283,1.2291,1.1771,1.0656,0.9974,1.0404,0.9329,0.8796,0.8641,0.8169,0.7271,0.6449,0.5851,0.5325,0.4194,0.3812,0.2406,-0.0078,-0.1324,-0.1875,-0.2187,-0.2181,-0.2333,-0.2255,-0.2102,-0.2485,-0.295,-0.2795,-0.2572,-0.2572,-0.2797,-0.3023,-0.2561,-0.2715,-0.294,-0.2862,-0.248,-0.2251,-0.263,-0.2704,-0.2473,-0.3322,-0.5104,-0.588,-0.5956,-0.7359,-0.7723,-0.7799,-0.8023,-0.8788,-0.9531,-1.0381,-1.1125,-1.2882,-1.4188,-1.5138,-1.586,-1.607,-1.6558,-1.712,-1.7394,-1.7852,-1.9048,-2.0235,-2.133,-2.2372,-2.3078,-2.3318,-2.3806,-2.4261,-2.4434,-2.4549,-2.4474,-2.4704,-2.523,-2.5329,-2.5549,1.8432,1.8365,1.7969,1.7901,1.7891,1.755,1.7335,1.7541,1.7949,1.7959,1.8287,1.8365,1.8489,1.8623,1.8844,1.9121,1.9253,1.9375,1.9365,1.9365,1.9375,1.9365,1.9253,1.8643,1.867,1.8593,1.793,1.7129,1.6462,1.5974,1.5852,1.6131,1.572,1.586,1.5992,1.5939,1.6158,1.5649,1.5421,1.5051,1.4387,1.3071,1.2746,1.2711,1.2243,1.1582,1.1162,1.0851,1.0273,0.9494,0.928,0.8825,0.8059,0.7899,0.7358,0.5442,0.316,0.0545,0.0233,0.0388,0.0542,0.0697,0.0927,0.085,0.0464,0.0,0.0,-0.0389,0.0,0.0232,0.0542,0.0772,0.1002,0.1001,0.0925,0.1157,0.1001,0.0462,0.0771,0.0924,-0.046,-0.1695,-0.2397,-0.4248,-0.5797,-0.58,-0.603,-0.679,-0.7555,-0.8392,-0.9225,-1.0677,-1.2065,-1.3158,-1.4284,-1.4648,-1.5325,-1.6044,-1.641,-1.6748,-1.816,-1.9488,-2.0801,-2.1768,-2.2543,-2.3484,-2.4131,-2.4523,-2.4851,-2.4765,-2.4532,-2.53,-2.6365,-2.6172,-2.5697,2.0322,1.9955,1.9475,1.9486,1.9607,1.8813,1.888,1.9475,1.9672,1.9998,2.0311,2.0429,2.0568,2.044,2.0782,2.0846,2.0974,2.0974,2.0974,2.0974,2.0985,2.0985,2.091,2.0643,2.0557,2.0501,2.0256,2.0245,1.9369,1.7939,1.7051,1.7248,1.7042,1.6835,1.7512,1.7267,1.6991,1.6775,1.6618,1.6401,1.5983,1.5255,1.4877,1.5424,1.4828,1.4458,1.4316,1.4253,1.3739,1.2884,1.2508,1.1906,1.0998,1.0545,1.0154,0.9288,0.7847,0.5888,0.4151,0.3995,0.3849,0.3625,0.3855,0.378,0.355,0.3621,0.3471,0.3249,0.3699,0.3774,0.355,0.378,0.3855,0.4004,0.4447,0.4596,0.4599,0.4081,0.3851,0.4079,0.4225,0.3064,0.1685,-0.0153,-0.1913,-0.3086,-0.3321,-0.4013,-0.5013,-0.6093,-0.692,-0.7811,-0.9209,-1.0533,-1.1807,-1.2704,-1.3633,-1.43,-1.4934,-1.5624,-1.721,-1.8609,-1.9652,-2.1037,-2.2091,-2.3085,-2.4195,-2.458,-2.458,-2.4549,-2.4461,-2.5328,-2.6082,-2.6051,-2.5859,2.2262,2.1604,2.1037,2.0974,2.1239,2.0398,2.0526,2.1239,2.1302,2.1616,2.1978,2.1978,2.2039,2.2163,2.2151,2.22,2.2262,2.2506,2.2555,2.2555,2.2555,2.2555,2.2469,2.2408,2.2578,2.3022,2.2299,2.2238,2.1761,2.0602,1.9238,1.8506,1.8772,1.8716,1.8583,1.8716,1.8772,1.9041,1.8781,1.8583,1.8358,1.7812,1.7784,1.7813,1.7629,1.7425,1.759,1.7571,1.689,1.6309,1.592,1.5506,1.4869,1.475,1.4527,1.4033,1.3429,1.2551,1.0335,0.9013,0.7718,0.7287,0.7425,0.7776,0.763,0.7785,0.7701,0.725,0.7772,0.7635,0.735,0.7639,0.8076,0.8141,0.8001,0.8155,0.8291,0.824,0.8319,0.8644,0.8639,0.8058,0.6442,0.4405,0.2365,0.0308,-0.0696,-0.1158,-0.1921,-0.2748,-0.3821,-0.448,-0.6259,-0.7518,-0.8505,-0.986,-1.1156,-1.1972,-1.2587,-1.3275,-1.4066,-1.608,-1.7787,-1.9329,-2.0867,-2.2712,-2.3813,-2.406,-2.435,-2.5104,-2.5619,-2.5216,-2.5453,-2.563,-2.6218,2.369,2.3062,2.2335,2.2039,2.2051,2.1978,2.1916,2.2101,2.2101,2.2212,2.2506,2.2274,2.2445,2.2445,2.3012,2.3179,2.3059,2.3541,2.3832,2.3877,2.3761,2.3922,2.4024,2.4125,2.4094,2.4081,2.4024,2.3966,2.3806,2.3476,2.2396,2.1705,2.1146,2.1318,2.1318,2.102,2.1186,2.1428,2.1396,2.1507,2.1381,2.1082,2.0791,2.0905,2.0887,2.0643,1.9879,1.9943,1.9835,1.9415,1.934,1.9329,1.9073,1.9116,1.8892,1.8689,1.8624,1.8049,1.6852,1.3623,1.1382,1.1474,1.1992,1.2342,1.225,1.1867,1.1663,1.1755,1.2223,1.2407,1.2527,1.2885,1.2891,1.2897,1.2825,1.3057,1.3204,1.3194,1.3223,1.3378,1.3113,1.2664,1.2431,1.0609,0.6896,0.468,0.4143,0.3753,0.2703,0.1717,0.0151,-0.1132,-0.3203,-0.4432,-0.4977,-0.5698,-0.5815,-0.7012,-0.8171,-0.8781,-0.9502,-1.1984,-1.4635,-1.6994,-1.8462,-2.0986,-2.349,-2.4268,-2.519,-2.6332,-2.6592,-2.5631,-2.6189,-2.7215,-2.7573,2.5273,2.5051,2.4757,2.3897,2.2822,2.2797,2.2965,2.3323,2.3696,2.4204,2.4503,2.463,2.463,2.4687,2.4799,2.4954,2.501,2.5177,2.5451,2.568,2.5774,2.5891,2.6036,2.6179,2.6402,2.6416,2.617,2.6054,2.6318,2.5655,2.5066,2.4346,2.3599,2.3153,2.3034,2.3094,2.3246,2.3208,2.3191,2.3145,2.2883,2.2836,2.2752,2.3035,2.306,2.3102,2.2929,2.2974,2.2753,2.253,2.2471,2.2471,2.2543,2.2543,2.2399,2.2124,2.2053,2.1918,2.1522,1.8363,1.6501,1.6233,1.6759,1.7016,1.6779,1.6646,1.6513,1.6589,1.6779,1.7015,1.6741,1.7098,1.7471,1.7666,1.7775,1.7924,1.7914,1.7755,1.7907,1.7963,1.7789,1.7556,1.7402,1.7152,1.2979,0.9176,0.8912,0.8625,0.7946,0.727,0.6072,0.508,0.3363,0.2087,0.1653,0.0871,0.0,-0.1316,-0.2842,-0.279,-0.3081,-0.7686,-1.041,-1.309,-1.5361,-1.7258,-1.9916,-2.3802,-2.5535,-2.5701,-2.5654,-2.5273,-2.6499,-2.8526,-2.9042,2.6453,2.6308,2.6505,2.5658,2.4257,2.4103,2.4262,2.47,2.5121,2.563,2.6172,2.6172,2.6318,2.6409,2.6605,2.6732,2.6872,2.7077,2.738,2.75,2.7667,2.7847,2.804,2.8168,2.8184,2.8529,2.8245,2.7957,2.8069,2.736,2.7092,2.6674,2.6069,2.5504,2.4533,2.4817,2.4956,2.5012,2.5217,2.5053,2.4943,2.4902,2.4722,2.5066,2.5011,2.5038,2.5145,2.5117,2.5278,2.5278,2.5292,2.5306,2.5213,2.5105,2.4901,2.4614,2.4368,2.4354,2.4028,2.2477,2.1141,2.0592,2.1152,2.1223,2.1153,2.1296,2.1163,2.0997,2.1307,2.1354,2.0889,2.1384,2.1516,2.1525,2.1813,2.1983,2.2065,2.1983,2.2252,2.245,2.2265,2.2033,2.1838,2.1497,1.8776,1.5438,1.5159,1.498,1.4672,1.4022,1.3257,1.2258,1.1224,1.0158,0.9239,0.8694,0.8186,0.7785,0.6479,0.5803,0.4222,-0.0262,-0.2222,-0.1978,-0.5181,-1.1265,-1.3015,-1.2572,-1.8087,-2.4342,-2.5129,-2.6566,-2.7844,-2.9748,-3.0296,2.7004,2.6616,2.721,2.696,2.6197,2.6119,2.6105,2.6197,2.6265,2.6409,2.6582,2.6529,2.668,2.7098,2.7694,2.7987,2.8356,2.8825,2.9162,2.9191,2.9262,2.9342,2.9476,2.9592,2.9604,2.9464,2.9268,2.9207,2.9284,2.8903,2.8949,2.8979,2.8372,2.7731,2.6065,2.6902,2.7728,2.8198,2.8482,2.8119,2.7817,2.7622,2.7345,2.7304,2.7156,2.7175,2.7342,2.7327,2.7473,2.7745,2.7793,2.7998,2.8419,2.8618,2.8693,2.8828,2.8873,2.9127,2.9378,2.6336,2.504,2.4515,2.4854,2.5114,2.5386,2.5502,2.5394,2.5061,2.5292,2.5473,2.5459,2.5473,2.5334,2.5553,2.5791,2.5927,2.599,2.6039,2.6249,2.6344,2.6346,2.6238,2.6051,2.5443,2.3595,2.1951,2.1535,2.1182,2.073,2.0213,1.9353,1.8643,1.7734,1.7203,1.6293,1.6515,1.6288,1.6085,1.5205,1.3772,1.2651,0.9925,0.8897,0.9181,0.4616,-0.184,-0.0835,0.099,-0.704,-1.5573,-2.5808,-2.8955,-3.005,-3.0508,-3.0676,2.8384,2.824,2.848,2.856,2.8466,2.7724,2.751,2.7728,2.7936,2.8209,2.8481,2.829,2.8386,2.8794,2.8963,2.9207,2.9432,2.9762,3.0067,3.0484,3.067,3.1065,3.1121,3.096,3.0897,3.0778,3.0592,3.0218,3.0107,2.9962,2.9629,2.9524,2.9794,2.9204,2.8529,2.8701,2.8887,2.9041,2.9178,2.9236,2.9303,2.9246,2.9335,2.9502,2.9431,2.9431,2.9615,2.9556,2.9717,2.9819,2.9845,2.9962,3.012,3.0154,3.0292,3.0379,3.0409,3.0878,3.1372,3.0326,2.9613,2.8721,2.8089,2.8331,2.8481,2.8554,2.8638,2.8732,2.8542,2.8689,2.9121,2.8941,2.8941,2.9534,2.9782,2.9782,2.9838,2.9822,2.9939,2.9917,2.9923,2.9599,2.938,2.9042,2.7572,2.6839,2.6291,2.5711,2.5173,2.525,2.4758,2.4221,2.3583,2.3436,2.3246,2.3063,2.2248,2.1355,2.0808,2.0004,1.9007,1.8655,1.7363,1.6254,1.2102,0.8209,0.8172,0.7029,0.1651,-0.6387,-1.5571,-2.3107,-2.4132,-2.6531,-3.0111,2.9348,2.9348,2.9348,2.9617,2.9865,2.9041,2.8763,2.8963,2.9134,2.9454,2.9633,2.9438,2.9657,3.0031,3.0201,3.0493,3.064,3.0886,3.1065,3.1479,3.17,3.1862,3.2004,3.2056,3.1789,3.1733,3.1511,3.1189,3.121,3.0784,3.0687,3.0711,3.0644,3.066,3.0393,3.0286,3.0228,3.0369,3.059,3.0556,3.062,3.0654,3.079,3.1026,3.1159,3.127,3.1588,3.1752,3.1699,3.1502,3.1431,3.1376,3.1253,3.1313,3.1478,3.162,3.1759,3.2196,3.2621,3.2877,3.1876,3.1102,3.0955,3.1035,3.1153,3.116,3.1268,3.134,3.1248,3.1409,3.162,3.155,3.1673,3.2166,3.2293,3.2225,3.2259,3.2188,3.2391,3.2499,3.2499,3.2389,3.2259,3.2201,3.1487,3.1159,3.0889,3.0135,2.9374,2.9366,2.9367,2.8973,2.8845,2.8798,2.8911,2.9193,2.8161,2.6721,2.6207,2.5849,2.689,2.6706,2.502,2.3663,2.1567,1.9064,1.5592,1.2511,0.9442,0.4208,-0.3509,-1.0328,-1.6033,-2.0222,-2.3838,2.9853,2.9837,2.9853,3.0097,3.0377,3.0064,2.9908,2.9837,2.9853,2.9913,2.9924,3.0027,3.0402,3.0943,3.1043,3.1405,3.1951,3.2109,3.2179,3.2299,3.2384,3.2435,3.2435,3.2401,3.2368,3.2351,3.2196,3.1986,3.2299,3.2057,3.2022,3.2195,3.2091,3.2142,3.2022,3.1882,3.1705,3.1685,3.1666,3.1721,3.1864,3.1916,3.1969,3.2126,3.2144,3.2195,3.2331,3.238,3.2574,3.2666,3.2852,3.3087,3.327,3.3468,3.3496,3.3515,3.3478,3.3542,3.3597,3.3766,3.3687,3.311,3.3237,3.3431,3.3263,3.3013,3.3045,3.3138,3.3063,3.3201,3.3348,3.3265,3.3182,3.3469,3.3681,3.3709,3.377,3.3911,3.4205,3.4304,3.4266,3.4167,3.4049,3.4049,3.3604,3.3552,3.3091,3.2943,3.2415,3.2716,3.2802,3.3074,3.3184,3.3884,3.3922,3.2976,3.2581,3.0613,3.177,3.1928,3.3288,3.3235,3.1196,3.0157,3.1854,2.9991,2.5206,2.2065,1.9774,1.4105,0.9994,0.226,-0.3523,-0.9192,-1.3177,3.0377,3.0377,3.046,3.0781,3.1196,3.1338,3.1206,3.0861,3.08,3.0949,3.1363,3.123,3.1406,3.1968,3.1951,3.2109,3.2368,3.2586,3.2734,3.2862,3.297,3.3142,3.3142,3.297,3.2925,3.2781,3.2666,3.2598,3.2565,3.2677,3.2955,3.301,3.3128,3.331,3.3395,3.3432,3.301,3.2656,3.261,3.2755,3.2893,3.2893,3.2985,3.3076,3.3064,3.3105,3.3128,3.3176,3.332,3.3367,3.3385,3.3468,3.3468,3.3817,3.4059,3.4521,3.4582,3.4641,3.4621,3.4582,3.4542,3.4521,3.4521,3.4285,3.4176,3.4134,3.4292,3.4289,3.427,3.4184,3.4211,3.4195,3.4199,3.4346,3.4507,3.4548,3.4584,3.4725,3.499,3.5017,3.5013,3.5013,3.5013,3.4921,3.4544,3.4908,3.5004,3.4836,3.4765,3.4855,3.4937,3.5133,3.5173,3.5173,3.5203,3.4459,3.4803,3.4909,3.5274,3.5327,3.5057,3.491,3.5371,3.5215,3.4606,3.45,3.3546,3.0452,2.6931,2.9604,2.6158,1.7199,0.901,0.3198,-0.126,3.1067,3.0982,3.1038,3.1312,3.1711,3.2039,3.2074,3.1839,3.1718,3.186,3.2162,3.2056,3.2266,3.2586,3.2601,3.2699,3.2876,3.3081,3.322,3.328,3.3484,3.3502,3.3473,3.3455,3.3397,3.3302,3.3277,3.3299,3.3252,3.3358,3.3632,3.3729,3.3857,3.4012,3.4104,3.4086,3.3981,3.364,3.3451,3.3534,3.3615,3.3695,3.3843,3.3926,3.3919,3.3951,3.4017,3.4035,3.4064,3.4134,3.418,3.418,3.4203,3.4484,3.4642,3.5005,3.5021,3.504,3.5024,3.504,3.5105,3.5181,3.5201,3.5062,3.4871,3.4767,3.4859,3.4899,3.4861,3.4823,3.489,3.4955,3.5036,3.5115,3.5158,3.518,3.5226,3.5268,3.5306,3.5329,3.534,3.5359,3.534,3.5311,3.533,3.5378,3.5427,3.5389,3.5339,3.5385,3.543,3.5541,3.5538,3.5524,3.5539,3.5493,3.5493,3.5513,3.5591,3.5702,3.5942,3.5935,3.5782,3.5763,3.571,3.5527,3.5232,3.5369,3.3769,3.5558,3.5331,2.7939,1.9969,1.5139,1.1496,3.1877,3.1614,3.1614,3.1768,3.2092,3.2435,3.2634,3.2752,3.2595,3.2578,3.2598,3.2608,3.2822,3.3075,3.3093,3.325,3.3339,3.3502,3.3587,3.3615,3.3698,3.3753,3.3788,3.3698,3.3831,3.4005,3.4037,3.3963,3.4251,3.4323,3.4304,3.4383,3.4411,3.4494,3.4557,3.4639,3.4582,3.4563,3.4379,3.4373,3.4349,3.4386,3.443,3.4519,3.4562,3.4603,3.4808,3.4931,3.5015,3.5097,3.5132,3.5066,3.5117,3.5117,3.5181,3.5259,3.5287,3.5309,3.5322,3.5335,3.5328,3.538,3.5466,3.5466,3.5358,3.5237,3.5283,3.5295,3.5237,3.5249,3.5272,3.5295,3.5366,3.5417,3.5447,3.5493,3.5551,3.558,3.5588,3.5607,3.558,3.558,3.5549,3.5513,3.5497,3.5622,3.5656,3.5689,3.5693,3.5734,3.5759,3.579,3.5745,3.5677,3.568,3.5673,3.5689,3.5725,3.5764,3.5744,3.5762,3.5839,3.5958,3.583,3.5691,3.5737,3.5611,3.5599,3.5495,3.5399,3.5124,3.4604,3.0346,2.4795,2.2824,3.2504,3.2454,3.2453,3.2535,3.2616,3.2952,3.3105,3.3184,3.3397,3.3327,3.3148,3.3281,3.3441,3.3522,3.3512,3.3587,3.3643,3.3788,3.3834,3.3947,3.4023,3.408,3.4237,3.4171,3.4307,3.4353,3.442,3.4532,3.4659,3.4794,3.4921,3.4971,3.5007,3.5043,3.5024,3.5108,3.5174,3.5205,3.5185,3.5051,3.4966,3.4969,3.5021,3.5002,3.5035,3.5035,3.5147,3.5147,3.5147,3.5181,3.5181,3.5259,3.5412,3.5406,3.5469,3.5557,3.5568,3.5562,3.5592,3.5611,3.5616,3.5638,3.5702,3.5738,3.5708,3.5658,3.5619,3.5626,3.5626,3.5626,3.5632,3.5639,3.5645,3.5677,3.5694,3.5767,3.5835,3.5834,3.5839,3.5817,3.5812,3.5767,3.5725,3.5698,3.5711,3.5711,3.5692,3.5711,3.5706,3.5742,3.5737,3.5756,3.5799,3.5762,3.5763,3.5727,3.5702,3.5645,3.5624,3.5596,3.5582,3.5674,3.576,3.5592,3.5504,3.5563,3.5557,3.5432,3.5321,3.5288,3.5076,3.466,3.4756,3.0619,3.0728,3.2876,3.2781,3.2921,3.3014,3.3093,3.3361,3.3541,3.3569,3.3707,3.3762,3.3671,3.3752,3.3797,3.3895,3.3868,3.391,3.3961,3.4018,3.4141,3.4279,3.4325,3.4371,3.4486,3.4597,3.4658,3.4697,3.4886,3.5026,3.5057,3.5139,3.5278,3.5334,3.5425,3.5457,3.5457,3.5502,3.555,3.5535,3.5609,3.559,3.5465,3.5418,3.5393,3.5393,3.5419,3.5432,3.5481,3.5481,3.5481,3.5461,3.5492,3.5549,3.565,3.5689,3.5697,3.576,3.5791,3.5794,3.5813,3.5841,3.5841,3.5835,3.5845,3.5845,3.5877,3.5831,3.5798,3.5798,3.5783,3.5779,3.5821,3.5845,3.5845,3.5849,3.587,3.5895,3.5917,3.5918,3.5915,3.5912,3.5884,3.5845,3.5798,3.5719,3.5724,3.5719,3.571,3.5697,3.5717,3.5689,3.571,3.5699,3.5705,3.5717,3.5682,3.5657,3.5639,3.5591,3.5485,3.553,3.5551,3.556,3.5542,3.5405,3.5364,3.5419,3.538,3.5262,3.5281,3.5296,3.5064,3.4756,3.4978,3.5102,3.4128,3.3214,3.3045,3.3325,3.3458,3.3504,3.377,3.3902,3.3895,3.3913,3.4023,3.416,3.3993,3.408,3.4173,3.4269,3.4353,3.4401,3.4334,3.4423,3.4555,3.4576,3.4756,3.4794,3.4831,3.4973,3.5139,3.5292,3.54,3.5461,3.5523,3.5523,3.5535,3.5535,3.5546,3.5596,3.5669,3.5727,3.5743,3.5803,3.5846,3.5791,3.5678,3.5669,3.5698,3.5737,3.5766,3.5801,3.5818,3.5818,3.5784,3.5745,3.5781,3.5795,3.5833,3.5844,3.586,3.5866,3.5869,3.5887,3.5874,3.5893,3.5918,3.5918,3.5933,3.5979,3.5962,3.5933,3.5917,3.5898,3.5918,3.5955,3.5971,3.5971,3.5971,3.5971,3.597,3.597,3.5966,3.5962,3.5962,3.59,3.587,3.5794,3.5723,3.5702,3.5675,3.5694,3.5687,3.5671,3.5601,3.5592,3.5563,3.5553,3.5553,3.5596,3.5531,3.55,3.5374,3.5306,3.5419,3.5463,3.5292,3.5205,3.5258,3.5243,3.5224,3.5193,3.5122,3.519,3.5203,3.4999,3.4754,3.4889,3.4944,3.4756,3.3797,3.3961,3.4171,3.4246,3.4288,3.4353,3.4375,3.4371,3.4349,3.4414,3.4442,3.4398,3.4398,3.4442,3.4442,3.4532,3.4637,3.4598,3.4737,3.4868,3.4954,3.5151,3.5273,3.5235,3.54,3.5492,3.5568,3.563,3.5688,3.5724,3.5776,3.5779,3.5787,3.5794,3.5813,3.5853,3.5833,3.5852,3.5864,3.5885,3.5899,3.584,3.5859,3.5864,3.5857,3.5842,3.5834,3.5857,3.5833,3.5836,3.583,3.5868,3.5893,3.5893,3.5899,3.5918,3.5901,3.5912,3.5897,3.5898,3.5914,3.5955,3.5952,3.5968,3.597,3.5951,3.5946,3.5946,3.5938,3.594,3.5949,3.5942,3.5942,3.5946,3.5949,3.5949,3.5946,3.5908,3.587,3.5825,3.5788,3.5702,3.5611,3.557,3.5538,3.5546,3.5523,3.5523,3.5535,3.5507,3.5457,3.5432,3.5391,3.5483,3.5572,3.535,3.5258,3.5165,3.5098,3.5178,3.5114,3.4813,3.4792,3.5035,3.4982,3.4889,3.487,3.4982,3.4889,3.487,3.4831,3.4749,3.4831,3.4851,3.4714]}]]